[[{"header":{"parameterUnit":"m.s-1","parameterCategory":1,"la1":30.6,"la2":29.2853,"lo1":-89.7004,"lo2":-87.6739,"dy":0.0162,"dx":0.0183,"nx":112,"ny":82,"refTime":"2026-02-23T12:00:00:Z","depth":0,"parameterNumber":2,"parameterNumberName":"U-component_of_WINDS"},"data":[0.0,0.0,0.0,0.0,0.0,0.0,0.0,0.0,0.0,0.0,0.0,0.0,0.0,0.0,0.0,0.0,0.0,0.0,0.0,0.0,0.0,0.0,0.0,0.0,0.0,0.0,0.0,0.0,0.0,0.0,0.0,0.0,0.0,0.0,0.0,0.0,0.0,0.0,0.0,0.0,0.0,0.0,0.0,0.0,0.0,0.0,0.0,0.0,0.0,0.0,0.0,0.0,0.0,0.0,0.0,0.0,0.0,0.0,0.0,0.0,0.0,0.0,0.0,0.0,0.0,0.0,0.0,0.0,0.0,0.0,0.0,0.0,0.0,0.0,0.0,0.0,0.0,0.0,0.0,0.0,0.0,0.0,0.0,0.0,0.0,0.0,0.0,0.0,0.0,0.0,2.1534,2.406,2.6249,2.707,2.6066,2.5915,2.4631,2.1697,0.0,0.0,0.0,0.0,0.0,0.0,0.0,0.0,0.0,0.0,0.0,0.0,0.0,0.0,0.0,0.0,0.0,0.0,0.0,0.0,0.0,0.0,0.0,0.0,0.0,0.0,0.0,0.0,0.0,0.0,0.0,0.0,0.0,0.0,0.0,0.0,0.0,0.0,0.0,0.0,0.0,0.0,0.0,0.0,0.0,0.0,0.0,0.0,0.0,0.0,0.0,0.0,0.0,0.0,0.0,0.0,0.0,0.0,0.0,0.0,0.0,0.0,0.0,0.0,0.0,0.0,0.0,0.0,0.0,0.0,0.0,0.0,0.0,0.0,0.0,0.0,0.0,0.0,0.0,0.0,0.0,0.0,0.0,0.0,0.0,0.0,0.0,0.0,0.0,0.0,0.0,0.0,0.0,0.0,0.0,0.0,0.0,0.0,0.0,0.0,0.0,0.0,0.0,0.0,2.122,2.4597,2.6504,2.6951,2.5534,2.5467,2.426,2.1369,0.0,0.0,0.0,0.0,0.0,0.0,0.0,0.0,0.0,0.0,0.0,0.0,0.0,0.0,0.0,0.0,0.0,0.0,0.0,0.0,0.0,0.0,0.0,0.0,0.0,0.0,0.0,0.0,0.0,0.0,0.0,0.0,0.0,0.0,0.0,0.0,0.0,0.0,0.0,0.0,0.0,0.0,0.0,0.0,0.0,0.0,0.0,0.0,0.0,0.0,0.0,0.0,0.0,0.0,0.0,0.0,0.0,0.0,0.0,0.0,0.0,0.0,0.0,0.0,0.0,0.0,0.0,0.0,0.0,0.0,0.0,0.0,0.0,0.0,0.0,0.0,0.0,0.0,0.0,0.0,0.0,0.0,0.0,0.0,0.0,0.0,0.0,0.0,0.0,0.0,0.0,0.0,0.0,0.0,0.0,0.0,0.0,0.0,0.0,0.0,0.0,0.0,0.0,2.1216,2.273,2.4425,2.6022,2.6347,2.4874,2.4805,2.3746,2.1259,1.9706,0.0,0.0,0.0,0.0,0.0,0.0,0.0,0.0,0.0,0.0,0.0,0.0,0.0,0.0,0.0,0.0,0.0,0.0,0.0,0.0,0.0,0.0,0.0,0.0,0.0,0.0,0.0,0.0,0.0,0.0,0.0,0.0,0.0,0.0,0.0,0.0,0.0,0.0,0.0,0.0,0.0,0.0,0.0,0.0,0.0,0.0,0.0,0.0,0.0,0.0,0.0,0.0,0.0,0.0,0.0,0.0,0.0,0.0,0.0,0.0,0.0,0.0,0.0,0.0,0.0,0.0,0.0,0.0,0.0,0.0,0.0,0.0,0.0,0.0,0.0,0.0,0.0,0.0,0.0,0.0,0.0,0.0,0.0,0.0,0.0,0.0,0.0,0.0,0.0,0.0,0.0,0.0,0.0,0.0,0.0,0.0,0.0,0.0,0.0,0.0,0.0,0.0,2.304,2.4041,2.4147,2.5397,2.5687,2.4375,2.412,2.3206,2.1271,1.943,0.0,0.0,0.0,0.0,0.0,0.0,0.0,0.0,0.0,0.0,0.0,0.0,0.0,0.0,0.0,0.0,0.0,0.0,0.0,0.0,0.0,0.0,0.0,0.0,0.0,0.0,0.0,0.0,0.0,0.0,0.0,0.0,0.0,0.0,0.0,0.0,0.0,0.0,0.0,0.0,0.0,0.0,0.0,0.0,0.0,0.0,0.0,0.0,0.0,0.0,0.0,0.0,0.0,0.0,0.0,0.0,0.0,0.0,0.0,0.0,0.0,0.0,0.0,0.0,0.0,0.0,0.0,0.0,0.0,0.0,0.0,0.0,0.0,0.0,0.0,0.0,0.0,0.0,0.0,0.0,0.0,0.0,0.0,0.0,0.0,0.0,0.0,0.0,0.0,0.0,0.0,0.0,0.0,0.0,0.0,0.0,0.0,0.0,0.0,0.0,0.0,0.0,2.2648,2.3942,2.4102,2.4881,2.5065,2.4279,2.3578,2.2635,2.1362,1.9022,0.0,0.0,0.0,0.0,0.0,0.0,0.0,0.0,0.0,0.0,0.0,0.0,0.0,0.0,0.0,0.0,0.0,0.0,0.0,0.0,0.0,0.0,0.0,0.0,0.0,0.0,0.0,0.0,0.0,0.0,0.0,0.0,0.0,0.0,0.0,0.0,0.0,0.0,0.0,0.0,0.0,0.0,0.0,0.0,0.0,0.0,0.0,0.0,0.0,0.0,0.0,0.0,0.0,0.0,0.0,0.0,0.0,0.0,0.0,0.0,0.0,0.0,0.0,0.0,0.0,0.0,0.0,0.0,0.0,0.0,0.0,0.0,0.0,0.0,0.0,0.0,0.0,0.0,0.0,0.0,0.0,0.0,0.0,0.0,0.0,0.0,0.0,0.0,0.0,0.0,0.0,0.0,0.0,0.0,0.0,0.0,0.0,0.0,0.0,0.0,0.0,0.0,2.2244,2.3319,2.3406,2.4165,2.4375,2.3578,2.327,2.2581,2.1381,0.0,0.0,0.0,0.0,0.0,0.0,0.0,0.0,0.0,0.0,0.0,0.0,0.0,0.0,0.0,0.0,0.0,0.0,0.0,0.0,0.0,0.0,0.0,0.0,0.0,0.0,0.0,0.0,0.0,0.0,0.0,0.0,0.0,0.0,0.0,0.0,0.0,0.0,0.0,0.0,0.0,0.0,0.0,0.0,0.0,0.0,0.0,0.0,0.0,0.0,0.0,0.0,0.0,0.0,0.0,0.0,0.0,0.0,0.0,0.0,0.0,0.0,0.0,0.0,0.0,0.0,0.0,0.0,0.0,0.0,0.0,0.0,0.0,0.0,0.0,0.0,0.0,0.0,0.0,0.0,0.0,0.0,0.0,0.0,0.0,0.0,0.0,0.0,0.0,0.0,0.0,0.0,0.0,0.0,0.0,0.0,0.0,0.0,0.0,0.0,0.0,0.0,2.0407,2.179,2.2586,2.2628,2.32,2.3225,2.2435,2.2171,2.1613,2.0625,0.0,0.0,0.0,0.0,0.0,0.0,0.0,0.0,0.0,0.0,0.0,0.0,0.0,0.0,0.0,0.0,0.0,0.0,0.0,0.0,0.0,0.0,0.0,0.0,0.0,0.0,0.0,0.0,0.0,0.0,0.0,0.0,0.0,0.0,0.0,0.0,0.0,0.0,0.0,0.0,0.0,0.0,0.0,0.0,0.0,0.0,0.0,0.0,0.0,0.0,0.0,0.0,0.0,0.0,0.0,0.0,0.0,0.0,0.0,0.0,0.0,0.0,0.0,0.0,0.0,0.0,0.0,0.0,0.0,0.0,0.0,0.0,0.0,0.0,0.0,0.0,0.0,0.0,0.0,0.0,0.0,0.0,0.0,0.0,0.0,0.0,0.0,0.0,0.0,0.0,0.0,0.0,0.0,0.0,0.0,0.0,0.0,0.0,0.0,0.0,0.0,0.0,2.0218,2.1236,2.1812,2.1884,2.1955,2.1668,2.0877,2.0117,1.9509,0.0,0.0,0.0,0.0,0.0,0.0,0.0,0.0,0.0,0.0,0.0,0.0,0.0,0.0,0.0,0.0,0.0,0.0,0.0,0.0,0.0,0.0,0.0,0.0,0.0,0.0,0.0,0.0,0.0,0.0,0.0,0.0,0.0,0.0,0.0,0.0,0.0,0.0,0.0,0.0,0.0,0.0,0.0,0.0,0.0,0.0,0.0,0.0,0.0,0.0,0.0,0.0,0.0,0.0,0.0,0.0,0.0,0.0,0.0,0.0,0.0,0.0,0.0,0.0,0.0,0.0,0.0,0.0,0.0,0.0,0.0,0.0,0.0,0.0,0.0,0.0,0.0,0.0,0.0,0.0,0.0,0.0,0.0,0.0,0.0,0.0,0.0,0.0,0.0,0.0,0.0,0.0,0.0,0.0,0.0,0.0,0.0,0.0,0.0,0.0,0.0,0.0,0.0,1.944,2.0414,2.0953,2.0976,2.109,2.107,2.0824,2.0613,2.0058,1.9053,0.0,0.0,0.0,0.0,0.0,0.0,0.0,0.0,0.0,0.0,0.0,0.0,0.0,0.0,0.0,0.0,0.0,0.0,0.0,0.0,0.0,0.0,0.0,0.0,0.0,0.0,0.0,0.0,0.0,0.0,0.0,0.0,0.0,0.0,0.0,0.0,0.0,0.0,0.0,0.0,0.0,0.0,0.0,0.0,0.0,0.0,0.0,0.0,0.0,0.0,0.0,0.0,0.0,0.0,0.0,0.0,0.0,0.0,0.0,0.0,0.0,0.0,0.0,0.0,0.0,0.0,0.0,0.0,0.0,0.0,0.0,0.0,0.0,0.0,0.0,0.0,0.0,0.0,0.0,0.0,0.0,0.0,0.0,0.0,0.0,0.0,0.0,0.0,0.0,0.0,0.0,0.0,0.0,0.0,0.0,0.0,0.0,0.0,0.0,0.0,0.0,0.0,1.8655,1.9549,2.0084,2.0152,2.028,2.0244,1.991,1.9893,1.9348,1.8082,0.0,0.0,0.0,0.0,0.0,0.0,0.0,0.0,0.0,0.0,0.0,0.0,0.0,0.0,0.0,0.0,0.0,0.0,0.0,0.0,0.0,0.0,0.0,0.0,0.0,0.0,0.0,0.0,0.0,0.0,0.0,0.0,0.0,0.0,0.0,0.0,0.0,0.0,0.0,0.0,0.0,0.0,0.0,0.0,0.0,0.0,0.0,0.0,0.0,0.0,0.0,0.0,0.0,0.0,0.0,0.0,0.0,0.0,0.0,0.0,0.0,0.0,0.0,0.0,0.0,0.0,0.0,0.0,0.0,0.0,0.0,0.0,0.0,0.0,0.0,0.0,0.0,0.0,0.0,0.0,0.0,0.0,0.0,0.0,0.0,0.0,0.0,0.0,0.0,0.0,0.0,0.0,0.0,0.0,0.0,0.0,0.0,0.0,0.0,0.0,0.0,0.0,1.7983,1.8667,1.9107,1.9369,1.951,1.9292,1.8555,1.8505,1.793,1.6602,0.0,0.0,0.0,0.0,0.0,0.0,0.0,0.0,0.0,0.0,0.0,0.0,0.0,0.0,0.0,0.0,0.0,0.0,0.0,0.0,0.0,0.0,0.0,0.0,0.0,0.0,0.0,0.0,0.0,0.0,0.0,0.0,0.0,0.0,0.0,0.0,0.0,0.0,0.0,0.0,0.0,0.0,0.0,0.0,0.0,0.0,0.0,0.0,0.0,0.0,0.0,0.0,0.0,0.0,0.0,0.0,0.0,0.0,0.0,0.0,-0.0503,0.0845,0.0,0.0,0.0,0.0,0.0,0.0,0.0,0.0,0.0,0.0,0.0,0.0,0.0,0.0,0.0,0.0,0.0,0.0,0.0,0.0,0.0,0.0,0.0,0.0,0.0,0.0,0.0,0.0,0.0,0.0,0.0,0.0,0.0,0.0,0.0,0.0,0.0,0.0,0.0,0.0,1.7914,1.7776,1.7748,1.8481,1.867,1.8678,1.8502,1.8545,1.7985,1.6584,1.602,0.0,0.0,0.0,0.0,0.0,0.0,0.0,0.0,0.0,0.0,0.0,0.0,0.0,0.0,0.0,0.0,0.0,0.0,0.0,0.0,0.0,0.0,0.0,0.0,0.0,0.0,0.0,0.0,0.0,0.0,0.0,0.0,0.0,0.0,0.0,0.0,0.0,0.0,0.0,0.0,0.0,0.0,0.0,0.0,0.0,0.0,0.0,0.0,0.0,0.0,0.0,0.0,0.0,0.0,0.0,0.0,0.0,0.0,0.0,-0.3063,-0.1529,0.0,0.0,0.0,0.0,0.0,0.0,0.0,0.0,0.0,0.0,0.0,0.0,0.0,0.0,0.0,0.0,0.0,0.0,0.0,0.0,0.0,0.0,0.0,0.0,0.0,0.0,0.0,0.0,0.0,0.0,0.0,0.0,0.0,0.0,0.0,0.0,0.0,0.0,0.0,0.0,1.69,1.6667,1.6566,1.7214,1.7713,1.798,1.8017,1.8409,1.8199,1.7141,1.6453,0.0,0.0,0.0,0.0,0.0,0.0,0.0,0.0,0.0,0.0,0.0,0.0,0.0,0.0,0.0,0.0,0.0,0.0,0.0,0.0,0.0,0.0,0.0,0.0,0.0,0.0,0.0,0.0,0.0,0.0,0.0,0.0,0.0,0.0,0.0,0.0,0.0,0.0,0.0,0.0,0.0,0.0,0.0,0.0,0.0,0.0,0.0,0.0,0.0,0.0,0.0,0.0,0.0,-0.7626,-0.7986,-0.8754,-0.8222,-0.8133,-0.8224,-0.562,-0.4087,-0.339,-0.3005,0.0,0.0,0.0,0.0,0.0,0.0,0.0,0.0,0.0,0.0,0.0,0.0,0.0,0.0,0.0,0.0,0.0,0.0,0.0,0.0,0.0,0.0,1.2596,1.2318,1.2673,1.2733,1.1636,0.0,0.0,0.0,0.0,0.0,0.0,0.0,0.0,0.0,0.0,0.0,1.5795,1.5611,1.5596,1.6081,1.6765,1.7259,1.7489,1.811,1.8271,1.7732,1.707,1.6417,0.0,0.0,0.0,0.0,0.0,0.0,0.0,0.0,0.0,0.0,0.0,0.0,0.0,0.0,0.0,0.0,0.0,0.0,0.0,0.0,0.0,0.0,0.0,0.0,0.0,0.0,0.0,0.0,0.0,0.0,0.0,0.0,-0.3637,-0.5306,0.0,0.0,0.0,0.0,0.0,0.0,0.0,0.0,0.0,0.0,0.0,0.0,0.0,-0.9896,-0.9448,-1.0108,-1.0311,-0.9979,-1.0233,-1.0314,-1.0187,-0.9845,-0.9598,-0.9401,-0.8943,0.0,-0.603,-0.4383,0.0,0.0,0.0,0.0,0.0,0.0,0.0,0.0,0.0,0.0,0.0,0.0,0.0,0.0,0.0,0.0,0.0,0.0,0.0,0.0,0.0,0.0,1.1247,1.1277,1.1901,1.2296,1.1486,1.1807,1.2237,1.2208,1.2235,1.2642,0.0,0.0,0.0,0.0,0.0,0.0,1.5533,1.5058,1.4979,1.585,1.6186,1.6659,1.7436,1.7648,1.7735,1.7696,1.707,1.6624,1.6471,1.5023,0.0,0.0,0.0,0.0,0.0,0.0,0.0,0.0,0.0,0.0,0.0,0.0,0.0,0.0,0.0,0.0,0.0,0.0,0.0,0.0,0.0,0.0,0.0,0.0,0.0,0.0,0.0,0.0,0.0,-0.5728,-0.7325,-0.8826,-0.9098,-0.9555,0.0,0.0,0.0,0.0,0.0,0.0,0.0,0.0,0.0,-1.2685,-1.3157,-1.2955,-1.203,-1.2589,-1.248,-1.1673,-1.1792,-1.1881,-1.2064,-1.158,-1.1349,-1.1232,-1.059,-0.9722,-0.8802,-0.7637,-0.7072,-0.6865,0.0,0.0,0.0,0.0,-0.2897,-0.2,-0.1238,-0.0144,0.0954,0.1273,0.0,0.0,0.0,0.0,0.0,0.0,0.0,1.0159,1.0467,1.1167,1.1612,1.0935,1.1704,1.2341,1.1496,1.1848,1.2341,1.2515,1.3027,1.3599,1.401,1.4169,0.0,0.0,0.0,1.4621,1.5994,1.5153,1.4671,1.5263,1.5888,1.6269,1.6324,1.7143,1.7694,1.7812,1.755,1.7367,1.7333,1.6186,1.55,0.0,0.0,0.0,0.0,0.0,0.0,0.0,0.0,0.0,0.0,0.0,0.0,0.0,0.0,0.0,0.0,0.0,0.0,0.0,0.0,0.0,0.0,0.0,0.0,0.0,0.0,0.0,0.0,-0.897,-1.0224,-1.1558,-1.1851,-1.2093,0.0,0.0,0.0,0.0,0.0,0.0,-1.5109,-1.5108,-1.5145,-1.5242,-1.5474,-1.5092,-1.4,-1.4564,-1.4426,-1.3603,-1.3589,-1.3697,-1.3945,-1.331,-1.2978,-1.2793,-1.1796,-1.1261,-1.104,-0.9987,-0.9231,-0.8686,-0.8405,-0.7768,-0.6912,-0.641,-0.5503,-0.4481,-0.3923,-0.2892,-0.1812,-0.1391,-0.0545,0.0496,0.1399,0.0,0.0,0.0,0.0,0.976,0.9802,1.0846,1.1679,1.0542,1.1414,1.2246,1.1474,1.2022,1.267,1.2735,1.3349,1.3984,1.4272,1.4424,0.0,1.5845,1.5169,1.4936,1.6025,1.5252,1.4648,1.4779,1.547,1.5773,1.54,1.6617,1.7545,1.7874,1.8089,1.8216,1.8216,1.7247,1.6378,1.5692,0.0,0.0,0.0,0.0,0.0,0.0,0.0,0.0,0.0,0.0,0.0,0.0,0.0,0.0,0.0,0.0,0.0,0.0,0.0,0.0,0.0,0.0,0.0,0.0,0.0,0.0,0.0,0.0,0.0,-1.3225,-1.4211,0.0,0.0,0.0,0.0,-1.6007,-1.6139,-1.6426,-1.6957,-1.6476,-1.6133,-1.5947,-1.5534,-1.5187,-1.4846,-1.5807,-1.6182,-1.6048,-1.6402,-1.6265,-1.5651,-1.5094,-1.4382,-1.3515,-1.3092,-1.2764,-1.2404,-1.0148,-0.9549,-0.9979,-0.9703,-0.929,-0.8786,-0.8098,-0.7345,-0.657,-0.59,-0.5132,-0.4421,-0.3806,-0.2533,-0.0893,0.0726,0.1918,0.0,0.0,0.7349,0.839,0.9075,0.9953,1.0527,0.9906,1.0756,1.1693,1.1446,1.2478,1.3332,1.2889,1.2643,1.2992,1.46,0.0,1.5068,1.5145,1.5623,1.5749,1.5065,1.5091,1.5004,1.4565,1.4727,1.4998,1.5276,1.6087,1.6938,1.7837,1.8632,1.9033,1.9033,1.8072,1.7182,1.646,1.5258,0.0,0.0,0.0,0.0,0.0,0.0,0.0,0.0,0.0,0.0,0.0,0.0,0.0,0.0,0.0,0.0,0.0,0.0,0.0,0.0,0.0,0.0,0.0,0.0,0.0,0.0,0.0,0.0,-1.6235,-1.6663,0.0,-1.7224,-1.7269,-1.7405,-1.7644,-1.7382,-1.7303,-1.7462,-1.7652,-1.7536,-1.7244,-1.7681,-1.7741,-1.73,-1.7885,-1.802,-1.7629,-1.7568,-1.7446,-1.7194,-1.636,-1.5645,-1.5015,-1.4142,-1.3562,-1.3213,-1.2262,-1.1379,-1.0673,-1.0581,-0.9951,-0.9091,-0.8776,-0.8248,-0.7576,-0.6922,-0.6455,-0.5926,-0.486,-0.358,-0.2179,-0.0707,0.0925,0.2613,0.417,0.6144,0.7729,0.7853,0.9195,1.0366,0.96,1.0356,1.1082,1.0766,1.145,1.2249,1.2603,1.3191,1.3859,1.4592,1.5081,1.5463,1.5713,1.5763,1.5895,1.6193,1.604,1.5712,1.5185,1.536,1.5227,1.4581,1.5747,1.6669,1.7095,1.7889,1.8324,1.8322,1.7254,1.6322,1.5607,1.4247,1.3239,0.0,0.0,0.0,0.0,0.0,0.0,0.0,0.0,0.0,0.0,0.0,0.0,0.0,0.0,0.0,0.0,0.0,0.0,0.0,0.0,0.0,0.0,0.0,0.0,0.0,-1.5012,-1.6122,-1.7604,-1.7928,-1.7974,-1.7956,-1.7917,-1.817,-1.8792,-1.8542,-1.8615,-1.9179,-1.9341,-1.9233,-1.8803,-1.9219,-1.9162,-1.8686,-1.9083,-1.9075,-1.8659,-1.8692,-1.8534,-1.825,-1.7604,-1.6956,-1.6313,-1.5204,-1.4567,-1.4236,-1.3607,-1.2813,-1.1972,-1.1826,-1.1075,-0.9986,-0.9655,-0.907,-0.8343,-0.7477,-0.6834,-0.6199,-0.5332,-0.4391,-0.3335,-0.1892,-0.0167,0.1612,0.3053,0.5132,0.6993,0.7063,0.8554,0.9938,0.9416,1.0163,1.0903,1.0526,1.1035,1.1735,1.2389,1.3235,1.4003,1.4443,1.5059,1.5654,1.617,1.6053,1.6247,1.7151,1.684,1.6369,1.5903,1.6055,1.5731,1.4581,1.5946,1.6707,1.6316,1.7563,1.8052,1.7524,1.7114,1.6448,1.5492,1.3983,1.3186,1.3172,0.0,0.0,0.0,0.0,0.0,0.0,0.0,0.0,0.0,0.0,0.0,0.0,0.0,0.0,0.0,0.0,0.0,0.0,0.0,0.0,0.0,0.0,0.0,-1.4771,-1.5745,-1.667,-1.7193,-1.7958,-1.7926,-1.6718,-1.746,-1.8438,-1.9458,-1.9704,-2.0419,-2.1969,-2.1555,-2.1007,-2.0506,-1.9827,-1.9301,-1.8851,-1.9239,-1.9377,-1.9242,-1.9737,-1.9598,-1.8821,-1.8809,-1.8265,-1.7301,-1.6277,-1.5771,-1.5609,-1.416,-1.3758,-1.3974,-1.3468,-1.2609,-1.155,-1.0832,-0.9923,-0.8764,-0.7557,-0.6317,-0.5332,-0.5336,-0.4897,-0.4181,-0.2676,-0.1334,0.0166,0.2439,0.4484,0.6145,0.6864,0.8143,0.9211,0.9211,1.0218,1.1118,1.0768,1.1338,1.1979,1.2255,1.2672,1.3293,1.4241,1.4966,1.5683,1.6471,1.6548,0.0,1.7654,1.7326,1.6889,1.6557,1.672,1.6419,1.5356,1.6701,1.7032,1.5655,1.7729,1.8324,1.6802,1.7808,1.7681,1.6201,1.4632,1.387,1.3915,0.0,0.0,0.0,0.0,0.0,0.0,0.0,0.0,0.0,0.0,0.0,0.0,0.0,0.0,0.0,0.0,0.0,0.0,0.0,0.0,0.0,-1.517,-1.6051,-1.6461,-1.7107,-1.7772,-1.8314,-1.8821,-1.8977,-1.8629,-1.9721,-2.0522,-2.0706,-2.1078,-2.1153,-2.0807,-2.0639,-2.0381,-1.9921,-1.9781,-1.982,-2.0026,-2.0113,-2.0115,-1.9901,-1.9965,-1.9851,-1.9521,-1.9021,-1.8623,-1.8177,-1.7272,-1.6593,-1.602,-1.5668,-1.5099,-1.4439,-1.3626,-1.2878,-1.2121,-1.1026,-0.961,-0.8103,-0.7354,-0.6864,-0.648,-0.5609,-0.4556,-0.3503,-0.2676,-0.078,0.1227,0.2171,0.421,0.619,0.6268,0.7865,0.9406,0.8988,1.016,1.1258,1.084,1.137,1.2019,1.2448,1.2754,1.3259,1.4278,1.4951,1.5536,1.608,1.6299,1.6568,1.6891,1.7106,1.7238,1.7288,1.7693,1.7673,1.699,1.7428,1.7615,1.7258,1.6769,1.6805,1.7542,1.6524,1.5801,1.5469,1.5043,1.4583,0.0,0.0,0.0,0.0,0.0,0.0,0.0,0.0,0.0,0.0,0.0,0.0,0.0,0.0,0.0,0.0,0.0,0.0,0.0,0.0,0.0,0.0,-1.6662,-1.7432,-1.7822,-1.7931,-1.8196,-1.875,-1.8849,-1.8993,-1.9219,-1.9946,-2.0576,-2.0973,-2.1318,-2.1306,-2.0913,-2.0913,-2.0702,-2.0286,-2.0292,-2.032,-2.039,-2.0367,-2.0296,-2.0131,-2.0042,-1.9926,-1.9786,-1.9332,-1.9043,-1.889,-1.8052,-1.734,-1.6678,-1.6305,-1.5622,-1.4836,0.0,0.0,0.0,0.0,-0.9153,-0.7658,-0.6949,-0.6534,-0.6154,-0.4948,-0.4061,-0.3229,-0.2287,-0.0557,0.1282,0.2282,0.4158,0.5923,0.6376,0.7818,0.9145,0.8988,1.0364,1.1533,1.1214,1.1734,1.2363,1.2628,1.2806,0.0,1.4187,1.4907,1.5551,1.6318,1.6404,1.6561,1.7007,1.7196,1.7368,1.7589,1.8044,1.8151,1.763,1.8019,0.0,0.0,0.0,1.7356,1.8159,1.6778,0.0,0.0,0.0,0.0,0.0,1.4423,0.0,0.0,1.2841,1.2954,0.0,0.0,0.0,0.0,0.0,0.0,0.0,0.0,0.0,0.0,0.0,0.0,0.0,0.0,0.0,0.0,-1.841,-1.8752,-1.8878,-1.8397,-1.8185,-1.8714,-1.852,-1.8499,-1.8989,-1.9238,-1.9752,-2.0694,-2.0905,-2.1172,-2.1588,-2.1615,0.0,0.0,0.0,-2.066,-2.0233,-2.0182,-2.008,-1.9926,-1.9926,-1.9875,-1.9759,-1.9604,-1.946,-1.9316,-1.8667,-1.7941,-1.7268,-1.6368,-1.569,-1.5177,-1.505,-1.4096,-1.2514,-1.0431,-0.8745,-0.7397,-0.6499,0.0,0.0,-0.3956,-0.3514,-0.3178,-0.1788,-0.0446,0.089,0.2607,0.4161,0.555,0.6756,0.783,0.8732,0.9099,1.0568,1.1862,1.1649,1.2242,1.2824,1.2872,1.2925,1.3254,1.4076,1.4831,1.5669,1.6743,1.6604,1.6671,1.748,1.7432,1.7425,1.7689,1.8181,0.0,1.7879,1.8503,1.8034,1.603,1.791,1.8913,1.848,1.7878,1.7517,1.7415,1.656,1.5861,1.536,1.4917,1.4054,1.2819,1.2638,1.2978,0.0,0.0,0.0,0.0,0.0,0.0,0.0,0.0,0.0,0.0,0.0,0.0,0.0,0.0,0.0,-1.9698,-1.9608,-1.9425,-1.9458,-1.8627,-1.8209,-1.8721,-1.8924,-1.9073,-1.9147,-2.0454,-2.1193,-2.0952,-2.1322,-2.1411,-2.1161,-2.1126,-2.1028,-2.0845,-2.0422,-2.0271,-2.051,-2.0105,-1.9811,-1.9668,-1.9668,0.0,-1.9473,-1.9356,-1.9186,-1.904,-1.8786,-1.8007,-1.6933,-1.6933,-1.6244,-1.5108,-1.4163,-1.3025,-1.1713,-1.0502,-0.9016,-0.7397,-0.6499,-0.5828,-0.5113,-0.3956,-0.3067,-0.2343,-0.1733,-0.0112,0.0,0.2664,0.4103,0.5555,0.6657,0.783,0.883,0.8981,1.0372,1.1594,1.1649,1.2236,1.2839,1.3217,1.336,1.3684,1.4346,1.4907,1.5507,1.6179,1.6339,1.6499,1.6786,1.7224,1.779,1.843,1.9091,1.9489,1.9465,1.9111,1.875,1.8417,1.883,1.8659,1.7666,1.8163,1.8156,1.7572,1.7116,1.6469,1.5607,1.549,1.4767,1.3513,1.3834,1.3583,0.0,0.0,0.0,0.0,0.0,0.0,0.0,0.0,0.0,0.0,0.0,-1.8545,-1.83,0.0,-2.0284,-2.0359,-2.0302,-2.0018,-1.9241,-1.8655,-1.8296,-1.8369,-1.8571,-1.8926,-1.9433,-2.0527,-2.1104,-2.0795,-2.0966,-2.0818,-2.0346,-2.0258,-2.0156,-2.0105,-1.9823,-1.9772,-2.0016,-1.9708,-1.9565,-1.9512,-1.9512,-1.9408,-1.9303,-1.9133,-1.8857,-1.8429,-1.8333,-1.749,-1.613,-1.5535,-1.4777,-1.3965,-1.2749,-1.2096,-1.1579,-0.9793,-0.8515,-0.7496,-0.6202,-0.5332,-0.4666,-0.3453,-0.2512,-0.1788,-0.1119,0.0335,0.1899,0.2777,0.4158,0.5655,0.6707,0.7931,0.8928,0.9093,1.0431,1.1657,1.1725,1.2381,1.3005,1.3403,1.3816,1.4237,1.4765,1.5446,1.5932,1.5858,1.608,1.6316,1.6436,1.7027,1.7636,1.8081,1.8698,1.9129,1.9321,1.877,1.8601,1.9069,1.8721,1.8354,1.802,1.8428,1.8313,1.7612,1.6839,1.6196,1.5694,1.5182,1.4518,1.3702,1.4019,1.3789,0.0,0.0,0.0,0.0,0.0,0.0,0.0,0.0,-1.6783,-1.7401,-1.9148,-2.036,-1.9696,-2.0956,-2.1743,-2.0784,-2.0855,-2.0485,-1.8903,-1.8508,-1.8167,-1.7709,-1.8009,-1.861,-1.9503,-2.0067,-2.0393,-2.0359,-2.0271,-2.0016,-1.9565,-1.9473,-1.9368,-1.9368,-1.9368,-1.9328,-1.9263,-1.9263,-1.9263,-1.9263,-1.9146,-1.9028,-1.891,-1.8709,-1.8255,-1.7578,-1.7313,-1.6461,-1.5187,-1.3786,-1.3078,-1.2696,-1.1454,-1.1197,-1.1312,-0.9017,-0.799,-0.748,-0.5893,-0.486,-0.4058,-0.2899,-0.2066,-0.1398,-0.0448,0.0672,0.1843,0.2888,0.4265,0.571,0.6864,0.7978,0.8876,0.9152,1.0379,1.1601,1.1751,1.2454,1.3212,1.3597,1.4127,1.4705,1.5171,1.5905,1.6318,1.5947,1.6202,1.646,1.649,1.7085,1.7509,1.7542,1.798,1.8428,1.8769,1.839,1.8415,1.9051,1.8487,1.8265,1.8586,1.8566,1.8252,1.7572,1.6491,1.5863,1.5694,1.4905,1.4214,1.3715,1.402,1.3869,-1.2332,-1.259,-1.2885,-1.4159,-1.4438,-1.4886,0.0,0.0,-1.7319,-1.8412,-1.9234,-1.9986,-2.081,-2.1556,-2.1975,-2.1816,-2.1454,-2.0578,-1.883,-1.8173,-1.7501,-1.6498,-1.77,-1.8648,-1.8894,-1.9266,-1.9508,-1.9527,-1.9525,-1.9473,-1.942,-1.942,-1.9368,-1.9223,-1.9223,-1.9117,-1.8851,-1.8851,-1.8786,-1.8667,-1.817,-1.7886,-1.7875,-1.7534,-1.7146,-1.6595,-1.5796,-1.4953,-1.4031,-1.3356,-1.2696,-1.2012,-1.1142,-1.0445,-0.9825,-0.8742,-0.7836,-0.6963,-0.5934,-0.4738,-0.3569,-0.2734,-0.1955,-0.1174,-0.0448,0.0728,0.2011,0.3159,0.4378,0.566,0.7079,0.7824,0.8396,0.9047,0.9917,1.0779,1.1601,1.2444,1.3195,1.3817,1.4344,1.4824,1.5299,1.561,1.6082,1.6819,1.7364,1.7578,1.7221,1.7829,1.8012,1.7386,1.7871,1.8368,1.8769,1.8912,1.8996,1.9087,1.9028,1.8839,1.8531,1.8454,1.8153,1.7509,1.6795,1.6177,1.5694,1.5375,1.4679,1.3728,1.4383,1.4002,-1.3304,-1.3508,-1.3506,0.0,-1.4902,-1.5154,-1.6136,-1.6822,-1.7303,-1.7589,-1.8779,-1.9739,-1.962,-2.0212,-2.0695,-2.0404,-2.0168,-1.9557,-1.8227,-1.8066,-1.7609,-1.6349,-1.6969,-1.7676,-1.8177,-1.8843,-1.9258,-1.9384,-1.9328,-1.9275,-1.9275,-1.9117,-1.9011,-1.8958,-1.8893,-1.8786,-1.8679,-1.8679,-1.8441,-1.7918,-1.7633,-1.7246,-1.6743,-1.6631,-1.5985,-1.4925,-1.4255,-1.3468,-1.2602,-1.2004,-1.1454,-1.0961,-1.0281,-0.9512,-0.8628,-0.7965,-0.7207,-0.6432,-0.5532,-0.424,-0.3014,-0.26,-0.1656,-0.0533,0.0296,0.1168,0.2182,0.3315,0.4615,0.5928,0.675,0.7664,0.856,0.9249,0.9969,1.072,1.156,1.2491,1.329,1.3885,1.4663,1.5392,1.5831,1.6347,1.6901,1.7525,1.7516,1.7483,1.7685,1.8253,1.8741,1.8975,1.9418,1.9826,2.0125,1.9939,1.9793,1.9793,1.9254,1.8789,1.8512,1.8296,1.7941,1.7455,1.6825,1.6297,1.5909,1.5845,1.5378,1.4546,1.507,1.4436,-1.3701,0.0,0.0,-1.4726,-1.5119,-1.5385,-1.5765,-1.6443,-1.6986,-1.687,-1.8149,-1.9121,-1.8534,-1.9162,-1.9581,-1.9083,-1.9144,-1.8826,-1.7523,-1.7797,-1.7664,-1.6382,-1.656,-1.6978,-1.752,-1.8104,-1.8586,-1.8995,-1.8899,-1.8919,-1.9052,-1.8851,-1.8744,-1.8744,-1.8441,-1.8267,-1.8213,-1.7995,-1.7589,-1.6946,-1.6778,-1.6384,-1.5776,-1.5613,-1.4885,-1.3742,-1.3174,-1.2389,-1.1399,-1.0899,-1.0268,-0.9703,-0.9274,-0.8425,-0.7353,-0.6953,-0.6493,-0.5876,-0.4885,-0.365,-0.2521,-0.1965,-0.0923,0.0308,0.117,0.1936,0.2669,0.3669,0.4958,0.6174,0.6673,0.7609,0.8626,0.9406,1.0012,1.0677,1.1519,1.2452,1.3218,1.3695,1.4617,1.5522,1.5996,1.6752,1.7434,1.7908,1.7702,1.7621,1.8097,1.8516,1.9127,2.0035,2.0454,2.0771,2.0986,2.0764,2.059,2.0626,1.9864,1.9335,1.9145,1.8711,1.8323,1.7996,1.7268,1.6859,1.6761,1.6541,1.6127,1.5496,1.5778,1.5145,0.0,0.0,-1.3802,-1.4624,-1.5172,-1.5624,-1.6096,-1.6231,-1.6392,-1.6876,-1.7473,-1.8028,-1.8513,-1.9041,-1.9195,-1.8535,-1.8963,-1.8793,-1.6964,-1.7223,-1.7315,-1.6502,-1.6708,-1.6927,-1.7022,-1.6824,-1.7063,-1.7966,-1.8049,-1.8211,-1.859,-1.8614,-1.8614,-1.8614,-1.7852,-1.7346,-1.7257,-1.6518,-1.6073,-1.5843,-1.5264,-1.4963,-1.4904,-1.435,-1.3863,-1.3468,-1.3,-1.1965,-1.0548,-1.0408,-0.9506,-0.8231,-0.8096,-0.7177,-0.5935,-0.5932,-0.583,-0.5445,-0.4038,-0.3022,-0.215,-0.0613,0.043,0.1231,0.209,0.2946,0.3737,0.4454,0.542,0.6331,0.7069,0.7582,0.8215,0.9354,0.9814,1.032,1.1469,1.2264,1.29,1.317,1.405,1.4926,1.5499,1.6324,1.7157,1.7868,1.8266,1.8451,1.847,1.8686,1.9086,1.9822,2.0201,2.0518,2.0793,2.1087,2.1344,2.1458,2.1191,2.093,2.0736,2.0033,1.9591,1.9448,1.8389,1.8053,1.8422,1.7519,1.6864,1.6473,1.6405,1.6125,-1.2477,0.0,-1.285,-1.4737,-1.5054,-1.5109,-1.5879,-1.6044,-1.5996,-1.575,-1.6275,-1.6666,-1.6287,-1.6841,-1.7264,-1.7082,-1.7245,-1.7178,-1.6529,-1.6632,-1.6598,-1.6303,-1.6065,-1.6111,-1.6456,-1.6896,-1.7387,-1.7851,-1.7847,-1.7967,-1.8232,-1.817,-1.8061,-1.7854,-1.7157,-1.6754,-1.6765,-1.6187,-1.5613,-1.508,-1.4323,-1.3666,-1.3174,-1.294,-1.2258,-1.119,-1.101,-1.0129,-0.8865,-0.8796,-0.8151,-0.7181,-0.7246,-0.6527,-0.5474,-0.5134,-0.4578,-0.3959,-0.3767,-0.3154,-0.2151,-0.0651,0.0456,0.1499,0.2736,0.3405,0.3916,0.4612,0.567,0.6665,0.6895,0.7659,0.8648,0.9868,1.012,1.0474,1.1719,1.2421,1.29,1.317,1.4003,1.4846,1.522,1.6032,1.6989,1.7975,1.8707,1.9222,1.9401,1.9869,2.0411,2.0961,2.1528,2.1935,2.2118,2.2105,2.2072,2.2031,2.1324,2.0872,2.0807,1.9951,1.9487,1.9422,1.8649,1.8269,1.8377,1.8082,1.7704,1.7166,1.7061,1.66,-1.1709,-1.2128,-1.2711,-1.4589,-1.4914,-1.4943,-1.55,-1.5622,-1.5477,-1.4874,-1.5186,-1.5452,-1.5037,-1.5435,-1.5879,-1.6051,-1.6362,-1.6551,-1.6291,-1.6432,-1.6442,-1.6166,-1.5772,-1.5609,-1.5646,-1.6255,-1.6809,-1.7122,-1.6983,-1.7075,-1.739,-1.7268,-1.7045,-1.6888,-1.6197,-1.5853,-1.5853,-1.5148,-1.4433,-1.364,-1.3312,-1.2704,-1.1826,-1.2012,-1.1329,-1.0015,-1.0015,-0.9244,-0.8027,-0.7897,-0.7265,-0.6234,-0.6306,-0.5553,-0.4411,-0.4081,-0.3503,-0.2805,-0.2799,-0.228,-0.1273,0.0201,0.1339,0.2407,0.3643,0.4102,0.4411,0.5064,0.5917,0.6719,0.6949,0.7711,0.8745,0.996,1.0217,1.0608,1.1989,1.2516,1.2803,1.3086,1.3799,1.4351,1.4547,1.5567,1.6795,1.8029,1.8745,1.9317,1.9793,2.0261,2.0764,2.1368,2.1903,2.2341,2.2581,2.27,2.2669,2.2516,2.1942,2.1587,2.147,2.0699,2.0278,2.0306,1.9527,1.917,1.9264,1.8959,1.852,1.8044,1.7848,1.7286,-1.087,-1.1976,-1.3197,-1.4111,-1.4673,-1.497,-1.4908,-1.4916,-1.4803,-1.4321,-1.4249,-1.443,0.0,0.0,-1.499,-1.5351,-1.6232,-1.6676,-1.6173,-1.6522,-1.6627,0.0,0.0,0.0,0.0,-1.4938,-1.527,-1.5734,-1.5487,-1.5538,-1.6042,-1.5843,-1.5728,-1.5728,-1.4991,-1.4638,-1.4619,-1.3468,-1.248,-1.172,-1.2174,-1.1858,-1.0906,-1.1403,-1.1037,-0.9914,-0.985,-0.9076,-0.7862,-0.7673,-0.6655,-0.5301,-0.5191,-0.4293,-0.296,-0.2966,-0.2533,-0.1928,-0.1185,-0.0535,0.0267,0.1936,0.3072,0.3921,0.4656,0.4998,0.5213,0.567,0.6099,0.6539,0.7151,0.7825,0.8553,0.9732,1.0131,1.0716,1.2337,1.2594,1.2594,1.2982,1.3372,1.3668,1.3736,1.5062,1.66,1.7976,1.8347,1.8793,1.9645,1.9844,2.0196,2.1007,2.1399,2.179,2.2248,2.2849,2.3098,2.2898,2.3,2.296,2.2712,2.2101,2.184,2.1899,2.0991,2.0698,2.0991,2.0019,1.9376,1.9037,1.875,1.8212,-1.0495,-1.1214,-1.1865,-1.317,-1.359,-1.371,-1.3795,-1.3948,-1.3916,-1.3202,-1.3842,-1.4358,0.0,0.0,0.0,-1.4305,-1.4354,0.0,-1.5039,-1.4814,0.0,-1.5744,0.0,-1.4753,-1.4978,-1.4501,-1.4241,-1.4239,-1.4834,-1.5269,-1.5555,-1.5264,-1.5031,-1.4815,-1.4043,-1.3553,-1.3258,-1.2043,-1.1156,-1.0675,-1.0799,-1.039,-0.957,-0.9748,-0.9279,-0.8336,-0.7902,-0.7228,-0.6371,-0.5879,-0.5116,-0.4297,-0.4333,-0.3776,-0.2806,-0.2345,-0.1642,-0.0722,0.0391,0.0448,0.0314,0.2386,0.333,0.3768,0.4485,0.4787,0.5085,0.5638,0.6254,0.687,0.7571,0.8482,0.9439,1.0272,1.0725,1.1234,1.2045,1.2398,1.2508,1.2613,1.3443,1.4414,1.5449,1.6175,1.6935,1.7903,1.8003,1.8344,1.931,1.9702,2.0108,2.0681,2.1244,2.1718,2.1998,2.2449,2.273,2.2669,2.2712,2.2703,2.2712,2.2101,2.184,2.1899,2.1432,2.1087,2.0926,2.0481,2.0,1.9515,1.893,1.8588,-0.9723,-1.0578,-1.1438,-1.2493,-1.2704,-1.2739,-1.2985,-1.2989,-1.2797,-1.2107,-1.2851,0.0,-1.2726,-1.3268,-1.3744,0.0,0.0,0.0,-1.4511,-1.4307,-1.4353,0.0,-1.4521,0.0,-1.4044,-1.3722,-1.3421,-1.3177,-1.3812,-1.4212,-1.4273,-1.3777,-1.3468,-1.3304,-1.2634,-1.2112,-1.179,-1.099,-1.031,-0.9663,-0.9951,-0.9355,-0.8134,-0.842,-0.799,-0.7021,-0.6745,-0.6185,-0.5514,-0.5221,-0.4599,-0.3766,-0.3624,-0.2999,-0.2086,-0.1477,-0.0517,0.0581,0.1588,0.1807,0.1838,0.3068,0.3781,0.4241,0.4553,0.4743,0.5069,0.5798,0.6267,0.684,0.7813,0.8601,0.9402,1.0234,1.0669,1.1192,1.2135,1.2454,1.2627,1.29,1.3695,1.4614,1.5695,1.6037,1.6498,1.7433,1.7563,1.7868,1.8822,1.9169,1.9507,1.9969,2.0583,2.1055,2.1401,2.1948,2.2203,2.2068,2.2347,2.25,2.2487,2.2163,2.202,2.2061,2.1768,2.1479,2.1276,2.0861,2.0395,1.9929,1.95,1.9132,-0.8726,-0.9919,-1.1258,-1.1778,-1.1777,-1.1748,-1.2037,-1.1822,-1.1414,-1.0946,0.0,-1.1996,-1.16,-1.2097,-1.2579,-1.2579,0.0,-1.3771,-1.4218,-1.4178,-1.416,-1.4138,-1.3892,-1.3411,-1.2739,-1.2792,-1.2728,-1.2359,-1.2504,-1.2618,-1.2674,-1.1989,-1.1596,-1.1578,-1.1107,-1.0649,-1.0273,-1.0058,-0.9478,-0.8604,-0.9078,-0.8394,-0.6698,-0.729,-0.6922,-0.5843,-0.5928,-0.5551,-0.4914,-0.4859,-0.4278,-0.3461,-0.2862,-0.2026,-0.1178,-0.0622,0.0498,0.1744,0.2478,0.3215,0.383,0.3814,0.4255,0.4876,0.474,0.4872,0.522,0.6057,0.6449,0.6882,0.8051,0.859,0.9104,1.015,1.0474,1.0986,1.2425,1.2664,1.2813,1.3478,1.4025,1.4605,1.5302,1.5435,1.5856,1.6884,1.7154,1.7475,1.8226,1.85,1.8793,1.931,1.9823,2.0273,2.0761,2.1368,2.1642,2.1417,2.1994,2.2281,2.2168,2.2197,2.2242,2.2282,2.202,2.1857,2.1797,2.1198,2.0777,2.0556,2.0362,1.9948,-0.8203,-0.8985,-0.971,-1.0261,-1.0202,-0.9947,-0.966,-0.96,0.0,0.0,-0.9917,-1.0584,-1.0273,-1.0868,-1.1366,-1.1366,-1.1435,-1.1791,-1.287,-1.2627,-1.2582,0.0,-1.2983,-1.2692,-1.2578,-1.2251,-1.1841,-1.1553,-1.0991,-1.107,-1.195,-1.1031,-1.0397,-1.0325,-0.9998,-0.9636,-0.9198,-0.8873,-0.8159,-0.7024,-0.7082,-0.6506,-0.5421,-0.5505,-0.5409,-0.5173,-0.4676,-0.4449,-0.4357,-0.3272,-0.2714,-0.2467,-0.1905,-0.1089,-0.032,-0.0328,0.0661,0.2109,0.2704,0.3443,0.4121,0.4522,0.4751,0.4887,0.4897,0.5314,0.598,0.6738,0.7359,0.8057,0.901,0.9633,1.0243,1.1082,1.1353,1.1738,1.2645,1.3045,1.3324,1.3573,1.4362,1.5177,1.587,1.6011,1.6291,1.7035,1.72,1.724,1.7393,1.8108,1.8907,1.9722,1.9965,2.0273,2.0761,2.1166,2.1386,2.1386,2.1764,2.1998,2.2027,2.2152,2.2214,2.2214,2.2225,2.2077,2.1797,2.1617,2.1647,2.1888,2.177,2.1761,-0.7191,-0.8125,-0.8922,-0.9287,-0.9191,-0.8974,-0.8989,0.0,0.0,0.0,-0.9071,-0.9546,-0.9018,-0.9778,0.0,-0.9984,-1.0258,-1.0721,-1.13,-1.1194,-1.1321,-1.1948,-1.2064,-1.1965,-1.1531,-1.1538,-1.1224,-1.0513,-0.9875,-0.992,-1.0815,-1.0145,-0.958,-0.9198,-0.8777,-0.8392,-0.7995,-0.7526,-0.6871,-0.6044,-0.6044,-0.5537,-0.4684,-0.4765,-0.4561,-0.4142,-0.3539,-0.3256,-0.3195,-0.2248,-0.1761,-0.1642,-0.104,-0.0263,0.0527,0.0868,0.1944,0.3278,0.3565,0.4137,0.4847,0.5108,0.5094,0.5078,0.5362,0.5758,0.6301,0.733,0.7892,0.8428,0.9279,0.9737,1.0243,1.1262,1.2079,1.2769,1.3269,1.3983,1.4577,1.4777,1.561,1.6445,1.6824,1.7217,1.7586,1.7956,1.8039,1.8095,1.833,1.846,1.8769,1.9266,1.9551,1.9869,2.0204,2.0712,2.1055,2.1071,2.157,2.1899,2.194,2.2147,2.2377,2.2677,2.284,2.2967,2.3048,2.3,2.3025,2.3178,2.293,2.2887,-0.61,-0.7052,-0.7941,-0.8109,-0.7978,-0.793,-0.8292,-0.7875,0.0,0.0,-0.8077,-0.8372,-0.7908,0.0,-0.9314,0.0,-0.9354,-0.9834,-0.9975,-1.0029,-1.0229,0.0,-1.1041,0.0,-1.0451,-1.0591,-1.0378,-0.9531,-0.8962,-0.8839,-0.9485,-0.9105,-0.8694,-0.8122,-0.7629,-0.7227,-0.6915,-0.645,-0.5911,-0.5297,-0.5297,-0.4849,-0.4055,-0.4026,-0.3658,-0.3053,-0.242,-0.2102,-0.201,-0.1349,-0.0973,-0.0651,0.0,0.0738,0.1608,0.2146,0.3149,0.4287,0.4287,0.4758,0.5428,0.5557,0.5408,0.5283,0.5906,0.627,0.6737,0.7973,0.8471,0.8843,0.9577,0.9932,1.0369,1.1557,1.289,1.3892,1.4001,1.4993,1.5875,1.6047,1.6786,1.7412,1.7545,1.8047,1.8516,1.8714,1.8906,1.9126,1.9544,1.9284,1.9105,1.9276,1.9467,1.9634,1.9762,2.064,2.1207,2.1148,2.1854,2.2292,2.2352,2.2618,2.2975,2.3399,2.3625,2.393,2.4288,2.416,2.4195,2.4313,2.4,2.3912,-0.5062,-0.555,-0.6049,-0.5911,-0.5901,-0.6029,-0.632,0.0,0.0,-0.6225,-0.6334,-0.6464,-0.7065,0.0,0.0,0.0,0.0,-0.8747,-0.9238,-0.9336,-0.9471,-0.9704,0.0,0.0,-1.0059,-0.9378,-0.8918,-0.8768,-0.8071,-0.7678,-0.7819,-0.7742,-0.7391,-0.6872,-0.6789,-0.6523,-0.6001,-0.599,-0.5513,-0.4671,-0.4671,-0.423,-0.3261,-0.2649,-0.2253,-0.2119,-0.1351,-0.1109,-0.1134,-0.0401,0.0267,0.0935,0.1608,0.2347,0.3015,0.3082,0.3618,0.4287,0.4287,0.4758,0.5491,0.6141,0.587,0.5467,0.6163,0.682,0.7548,0.8612,0.9382,0.9971,1.0349,1.0906,1.1622,1.2664,1.4007,1.4964,1.4767,1.5687,1.6589,1.6604,1.7034,1.7412,1.7412,1.7654,1.8024,1.8562,1.915,1.9713,2.0259,2.0582,2.0828,2.0954,2.0454,2.0108,2.0056,2.1579,2.2461,2.2264,2.3211,2.3802,2.3802,2.4118,2.4306,2.4374,2.4465,2.453,2.4567,2.4257,2.4447,2.5079,2.4994,2.5188,-0.4542,-0.5062,-0.5508,-0.5479,-0.5524,-0.5535,-0.5569,0.0,-0.4988,-0.53,-0.542,-0.5555,-0.5947,-0.6624,0.0,0.0,0.0,0.0,-0.7858,-0.7835,-0.7909,-0.8297,-0.8866,-0.911,-0.8854,-0.8742,-0.835,-0.7577,-0.6519,-0.6014,-0.6222,-0.6694,-0.6802,-0.6207,-0.6005,-0.5606,-0.5074,-0.4408,-0.3789,-0.3158,-0.2699,-0.2293,-0.1948,-0.1623,-0.1503,-0.1388,-0.0661,-0.0399,-0.0336,0.0805,0.1409,0.1743,0.248,0.3215,0.3885,0.3885,0.4353,0.4957,0.4957,0.5418,0.6075,0.6334,0.6597,0.6924,0.7567,0.7957,0.8415,0.9454,0.9977,1.0301,1.0989,1.1911,1.2793,1.3246,1.4222,1.5153,1.5463,1.6331,1.7142,1.7525,1.7993,1.8362,1.8476,1.9158,1.982,2.0096,2.0685,2.1111,2.1341,2.1166,2.1003,2.1058,2.0921,2.0912,2.1114,2.2096,2.2774,2.2854,2.3605,2.4066,2.4242,2.4475,2.4849,2.534,2.5493,2.5716,2.6036,2.5909,2.6013,2.6268,2.6084,2.6133,-0.3713,-0.4175,-0.4502,-0.4668,-0.4798,-0.4883,0.0,-0.4617,-0.4477,-0.4663,-0.4705,-0.4767,-0.5086,-0.5747,-0.6259,0.0,0.0,-0.6323,-0.6483,-0.6357,-0.6384,-0.6847,-0.7607,-0.7876,-0.7338,-0.7534,-0.7237,-0.6207,-0.5343,-0.4804,-0.4599,-0.5206,-0.5474,-0.5345,-0.4875,-0.4342,-0.3811,-0.288,-0.2213,-0.1879,-0.1344,-0.1076,-0.1076,-0.0874,-0.0806,-0.0739,0.0201,0.0604,0.0739,0.1945,0.2547,0.2815,0.3349,0.3951,0.4622,0.4622,0.5087,0.5686,0.5686,0.6141,0.6728,0.692,0.7442,0.8156,0.8871,0.893,0.8994,1.004,1.0491,1.0863,1.1849,1.2773,1.3571,1.3872,1.4597,1.5458,1.6185,1.6961,1.7652,1.8287,1.8734,1.9052,1.9275,2.0105,2.0832,2.1237,2.1699,2.2045,2.2221,2.1859,2.1611,2.1723,2.1779,2.188,2.1916,2.2838,2.3533,2.377,2.4413,2.4911,2.5152,2.5384,2.5764,2.6313,2.6467,2.6695,2.7006,2.7006,2.6973,2.6892,2.6759,2.6623,-0.2342,-0.2501,-0.2615,-0.2919,-0.3429,-0.3831,-0.3876,-0.3741,-0.3741,-0.4307,-0.4036,-0.3924,-0.4592,-0.4655,-0.4811,0.0,0.0,0.0,-0.5259,-0.5079,-0.5049,-0.5449,-0.5935,-0.6115,-0.5735,-0.5513,-0.5209,-0.4815,-0.4812,-0.4278,-0.3013,-0.2947,-0.3284,-0.4028,-0.3284,-0.2679,-0.2214,-0.1478,-0.1143,-0.1143,-0.1076,-0.1076,-0.1076,-0.0336,0.0,0.0067,0.1476,0.2079,0.2147,0.2882,0.3618,0.4287,0.4287,0.4755,0.5362,0.5362,0.5815,0.6396,0.6396,0.6859,0.7517,0.8231,0.8549,0.8865,0.9722,0.9518,0.9186,1.004,1.0863,1.1794,1.3139,1.3502,1.3752,1.4734,1.542,1.6151,1.7024,1.7644,1.8255,1.8869,1.8987,1.9146,1.9512,1.985,2.0396,2.1458,2.1841,2.2217,2.2783,2.2873,2.2994,2.3348,2.3391,2.3068,2.2256,2.3959,2.5099,2.5179,2.6067,2.6674,2.6956,2.7244,2.7386,2.7386,2.7404,2.7261,2.7006,2.7006,2.6842,2.6606,2.6875,2.6742,-0.1476,-0.1707,-0.1741,-0.187,-0.2109,-0.2289,-0.2301,-0.2268,-0.235,-0.286,-0.2981,-0.322,-0.3846,-0.4035,-0.4262,-0.4767,0.0,0.0,0.0,0.0,-0.4515,-0.5016,-0.5355,-0.5539,-0.5459,-0.4386,-0.3611,-0.348,-0.2632,-0.197,-0.1676,-0.1581,-0.1711,-0.2013,-0.1813,-0.1612,-0.1478,-0.0739,-0.0336,-0.0336,0.0134,0.0403,0.0403,0.1141,0.1409,0.1476,0.2414,0.2882,0.2882,0.3618,0.4087,0.4353,0.4824,0.5226,0.5425,0.5881,0.6203,0.6465,0.6924,0.7577,0.8231,0.8549,0.9064,0.9779,1.0611,1.073,1.0717,1.1586,1.2336,1.2956,1.339,1.3821,1.4309,1.501,1.5526,1.6151,1.7157,1.7765,1.8267,1.8881,1.9198,1.9448,1.9565,2.0295,2.0993,2.1506,2.2044,2.2509,2.2843,2.2888,2.3008,2.3363,2.3653,2.38,2.3782,2.4508,2.5096,2.5448,2.6092,2.664,2.6973,2.7279,2.7448,2.7582,2.763,2.7552,2.7491,2.7355,2.7103,2.6742,2.6825,2.6758,0.0,-0.0603,-0.0706,-0.1154,-0.1375,-0.143,-0.1399,-0.1428,-0.1606,-0.1874,-0.2092,-0.2319,-0.2674,-0.2849,-0.3002,-0.3294,-0.3053,0.0,0.0,-0.3187,-0.3275,-0.3675,-0.3692,-0.3762,-0.4,-0.2943,-0.2213,-0.2213,-0.1453,-0.0857,-0.0671,-0.0595,-0.0462,-0.0269,-0.0538,-0.0672,-0.0672,0.0067,0.0538,0.0805,0.1276,0.1612,0.1879,0.2347,0.2547,0.2547,0.3282,0.3618,0.0,0.442,0.4688,0.4755,0.5484,0.5752,0.5885,0.6531,0.6924,0.7246,0.7642,0.8361,0.9011,0.9075,0.9716,1.0674,1.1787,1.1973,1.1911,1.2642,1.3199,1.3571,1.3821,1.4359,1.501,1.541,1.5921,1.6549,1.749,1.7875,1.8267,1.8881,1.9303,1.9656,1.9862,2.0597,2.1286,2.1841,2.2278,2.2646,2.3053,2.3098,2.326,2.3767,2.4051,2.4317,2.4661,2.491,2.5246,2.5663,2.6156,2.6641,2.707,2.731,2.7509,2.7701,2.7672,2.7659,2.76,2.7465,2.7324,2.7132,2.6906,2.6741,0.0,0.0741,0.0473,-0.0507,-0.0903,-0.0945,-0.0863,-0.1045,0.0,-0.1219,-0.1299,-0.13,-0.1304,-0.1259,-0.1277,-0.1282,-0.144,-0.1514,-0.1371,-0.1396,-0.1526,-0.1653,-0.1225,-0.1173,-0.1802,-0.1342,-0.1008,-0.1008,-0.0941,-0.0672,0.0067,0.0134,0.047,0.1143,0.0605,0.0201,0.0134,0.0873,0.1544,0.2146,0.2146,0.2547,0.3215,0.3284,0.3282,0.3349,0.4084,0.4353,0.4422,0.5156,0.5491,0.5557,0.6207,0.6465,0.6531,0.7251,0.7907,0.8554,0.8554,0.9145,0.9804,0.9868,1.0555,1.167,1.3078,1.307,1.2696,1.3381,1.3571,1.37,1.4387,1.5059,1.5671,1.5931,1.6549,1.7224,1.7984,1.8147,1.8321,1.8881,1.9356,1.9811,2.0321,2.0759,2.1334,2.2263,2.2417,2.2632,2.3275,2.3406,2.3681,2.4374,2.4498,2.462,2.4966,2.5178,2.5416,2.5795,2.6229,2.6707,2.7181,2.7386,2.7569,2.7672,2.763,2.7526,2.7404,2.7404,2.7509,2.7672,2.71,2.6808,0.2775,0.0,0.1948,0.142,0.1255,0.1144,0.0,0.0571,0.0282,0.0,0.0,0.0,-0.1026,-0.0985,-0.0911,-0.0973,-0.0978,-0.1001,-0.1022,-0.1018,-0.107,-0.1257,-0.1131,-0.1134,-0.1275,-0.0671,-0.0269,-0.0269,0.0269,0.0672,0.0807,0.1477,0.1812,0.1879,0.2414,0.2347,0.161,0.2347,0.2815,0.2948,0.2948,0.3015,0.3215,0.3751,0.4018,0.4087,0.4821,0.516,0.5226,0.5877,0.6141,0.6207,0.6929,0.719,0.7251,0.7967,0.842,0.8742,0.9274,0.967,1.0047,1.0737,1.1538,1.2389,1.326,1.3381,1.3381,1.407,1.4258,1.4378,1.4893,1.5235,1.569,1.6549,1.7168,1.7722,1.8333,1.8655,1.8815,1.8987,1.9552,2.0118,2.0372,2.1006,2.165,2.2324,2.2417,2.2555,2.2963,2.3246,2.3595,2.4067,2.4374,2.462,2.4966,2.5084,2.5323,2.5779,2.6175,2.6641,2.7085,2.7355,2.7509,2.7539,2.7526,2.7496,2.7465,2.7465,2.7465,2.7452,2.7327,2.7543,0.3578,0.3161,0.2805,0.2336,0.2192,0.2103,0.1767,0.0,0.0,0.0,0.0,0.0,0.0,0.0,0.0633,0.0785,0.0689,0.0547,0.0237,0.0063,0.0065,0.0334,0.0336,0.0469,0.0871,0.1207,0.1475,0.1609,0.1946,0.2213,0.2278,0.2748,0.2947,0.2813,0.3682,0.3618,0.2614,0.3015,0.3349,0.3685,0.3685,0.3885,0.422,0.4948,0.5279,0.5276,0.6009,0.6342,0.6342,0.6728,0.6859,0.6924,0.7642,0.7907,0.7972,0.8818,0.9139,0.9268,0.9728,1.0174,1.08,1.1911,1.2581,1.307,1.3761,1.395,1.401,1.4387,1.4515,1.4625,1.5059,1.5517,1.6036,1.6877,1.7611,1.8224,1.8625,1.8827,1.904,1.9251,1.9772,2.0334,2.0673,2.1215,2.1793,2.2417,2.2417,2.2646,2.3334,2.3566,2.3973,2.4817,2.4792,2.5073,2.5882,2.5895,2.596,2.6232,2.6762,2.7351,2.8048,2.8297,2.8444,2.8476,2.8508,2.8366,2.8001,2.8001,2.7813,2.7469,2.7641,2.7808,0.389,0.3683,0.3392,0.2831,0.2669,0.2618,0.2568,0.0,0.0,0.0,0.0,0.0,0.0,0.2293,0.0,0.2795,0.2617,0.2255,0.1838,0.1529,0.1571,0.2207,0.228,0.248,0.3149,0.3215,0.3284,0.3487,0.3487,0.3551,0.3678,0.3811,0.3877,0.3877,0.4613,0.4613,0.3747,0.3616,0.3885,0.4486,0.4553,0.4951,0.5557,0.6272,0.6531,0.6597,0.7125,0.7386,0.7451,0.7517,0.7582,0.7642,0.8361,0.8683,0.8818,0.9664,0.9989,1.0053,1.0295,1.0891,1.1807,1.3161,1.3631,1.3804,1.4499,1.475,1.481,1.481,1.4763,1.4827,1.5273,1.6062,1.6795,1.742,1.8224,1.8915,1.9036,1.9126,1.932,1.9636,2.0028,2.0549,2.1202,2.1477,2.191,2.2686,2.2676,2.2956,2.3953,2.42,2.4756,2.5879,2.5589,2.5787,2.7004,2.6953,2.6955,2.7169,2.7671,2.8353,2.9212,2.9403,2.954,2.9574,2.9693,2.9429,2.8719,2.8719,2.8439,2.783,2.8147,2.8237,0.3961,0.4012,0.3978,0.3681,0.3694,0.367,0.3268,0.0,0.0,0.0,0.0,0.0,0.0,0.2785,0.2847,0.304,0.3075,0.3013,0.2927,0.2879,0.2935,0.3013,0.3015,0.3082,0.3215,0.3215,0.3284,0.3487,0.3487,0.3551,0.3678,0.4483,0.4818,0.4613,0.5481,0.6075,0.6326,0.5609,0.5282,0.5415,0.5873,0.6137,0.6268,0.6929,0.7256,0.7256,0.7386,0.7517,0.7707,0.8161,0.842,0.8544,0.9145,0.9478,0.9664,1.0408,1.085,1.1178,1.1903,1.2398,1.2973,1.3723,1.4259,1.4663,1.5314,1.5813,1.6181,1.6181,1.5932,1.5776,1.6258,1.7361,1.8484,1.9086,1.9692,2.0175,2.0301,2.0263,2.0192,2.0246,2.0579,2.1053,2.1685,2.1896,2.2345,2.3617,2.3504,2.3636,2.4409,2.5193,2.5743,2.5985,2.647,2.6862,2.7083,2.7419,2.8012,2.8946,2.8891,2.8985,2.9438,2.9472,2.9506,2.9506,2.954,2.9489,2.9368,2.9368,2.9299,2.9195,2.9248,2.961,0.39,0.4009,0.406,0.4053,0.4212,0.4308,0.4012,0.0,0.0,0.0,0.0,0.0,0.0,0.3897,0.3923,0.4173,0.3934,0.3811,0.3811,0.3454,0.3351,0.3751,0.3887,0.4087,0.448,0.4616,0.4749,0.4948,0.4948,0.5014,0.5147,0.5939,0.6338,0.6268,0.7055,0.7512,0.7772,0.7251,0.699,0.692,0.7181,0.7242,0.7312,0.7962,0.8285,0.8285,0.8554,0.8753,0.8882,0.9081,0.921,0.9338,0.9664,1.004,1.0534,1.1337,1.1892,1.2373,1.3111,1.3609,1.4053,1.476,1.5076,1.5301,1.5624,1.5872,1.6119,1.6437,1.6553,1.6777,1.7256,1.7959,1.8726,1.9324,1.9878,2.0425,2.0758,2.089,2.1024,2.1514,2.1734,2.2045,2.2726,2.2853,2.3167,2.3991,2.4049,2.4307,2.5085,2.5663,2.6291,2.7069,2.713,2.7399,2.8142,2.8287,2.8755,2.9777,3.0241,3.0587,3.0748,3.0748,3.0748,3.0748,3.0748,3.0541,3.0144,2.9951,2.9728,2.9506,2.9549,2.983,0.391,0.3985,0.406,0.4207,0.0,0.4673,0.4755,0.0,0.0,0.0,0.0,0.0,0.0,0.5058,0.5222,0.5586,0.527,0.5014,0.5014,0.461,0.4475,0.5011,0.5279,0.5609,0.6137,0.6276,0.6474,0.6671,0.6666,0.6736,0.6872,0.7456,0.7717,0.7717,0.8231,0.8554,0.8748,0.8554,0.8355,0.8021,0.8151,0.8221,0.828,0.893,0.925,0.9256,0.9664,0.9868,0.9926,1.0047,1.011,1.018,1.0421,1.0905,1.1648,1.2414,1.3064,1.3642,1.4288,1.4711,1.5173,1.5705,1.59,1.5973,1.6104,1.6225,1.6476,1.6982,1.7567,1.7999,1.8123,1.8671,1.926,1.9686,2.0369,2.0971,2.1412,2.1688,2.2035,2.2707,2.2871,2.3083,2.3744,2.3751,2.3919,2.4455,2.4617,2.4918,2.5637,2.5982,2.6627,2.7837,2.745,2.7525,2.8553,2.8753,2.9157,2.9871,3.1056,3.1709,3.18,3.18,3.18,3.18,3.18,3.1524,3.0955,3.0702,3.0394,3.0058,3.0061,3.0062,0.409,0.417,0.4214,0.4409,0.4519,0.0,0.5429,0.5633,0.0,0.6674,0.0,0.0,0.0,0.6169,0.6481,0.7163,0.7181,0.7186,0.7186,0.7312,0.7377,0.7442,0.7637,0.7762,0.7827,0.7832,0.7902,0.8037,0.8042,0.8166,0.8361,0.8425,0.8425,0.8425,0.849,0.8812,0.9454,0.939,0.8994,0.821,0.8667,0.8924,0.8924,0.9652,0.9919,0.9919,0.9983,1.011,1.0301,1.0717,1.1031,1.124,1.171,1.2389,1.318,1.3763,1.4363,1.5023,1.5451,1.5853,1.6209,1.6276,1.6523,1.6886,1.7415,1.7881,1.8409,1.894,1.9488,1.9738,1.8892,1.9797,2.0991,2.1055,2.193,2.2737,2.2784,2.3122,2.3466,2.3535,2.37,2.3979,2.4443,2.4277,2.4395,2.5422,2.5328,2.5326,2.5821,2.6336,2.6881,2.7504,2.7259,2.7158,2.7307,2.8233,2.8909,2.9181,3.0561,3.1466,3.18,3.18,3.18,3.18,3.18,3.1765,3.1714,3.1677,3.1679,3.1627,3.1325,3.1133,0.4023,0.4481,0.4906,0.5078,0.0,0.0,0.0,0.6454,0.7118,0.745,0.7635,0.0,0.0,0.7091,0.712,0.7386,0.7386,0.7386,0.7386,0.7577,0.7707,0.7707,0.7957,0.8151,0.8102,0.8226,0.8355,0.8361,0.8361,0.8425,0.849,0.8877,0.9134,0.9134,0.9588,0.9913,1.0168,1.0168,1.0034,0.9709,0.9907,0.997,0.997,1.0238,1.0555,1.0926,1.0863,1.1108,1.1531,1.1772,1.1834,1.1965,1.2642,1.3272,1.387,1.4462,1.5215,1.5881,1.6028,1.6541,1.7147,1.7147,1.7513,1.7901,1.8104,1.8375,1.8633,1.9166,1.9584,1.9879,1.9888,2.0565,2.1221,2.1474,2.1975,2.2604,2.3185,2.3528,2.3892,2.4485,2.4778,2.4967,2.5244,2.5185,2.5126,2.5264,2.5436,2.5546,2.5585,2.6101,2.6612,2.7079,2.7111,2.7099,2.7126,2.7546,2.8104,2.8876,3.0144,3.0965,3.1179,3.1372,3.1504,3.1504,3.1709,3.18,3.18,3.1372,3.1372,3.18,3.0878,3.0576,0.4538,0.5077,0.5664,0.0,0.0,0.0,0.6937,0.7486,0.8173,0.8513,0.8467,0.8408,0.8466,0.8052,0.7842,0.8042,0.8042,0.8102,0.8166,0.8296,0.842,0.8484,0.8801,0.893,0.8941,0.9069,0.9134,0.9134,0.9134,0.9134,0.9134,0.9588,0.9907,1.0155,1.0611,1.0989,1.117,1.117,1.117,1.117,1.117,1.1115,1.087,1.1108,1.1421,1.1787,1.1725,1.1965,1.2389,1.2581,1.2826,1.3078,1.3571,1.4048,1.4461,1.5042,1.5854,1.6598,1.6719,1.7273,1.7969,1.7969,1.8172,1.8499,1.87,1.8767,1.8844,1.9375,1.9781,2.0172,2.0635,2.1083,2.1411,2.1651,2.2161,2.2836,2.3458,2.3989,2.4523,2.5174,2.5481,2.5647,2.5729,2.563,2.535,2.505,2.5109,2.5156,2.5079,2.5455,2.5874,2.6251,2.6567,2.6672,2.6451,2.6677,2.7163,2.792,2.8976,2.9898,3.0649,3.0965,3.1083,3.1083,3.1466,3.1634,3.1634,3.1295,3.1295,3.1634,3.0617,3.0284,0.5748,0.6,0.6381,0.0,0.0,0.0,0.859,0.8705,0.904,1.0087,0.9565,0.912,0.9807,0.9122,0.8753,0.9414,0.9484,0.9548,0.9804,0.9926,1.011,1.0308,1.0498,1.0624,1.0624,1.0624,1.0624,1.0624,1.0624,1.0624,1.0624,1.0624,1.087,1.1483,1.1483,1.1849,1.2504,1.2512,1.2512,1.2512,1.2512,1.2151,1.1545,1.2212,1.2512,1.2512,1.2512,1.2504,1.2573,1.326,1.3881,1.4515,1.4515,1.4763,1.5148,1.5551,1.6337,1.7158,1.7562,1.8037,1.8509,1.8509,1.8499,1.8633,1.9177,1.9309,1.9441,1.9933,2.0324,2.0711,2.1094,2.1474,2.1714,2.1714,2.2677,2.3577,2.3636,2.4593,2.5494,2.5494,2.5688,2.5879,2.5893,2.5374,2.4966,2.4966,2.4498,2.4162,2.4368,2.4447,2.4622,2.4949,2.5582,2.5724,2.5069,2.5598,2.6034,2.6197,2.6809,2.8178,3.0394,3.0526,3.0567,3.0567,3.1044,3.1295,3.1295,3.1617,3.1634,3.1295,3.0965,3.0518,0.571,0.6304,0.0,0.7234,0.0,0.0,0.0,0.982,0.0,0.0,1.0521,1.0143,1.0179,0.9793,0.9491,0.9514,0.9612,0.974,0.9804,1.0053,1.0238,1.0301,1.0863,1.124,1.124,1.1663,1.1965,1.1965,1.1965,1.1965,1.1965,1.1965,1.2027,1.2212,1.2212,1.2328,1.2512,1.2512,1.2512,1.2512,1.3009,1.2826,1.2205,1.2389,1.2757,1.3199,1.3199,1.3442,1.3941,1.413,1.4327,1.4602,1.5223,1.5704,1.6176,1.6992,1.7609,1.8128,1.819,1.8633,1.9034,1.9034,1.932,1.9671,1.9802,1.9868,1.9868,2.0074,2.0529,2.1031,2.1158,2.1612,2.2111,2.2469,2.2836,2.3305,2.4047,2.4567,2.5104,2.5578,2.5448,2.5388,2.5823,2.5036,2.4385,2.4385,2.4049,2.392,2.4158,2.4197,2.4418,2.4942,2.5195,2.5227,2.5021,2.5195,2.5527,2.6018,2.624,2.6955,2.8271,2.9025,2.9411,2.9411,3.0318,3.0788,3.0788,3.0764,3.0788,3.0925,3.0326,3.0044,0.6483,0.7153,0.0,0.812,0.8974,0.9838,1.0381,0.0,0.0,0.0,1.0822,1.0584,1.0628,1.0294,1.0114,1.0251,1.0415,1.0541,1.0787,1.0975,1.1101,1.1163,1.1593,1.1911,1.1911,1.2266,1.2512,1.2512,1.2512,1.2512,1.2512,1.2512,1.2634,1.2879,1.2887,1.3009,1.3321,1.3321,1.3321,1.3321,1.37,1.37,1.3321,1.3321,1.3511,1.3881,1.3881,1.4139,1.4515,1.4515,1.4607,1.4763,1.536,1.6052,1.679,1.7376,1.8137,1.8834,1.8834,1.9177,1.9649,1.9649,1.9868,2.0085,2.0085,2.0085,2.0085,2.0085,2.0658,2.1221,2.1221,2.1675,2.2309,2.2787,2.3078,2.3471,2.4337,2.4794,2.5134,2.5299,2.518,2.5022,2.5135,2.4334,2.3674,2.3674,2.3622,2.3672,2.4013,2.4204,2.4467,2.4886,2.5219,2.5377,2.5377,2.5645,2.5866,2.5993,2.6009,2.6265,2.6802,2.7724,2.822,2.822,2.9321,2.9931,2.9947,3.0245,3.0418,3.046,3.0044,2.9782,0.7747,0.0,0.0,0.9059,0.9292,0.0,1.0615,1.0979,1.1156,1.118,1.0803,1.0596,1.1093,1.0797,1.0672,1.1406,1.1516,1.1703,1.2205,1.2328,1.2389,1.2512,1.2573,1.2573,1.2573,1.2634,1.2696,1.2696,1.2696,1.2696,1.2696,1.2696,1.2948,1.3571,1.3571,1.3881,1.4506,1.4515,1.4515,1.4515,1.4515,1.4515,1.4515,1.4515,1.4515,1.4515,1.4515,1.4506,1.4565,1.4565,1.4856,1.5226,1.5325,1.6126,1.7288,1.7327,1.8233,1.9375,1.9375,1.9726,2.0085,2.0085,2.0085,2.0085,2.0085,2.0085,2.0085,2.0085,2.0658,2.1221,2.1221,2.1737,2.2371,2.2909,2.3412,2.3904,2.4385,2.5065,2.5464,2.485,2.4801,2.4643,2.4202,2.3477,2.3055,2.3168,2.336,2.3629,2.4126,2.4537,2.4854,2.4986,2.5658,2.6103,2.6103,2.672,2.6814,2.6151,2.6103,2.6103,2.6103,2.6788,2.7238,2.7301,2.8382,2.8949,2.8949,2.9938,3.0267,2.9941,2.9924,2.9722,0.7689,0.8172,0.0,0.0,0.943,1.0074,1.1153,1.1488,1.1518,1.1736,1.1685,1.1683,1.1792,1.1736,1.1612,1.1541,1.1655,1.1849,1.2274,1.2389,1.2451,1.2512,1.2948,1.326,1.326,1.3761,1.407,1.407,1.407,1.407,1.407,1.407,1.4139,1.4267,1.4267,1.4327,1.4515,1.4515,1.4515,1.4515,1.4515,1.4515,1.4515,1.4515,1.4515,1.4515,1.4515,1.4734,1.5069,1.5069,1.5555,1.6336,1.7094,1.776,1.8423,1.9188,1.9651,1.9944,1.9944,2.0009,2.0085,2.0085,2.0085,2.0085,2.0085,2.0085,2.0085,2.0085,2.0658,2.1285,2.1639,2.2273,2.2957,2.3826,2.3872,2.3916,2.4394,2.4735,2.4836,2.4325,2.3842,2.3617,2.4047,2.3126,2.2718,2.3752,2.4303,2.4919,2.569,2.5961,2.6184,2.6416,2.6682,2.6862,2.6862,2.702,2.7036,2.6878,2.6862,2.6862,2.6862,2.7004,2.7379,2.7901,2.8761,2.9185,2.9185,2.954,2.9681,2.9592,2.9486,2.938,0.765,0.0,0.0,0.9862,0.0,1.1077,1.2016,1.2107,1.2158,1.275,1.2549,1.2237,1.2334,1.2387,1.237,1.2476,1.2712,1.2964,1.3329,1.339,1.345,1.345,1.3761,1.401,1.401,1.4258,1.4565,1.4843,1.4843,1.4961,1.5137,1.4961,1.4843,1.4843,1.4625,1.4515,1.4515,1.4734,1.4843,1.4843,1.5079,1.5196,1.5137,1.4961,1.4961,1.5205,1.5407,1.5613,1.591,1.6128,1.6586,1.7254,1.7738,1.8352,1.9049,1.9564,1.9868,2.0085,2.0085,2.0085,2.0085,2.0085,2.0085,2.0085,2.0085,2.0205,2.0388,2.0646,2.1198,2.1889,2.2372,2.2919,2.3467,2.3879,2.4081,2.4279,2.445,2.4716,2.4745,2.4179,2.385,2.3758,2.4287,2.404,2.4026,2.4944,2.5311,2.5797,2.6772,2.6688,2.6743,2.7308,2.7441,2.7501,2.7573,2.7873,2.7936,2.7604,2.7589,2.7589,2.7589,2.7589,2.7589,2.762,2.8329,2.8722,2.8722,2.9116,2.9321,2.9321,2.9213,2.9213,0.7677,0.0,0.9257,1.0745,1.1404,0.0,1.2677,1.2721,1.2799,1.3765,1.3322,1.274,1.2916,1.301,1.3132,1.3518,1.3821,1.413,1.4446,1.4515,1.4515,1.4625,1.4625,1.4625,1.4734,1.4734,1.4902,1.5294,1.5342,1.5459,1.5874,1.5517,1.5342,1.5342,1.4961,1.4734,1.4734,1.5128,1.5342,1.5352,1.57,1.5972,1.611,1.5751,1.5751,1.6073,1.6527,1.6779,1.686,1.7236,1.7716,1.8178,1.8178,1.8651,1.9441,1.9441,1.9726,2.0085,2.0085,2.0085,2.0085,2.0085,2.0151,2.0205,2.0205,2.0453,2.0828,2.1325,2.1939,2.2543,2.3135,2.3688,2.4131,2.407,2.463,2.4989,2.4475,2.4699,2.4797,2.4179,2.4086,2.4315,2.4771,2.5204,2.5758,2.6313,2.6438,2.6794,2.7721,2.75,2.7443,2.7951,2.8072,2.8149,2.8268,2.879,2.8884,2.8316,2.8268,2.8268,2.8268,2.8268,2.8015,2.7462,2.8,2.8268,2.8268,2.8853,2.9075,2.9075,2.9075,2.9185,0.0,0.0,0.9928,0.0,1.1114,1.1874,0.0,1.3026,1.3512,1.4347,1.4011,1.3719,1.3905,1.395,1.3955,1.3943,1.395,1.413,1.4446,1.4515,1.4675,1.5059,1.5118,1.5294,1.5642,1.57,1.5758,1.5816,1.5816,1.5816,1.5874,1.5816,1.5816,1.5816,1.5758,1.57,1.57,1.5758,1.5816,1.5816,1.5874,1.6318,1.712,1.7061,1.6814,1.6537,1.6991,1.7431,1.785,1.7913,1.8405,1.9219,1.9219,1.9511,2.0009,2.0009,2.0009,2.0085,2.0085,2.0085,2.0085,2.0085,2.0335,2.0506,2.0506,2.0839,2.1221,2.1702,2.2175,2.2774,2.3669,2.4648,2.5517,2.5928,2.6483,2.639,2.4357,2.4497,2.4797,2.3975,2.4177,2.4624,2.5218,2.577,2.6406,2.6989,2.7961,2.8712,2.8728,2.94,2.9559,2.8605,2.8748,2.8949,2.8949,2.9028,2.9044,2.8949,2.8995,2.8995,2.8995,2.8995,2.8902,2.8807,2.8902,2.8995,2.8995,2.9044,2.9075,2.9075,2.9075,2.9453,0.8553,0.9295,1.0077,0.0,1.1685,1.2406,1.3299,1.3654,1.4003,1.4775,1.4768,1.4481,1.4188,1.4263,1.4281,1.4013,1.4139,1.4437,1.4834,1.4902,1.5069,1.5526,1.5584,1.57,1.5874,1.5874,1.5989,1.6285,1.6285,1.64,1.6694,1.6457,1.6285,1.6285,1.6046,1.5874,1.5874,1.6161,1.64,1.6694,1.6958,1.7318,1.7718,1.8244,1.8208,1.7793,1.8268,1.8594,1.8792,1.9061,1.9435,1.9759,1.9759,1.9889,2.0085,2.0085,2.0085,2.0085,2.0085,2.0085,2.0151,2.0324,2.0453,2.0635,2.0903,2.14,2.2011,2.2849,2.354,2.4283,2.5309,2.6007,2.6344,2.5876,2.6541,2.6858,2.5577,2.5647,2.584,2.5546,2.6049,2.6668,2.7034,2.7349,2.7735,2.8133,2.8923,2.9717,3.0119,3.0398,3.0532,3.039,3.0268,3.0146,3.0162,3.0258,3.0306,3.0306,2.9927,2.9722,2.9722,2.9343,2.9075,2.9075,2.9075,2.9075,2.9075,2.9075,2.9075,2.9091,2.9532,2.988,0.0,0.0,1.0128,1.132,1.2118,1.279,1.3656,1.3989,1.4319,1.4936,1.5138,1.5076,1.4764,1.4709,1.4702,1.4511,1.4561,1.4843,1.5294,1.541,1.5526,1.6046,1.6104,1.6104,1.6218,1.6285,1.64,1.6751,1.6807,1.692,1.7278,1.6987,1.6807,1.6807,1.6457,1.6285,1.6285,1.6627,1.7041,1.7464,1.7882,1.8123,1.8206,1.9047,1.9288,1.908,1.9441,1.9604,1.9626,1.9933,2.0085,2.0085,2.0085,2.0085,2.0085,2.0085,2.0085,2.0085,2.0085,2.0151,2.0259,2.0635,2.088,2.1158,2.1666,2.233,2.3182,2.4215,2.4997,2.5661,2.6627,2.7086,2.7097,2.6219,2.6854,2.7446,2.6795,2.6665,2.6771,2.7025,2.7626,2.8181,2.8429,2.8529,2.8651,2.878,2.9261,2.9931,3.0837,3.1102,3.1265,3.148,3.1362,3.1184,3.109,3.1124,3.1223,3.1223,3.0559,3.018,3.018,2.9674,2.939,2.939,2.939,2.9311,2.9075,2.9075,2.9075,2.9107,2.9848,3.0275,0.0,0.9407,0.0,1.0838,1.1829,1.2725,1.306,1.3648,1.4255,1.4607,1.4957,1.5424,1.6227,1.5656,1.5222,1.5624,1.5386,1.5352,1.5816,1.5874,1.6046,1.6513,1.657,1.6751,1.7155,1.7222,1.7222,1.7278,1.7278,1.7278,1.7278,1.7278,1.7278,1.7278,1.7222,1.7222,1.7222,1.7368,1.7599,1.7966,1.8151,1.8335,1.8665,1.9179,1.9659,2.0009,2.0031,2.0042,2.0053,2.0074,2.0085,2.0085,2.0085,2.0085,2.0085,2.0085,2.0085,2.0085,2.0085,2.0324,2.0635,2.0944,2.1628,2.2457,2.3306,2.3928,2.4587,2.5713,2.6131,2.6377,2.6889,2.7583,2.8132,2.8063,2.8422,2.842,2.7363,2.7102,2.7146,2.7735,2.7789,2.7881,2.8502,2.8573,2.8587,2.8587,2.878,2.9261,3.0147,3.1607,3.2137,3.0907,3.1394,3.1697,3.1255,3.1223,3.1223,3.1223,3.0559,3.018,3.018,3.0148,3.0117,3.0117,3.0117,2.9801,2.9075,2.9075,2.9075,2.9107,2.9848,3.0528,0.0,0.0,0.0,1.0478,1.1273,1.2027,1.2615,1.3728,1.4764,1.5475,1.6098,1.6766,1.7628,1.6788,1.6049,1.6304,1.6168,1.6147,1.6327,1.6343,1.6513,1.6987,1.7043,1.7099,1.7278,1.7278,1.7278,1.7278,1.7278,1.7278,1.7278,1.7278,1.7278,1.7278,1.7278,1.7278,1.7278,1.7323,1.7575,1.801,1.8353,1.8747,1.9179,1.9659,1.9911,2.0085,2.0085,2.0085,2.0085,2.0085,2.0085,2.0085,2.0085,2.0085,2.0151,2.0324,2.0453,2.0453,2.0722,2.1107,2.1487,2.1899,2.2703,2.3582,2.4151,2.4848,2.5677,2.6443,2.693,2.7336,2.7903,2.8225,2.8466,2.8466,2.8566,2.8607,2.8157,2.8249,2.8381,2.8614,2.8529,2.847,2.8675,2.8651,2.8587,2.8587,2.8651,2.9022,2.9931,3.1261,3.1967,3.141,3.2229,3.2688,3.2426,3.2514,3.255,3.255,3.1902,3.1573,3.1573,3.1081,3.0844,3.0844,3.0844,3.0496,2.9801,2.9343,2.9358,2.9817,3.0512,3.1223,0.8968,0.0,0.0,0.0,1.1283,1.1701,1.2688,1.3655,1.4584,1.5614,1.6459,1.73,1.8552,1.8058,1.737,1.7297,1.7042,1.6863,1.7026,1.6903,1.6931,1.7278,1.7278,1.7278,1.7278,1.7278,1.7278,1.7278,1.7278,1.7278,1.7278,1.7278,1.7278,1.7278,1.7278,1.7355,1.7518,1.7575,1.7816,1.8239,1.8758,1.9153,1.9441,1.9857,2.0205,2.0453,2.0453,2.0324,2.0085,2.0085,2.0085,2.0085,2.0085,2.014,2.0259,2.0518,2.07,2.0914,2.1533,2.1993,2.2504,2.3224,2.4033,2.4872,2.5396,2.6099,2.6783,2.737,2.7736,2.8085,2.8492,2.8587,2.8587,2.8587,2.8587,2.8587,2.8587,2.878,2.8908,2.8908,2.8844,2.8716,2.8716,2.8651,2.8587,2.8587,2.8894,2.931,2.9808,3.1102,3.1977,3.1879,3.2726,3.324,3.315,3.3256,3.3309,3.3309,3.2645,3.2317,3.2317,3.1823,3.1571,3.1571,3.1571,3.1349,3.0875,3.0164,3.0069,3.0543,3.1255,3.195,0.0,0.0,0.0,1.2003,1.1814,1.1768,1.3221,1.3411,1.37,1.5107,1.5972,1.7063,1.8909,1.9267,1.9141,1.8721,1.7892,1.7493,1.7973,1.7606,1.73,1.73,1.7289,1.7278,1.7278,1.7278,1.7278,1.7278,1.7278,1.7278,1.7278,1.7278,1.7278,1.7278,1.7278,1.7508,1.7977,1.8151,1.8394,1.8698,1.9353,1.9596,1.9452,1.9932,2.0518,2.1123,2.1123,2.0752,2.014,2.014,2.014,2.014,2.014,2.0388,2.0635,2.07,2.0903,2.1441,2.2484,2.3071,2.3587,2.5014,2.5775,2.6343,2.7243,2.7606,2.7854,2.8438,2.8587,2.8587,2.8587,2.8587,2.8587,2.8587,2.8587,2.8587,2.8587,2.8587,2.8587,2.8587,2.8587,2.8587,2.8587,2.8587,2.8587,2.8587,2.9484,3.0086,2.9808,3.1175,3.2191,3.2191,3.285,3.3309,3.3309,3.3309,3.3309,3.3309,3.2677,3.2349,3.2349,3.2349,3.2349,3.2349,3.2349,3.2349,3.2349,3.1571,3.1223,3.1255,3.1966,3.2661,0.9969,0.0,0.0,0.0,0.0,0.0,1.2347,1.2944,1.3727,1.5531,1.6195,1.6969,1.8545,1.9113,1.9307,1.9178,1.9003,1.8772,1.8556,1.8097,1.7813,1.7813,1.7497,1.7278,1.7278,1.7278,1.7278,1.7278,1.7278,1.7278,1.7278,1.7278,1.7278,1.7278,1.7278,1.7344,1.7475,1.81,1.8569,1.8939,2.0004,2.0623,2.0877,2.1307,2.1678,2.1803,2.1803,2.1741,2.1553,2.1553,2.1553,2.1553,2.1667,2.1729,2.1916,2.2286,2.2788,2.3331,2.3816,2.4596,2.5432,2.5845,2.657,2.7405,2.7629,2.8007,2.8383,2.8546,2.8587,2.8587,2.8587,2.8587,2.8587,2.8587,2.8587,2.8587,2.8587,2.8587,2.8587,2.8587,2.8587,2.8587,2.8587,2.8587,2.8587,2.8587,2.8958,2.931,2.9594,3.0615,3.1507,3.1962,3.2687,3.3203,3.3309,3.3309,3.3309,3.3309,3.3119,3.3008,3.3008,3.3008,3.3008,3.3008,3.3008,3.3008,3.3008,3.1808,3.1476,3.1997,3.2692,3.3119,1.0927,0.0,0.0,1.2004,0.0,0.0,1.2626,1.2982,1.3593,1.5347,1.6176,1.6925,1.8148,1.8796,1.9179,1.9386,1.9419,1.9321,1.9037,1.8589,1.8294,1.8294,1.8043,1.7791,1.7606,1.7759,1.7704,1.7311,1.7464,1.7497,1.7289,1.7278,1.7278,1.7278,1.7278,1.7434,1.7634,1.8601,1.9274,1.9631,2.0865,2.1556,2.169,2.199,2.2224,2.2543,2.2543,2.2665,2.2919,2.3015,2.2652,2.2101,2.2274,2.2457,2.2738,2.3339,2.3872,2.44,2.5335,2.6022,2.6622,2.7065,2.7629,2.8118,2.8118,2.8327,2.8587,2.8587,2.8587,2.8587,2.8587,2.8587,2.8587,2.8587,2.8587,2.8587,2.8587,2.8587,2.8587,2.8587,2.8587,2.8587,2.8587,2.8587,2.8505,2.8261,2.873,2.9261,2.9519,3.0558,3.1564,3.2272,3.2796,3.315,3.3309,3.3309,3.3309,3.3309,3.3309,3.3309,3.3309,3.3309,3.3309,3.3309,3.3309,3.3309,3.3309,3.2487,3.2297,3.2708,3.3119,3.3309,1.2017,1.2518,0.0,1.3452,1.2903,0.0,1.3482,1.3349,1.3376,1.4805,1.5754,1.6594,1.7592,1.8185,1.8654,1.9037,1.9277,1.943,1.9495,1.908,1.8774,1.8774,1.872,1.8534,1.8119,1.8447,1.8316,1.7476,1.7818,1.784,1.7356,1.7379,1.7434,1.7434,1.7434,1.7689,1.8255,1.9479,2.0284,2.0595,2.1884,2.2408,2.2298,2.2298,2.2665,2.3207,2.3207,2.3543,2.4112,2.4247,2.3505,2.2347,2.2518,2.2895,2.339,2.4119,2.468,2.5192,2.6734,2.725,2.736,2.8282,2.8587,2.8587,2.8587,2.8587,2.8587,2.8587,2.8587,2.8587,2.8587,2.8587,2.8587,2.8587,2.8587,2.8587,2.8587,2.8587,2.8587,2.8587,2.8587,2.8587,2.8587,2.8587,2.841,2.7993,2.8761,2.9492,2.9711,3.0847,3.1936,3.2718,3.3005,3.315,3.3309,3.3309,3.3309,3.3309,3.3309,3.3309,3.3309,3.3309,3.3309,3.3309,3.3309,3.3261,3.3182,3.3261,3.3309,3.3309,3.3309,3.3309,1.2734,1.3044,1.3307,1.3452,1.3455,0.0,1.3119,1.2968,1.3249,1.4345,1.4421,1.4681,1.5981,1.706,1.76,1.7125,1.8441,1.9665,1.9954,1.9583,1.9277,1.9277,1.8927,1.8654,1.8567,1.8632,1.8566,1.8202,1.8326,1.8164,1.7667,1.8007,1.8267,1.8267,1.8363,1.8673,1.9162,2.0496,2.1151,2.1094,2.2748,2.3471,2.3327,2.3603,2.3806,2.3923,2.3923,2.3982,2.4112,2.4247,2.4105,2.393,2.4221,2.4465,2.4717,2.5509,2.6126,2.6687,2.7455,2.7976,2.8309,2.856,2.8587,2.8587,2.8587,2.8587,2.8587,2.8587,2.8587,2.8587,2.8587,2.8587,2.8587,2.8587,2.8587,2.8587,2.8587,2.8587,2.8587,2.8587,2.8587,2.8587,2.8587,2.8587,2.8725,2.9053,2.9164,2.9518,3.0469,3.0925,3.1422,3.2247,3.2718,3.3058,3.3309,3.3309,3.3309,3.3309,3.3309,3.3309,3.3309,3.3309,3.3309,3.3309,3.3309,3.3024,3.2471,3.304,3.3309,3.3309,3.3309,3.3309,1.3537,1.3658,1.3785,1.3989,1.386,0.0,0.0,1.3324,1.3247,1.4485,1.4306,1.4384,1.5859,1.6596,1.7088,1.7592,1.8362,1.9132,1.9821,1.9678,1.9471,1.9419,1.9251,1.9072,1.8961,1.9371,1.9683,1.9749,1.9078,1.8661,1.8661,1.8612,1.862,1.862,1.8886,1.9442,2.0253,2.1409,2.2137,2.2545,2.3826,2.4305,2.4176,2.4332,2.4274,2.4203,2.4203,2.4203,2.4203,2.4376,2.4536,2.465,2.4835,2.5018,2.5367,2.6431,2.6941,2.7207,2.8188,2.852,2.8587,2.8587,2.8587,2.8587,2.8587,2.8587,2.8587,2.8587,2.8587,2.8587,2.8587,2.8587,2.8587,2.8587,2.8587,2.8587,2.8587,2.8587,2.8587,2.8587,2.8587,2.8587,2.8587,2.8587,2.8721,2.9063,2.9226,2.9619,3.0572,3.0822,3.1306,3.2428,3.2554,3.2757,3.3256,3.3309,3.3309,3.3309,3.3309,3.3309,3.3309,3.3309,3.3135,3.2803,3.2787,3.244,3.1744,3.2455,3.2787,3.2787,3.2787,3.2977,1.4333,1.4435,1.4649,1.4664,1.4477,1.4334,0.0,0.0,0.0,1.4854,1.4713,1.4778,1.6166,1.6429,1.6884,1.8106,1.8383,1.8619,1.9198,1.9448,1.952,1.9349,1.9505,1.9593,1.9392,2.0041,2.0669,2.1141,1.9966,1.9373,1.9799,1.9431,1.9194,1.9085,1.9463,2.0205,2.1316,2.2141,2.3017,2.3973,2.4608,2.4892,2.4835,2.4677,2.4549,2.4408,2.4408,2.435,2.435,2.4607,2.4835,2.5061,2.5061,2.5244,2.5688,2.7053,2.7367,2.7368,2.8671,2.8908,2.8587,2.8587,2.8587,2.8587,2.8587,2.8587,2.8587,2.8587,2.8587,2.8587,2.8587,2.8587,2.8587,2.8587,2.8587,2.8587,2.8587,2.8587,2.8587,2.8587,2.8587,2.8587,2.8587,2.8587,2.8666,2.89,2.9285,2.9825,3.0592,3.0863,3.1422,3.2664,3.2499,3.2594,3.324,3.3309,3.3309,3.3309,3.3309,3.3309,3.3309,3.3182,3.2771,3.2076,3.2076,3.1713,3.1018,3.1586,3.1985,3.2076,3.2076,3.244,1.5203,1.5698,1.5983,1.5236,1.573,1.6025,1.4743,0.0,1.5043,1.5114,0.0,1.5211,1.5932,0.0,0.0,1.6443,1.8007,1.8949,1.7995,1.8748,1.9322,1.9054,1.9594,1.9971,1.996,1.9954,2.0292,2.1284,2.079,2.0463,2.0589,2.0976,2.0914,2.0422,2.0547,2.1136,2.214,2.2812,2.342,2.4068,2.4552,2.4892,2.4948,2.4835,2.4778,2.4721,2.4721,2.4664,2.4607,2.4835,2.5061,2.5174,2.5174,2.5397,2.5827,2.7039,2.7367,2.7368,2.8671,2.8908,2.8587,2.8587,2.8587,2.8587,2.8587,2.8587,2.8587,2.8587,2.8587,2.8587,2.8587,2.8587,2.8587,2.8587,2.8587,2.8587,2.8587,2.8587,2.8587,2.8587,2.8587,2.8587,2.8587,2.8587,2.8817,2.96,2.9704,3.0086,3.0867,3.1334,3.1781,3.2247,3.2609,3.2935,3.3256,3.3309,3.3309,3.3309,3.3309,3.3309,3.3309,3.2708,3.206,3.1349,3.1334,3.0986,3.0291,3.0385,3.0733,3.1334,3.1334,3.1713,1.5467,1.6205,1.6886,1.6176,1.66,1.6898,1.5958,1.5457,1.5336,1.5819,0.0,0.0,0.0,0.0,0.0,0.0,1.806,1.8346,1.7777,1.8025,1.8325,1.8564,1.8879,1.9353,1.9865,2.0012,2.0582,2.1732,2.1189,2.116,2.189,2.2088,2.1878,2.1248,2.1974,2.2576,2.3002,2.376,2.4419,2.5025,2.5218,2.5342,2.5397,2.5244,2.5131,2.5005,2.5005,2.5005,2.4948,2.5061,2.5286,2.5508,2.5508,2.5828,2.6414,2.7193,2.7617,2.7864,2.8669,2.878,2.8587,2.8587,2.8587,2.8587,2.8587,2.8587,2.8587,2.8587,2.8587,2.8587,2.8587,2.8587,2.8587,2.8587,2.8587,2.8587,2.8587,2.8587,2.8587,2.8587,2.8587,2.8587,2.8587,2.8881,2.9296,2.9747,3.0115,3.0658,3.1321,3.1321,3.161,3.2499,3.2554,3.2703,3.324,3.3309,3.3309,3.3309,3.3309,3.3119,3.2724,3.2029,3.1318,3.0622,3.0622,3.0275,2.9564,2.9975,3.0117,2.9974,3.0417,3.0986,1.637,1.7119,1.7851,1.7097,1.7288,1.7521,1.6822,1.6328,1.6188,1.687,1.6683,0.0,0.0,0.0,1.7718,1.8401,0.0,1.8239,1.7855,1.7666,1.7626,1.7919,1.8496,1.9257,2.0192,2.0204,2.0752,2.2161,2.1407,2.1459,2.2897,2.2844,2.2472,2.1874,2.285,2.345,2.3489,2.4251,2.4967,2.5633,2.5633,2.5674,2.5729,2.5592,2.5481,2.5342,2.5342,2.5342,2.53,2.5342,2.5508,2.5729,2.5729,2.6329,2.713,2.736,2.7811,2.8284,2.8639,2.8716,2.8587,2.8587,2.8587,2.8587,2.8587,2.8587,2.8587,2.8587,2.8587,2.8587,2.8587,2.8587,2.8587,2.8587,2.8587,2.8587,2.8587,2.8702,2.8817,2.8817,2.9008,2.9071,2.8958,2.9233,2.958,2.9747,3.0358,3.1014,3.161,3.1379,3.161,3.2788,3.2609,3.2648,3.3256,3.3309,3.323,3.304,3.3024,3.2613,3.1779,3.1207,3.0607,2.9911,2.9896,2.9643,2.9075,2.9643,2.9627,2.9091,2.9659,3.0275,1.8511,1.892,1.9119,1.7711,1.7822,1.7946,1.6779,1.744,1.829,1.8254,1.9093,1.9781,1.9476,1.94,1.9256,1.8859,1.9266,0.0,0.0,1.7896,1.7706,1.7202,1.868,2.0253,2.1445,2.0515,2.0617,2.2538,2.1341,2.1355,2.3303,2.3228,2.2891,2.2319,2.285,2.3294,2.3489,2.4039,2.471,2.5494,2.5494,2.5592,2.5729,2.5674,2.5674,2.5674,2.5674,2.5633,2.5494,2.5633,2.5674,2.5729,2.5839,2.6652,2.7748,2.7586,2.7811,2.8284,2.8639,2.8716,2.8587,2.8587,2.8587,2.8587,2.8587,2.8587,2.8587,2.8587,2.8587,2.8587,2.8587,2.8587,2.8587,2.8587,2.8587,2.8587,2.8587,2.9044,2.9442,2.9442,3.0011,3.0283,2.987,2.9594,2.958,2.9747,3.0358,3.1014,3.161,3.1682,3.1966,3.2788,3.2912,3.3005,3.3256,3.3309,3.3008,3.2396,3.2349,3.1731,3.0306,3.0227,2.988,2.9122,2.9169,2.9107,2.9075,2.9107,2.9107,2.9075,2.9107,2.9548,1.8518,1.9545,2.033,1.8783,1.9157,1.9466,1.7913,1.8151,1.8513,1.7738,1.8954,1.986,1.8919,1.9256,1.9574,1.9415,1.9255,1.8781,0.0,1.6742,1.6619,1.7579,1.8289,1.8897,1.9337,1.9727,2.0284,2.093,2.1233,2.1801,2.2766,2.3587,2.3699,2.2943,2.4161,2.4652,2.4251,2.4954,2.5479,2.5743,2.5743,2.5798,2.5839,2.5839,2.5839,2.5839,2.5839,2.5798,2.5743,2.5784,2.5839,2.5881,2.6343,2.696,2.76,2.7395,2.7925,2.876,2.8712,2.8651,2.8587,2.8587,2.8587,2.8587,2.8587,2.8587,2.8587,2.8587,2.8587,2.8587,2.8587,2.8587,2.8587,2.8587,2.8587,2.8587,2.8587,2.9044,2.9504,2.9504,3.0011,3.0343,2.987,3.0404,3.0629,3.0054,3.0539,3.1146,3.161,3.1781,3.2064,3.2648,3.2881,3.3058,3.315,3.283,3.2313,3.1618,3.1571,3.1144,3.0227,3.018,2.9848,2.9091,2.9075,2.9075,2.9075,2.9075,2.9075,2.9075,2.9075,2.9201,1.9117,2.006,2.0737,1.9533,1.9804,2.0005,1.844,1.8675,1.895,1.8039,1.9258,2.03,1.9741,1.9992,2.0243,2.0026,1.9527,1.8645,0.0,1.634,1.6354,1.7213,1.7787,1.8398,1.9039,1.9262,1.9768,2.0711,2.0781,2.1346,2.26,2.3568,2.3834,2.3307,2.4723,2.5218,2.4609,2.5422,2.5839,2.5893,2.5893,2.5893,2.5893,2.5893,2.5893,2.5893,2.5893,2.5893,2.5893,2.5893,2.5979,2.6162,2.6553,2.7167,2.7742,2.7594,2.8167,2.8908,2.8651,2.8587,2.8587,2.8587,2.8587,2.8587,2.8587,2.8587,2.8587,2.8587,2.8766,2.8881,2.8716,2.8958,2.9198,2.8844,2.9022,2.9198,2.8844,2.9546,3.0179,3.0011,3.0615,3.1058,3.0539,3.1073,3.1306,3.0478,3.0837,3.1437,3.1894,3.1894,3.2064,3.2648,3.2881,3.3058,3.315,3.2793,3.2293,3.1634,3.13,3.0858,3.0212,2.9943,2.9595,2.9091,2.9075,2.9075,2.9075,2.9075,2.9075,2.9075,2.9075,2.9075]},{"header":{"parameterUnit":"m.s-1","parameterCategory":1,"la1":30.6,"la2":29.2853,"lo1":-89.7004,"lo2":-87.6739,"dy":0.0162,"dx":0.0183,"nx":112,"ny":82,"refTime":"2026-02-23T12:00:00:Z","depth":0,"parameterNumber":3,"parameterNumberName":"V-component_of_WINDS"},"data":[0.0,0.0,0.0,0.0,0.0,0.0,0.0,0.0,0.0,0.0,0.0,0.0,0.0,0.0,0.0,0.0,0.0,0.0,0.0,0.0,0.0,0.0,0.0,0.0,0.0,0.0,0.0,0.0,0.0,0.0,0.0,0.0,0.0,0.0,0.0,0.0,0.0,0.0,0.0,0.0,0.0,0.0,0.0,0.0,0.0,0.0,0.0,0.0,0.0,0.0,0.0,0.0,0.0,0.0,0.0,0.0,0.0,0.0,0.0,0.0,0.0,0.0,0.0,0.0,0.0,0.0,0.0,0.0,0.0,0.0,0.0,0.0,0.0,0.0,0.0,0.0,0.0,0.0,0.0,0.0,0.0,0.0,0.0,0.0,0.0,0.0,0.0,0.0,0.0,0.0,1.0561,1.193,1.323,1.3942,1.3714,1.3707,1.2959,1.1235,0.0,0.0,0.0,0.0,0.0,0.0,0.0,0.0,0.0,0.0,0.0,0.0,0.0,0.0,0.0,0.0,0.0,0.0,0.0,0.0,0.0,0.0,0.0,0.0,0.0,0.0,0.0,0.0,0.0,0.0,0.0,0.0,0.0,0.0,0.0,0.0,0.0,0.0,0.0,0.0,0.0,0.0,0.0,0.0,0.0,0.0,0.0,0.0,0.0,0.0,0.0,0.0,0.0,0.0,0.0,0.0,0.0,0.0,0.0,0.0,0.0,0.0,0.0,0.0,0.0,0.0,0.0,0.0,0.0,0.0,0.0,0.0,0.0,0.0,0.0,0.0,0.0,0.0,0.0,0.0,0.0,0.0,0.0,0.0,0.0,0.0,0.0,0.0,0.0,0.0,0.0,0.0,0.0,0.0,0.0,0.0,0.0,0.0,0.0,0.0,0.0,0.0,0.0,0.0,1.0178,1.26,1.3504,1.3658,1.287,1.2697,1.1833,0.9908,0.0,0.0,0.0,0.0,0.0,0.0,0.0,0.0,0.0,0.0,0.0,0.0,0.0,0.0,0.0,0.0,0.0,0.0,0.0,0.0,0.0,0.0,0.0,0.0,0.0,0.0,0.0,0.0,0.0,0.0,0.0,0.0,0.0,0.0,0.0,0.0,0.0,0.0,0.0,0.0,0.0,0.0,0.0,0.0,0.0,0.0,0.0,0.0,0.0,0.0,0.0,0.0,0.0,0.0,0.0,0.0,0.0,0.0,0.0,0.0,0.0,0.0,0.0,0.0,0.0,0.0,0.0,0.0,0.0,0.0,0.0,0.0,0.0,0.0,0.0,0.0,0.0,0.0,0.0,0.0,0.0,0.0,0.0,0.0,0.0,0.0,0.0,0.0,0.0,0.0,0.0,0.0,0.0,0.0,0.0,0.0,0.0,0.0,0.0,0.0,0.0,0.0,0.0,1.0233,1.1271,1.2378,1.3116,1.3208,1.2267,1.2098,1.1326,0.9632,0.9452,0.0,0.0,0.0,0.0,0.0,0.0,0.0,0.0,0.0,0.0,0.0,0.0,0.0,0.0,0.0,0.0,0.0,0.0,0.0,0.0,0.0,0.0,0.0,0.0,0.0,0.0,0.0,0.0,0.0,0.0,0.0,0.0,0.0,0.0,0.0,0.0,0.0,0.0,0.0,0.0,0.0,0.0,0.0,0.0,0.0,0.0,0.0,0.0,0.0,0.0,0.0,0.0,0.0,0.0,0.0,0.0,0.0,0.0,0.0,0.0,0.0,0.0,0.0,0.0,0.0,0.0,0.0,0.0,0.0,0.0,0.0,0.0,0.0,0.0,0.0,0.0,0.0,0.0,0.0,0.0,0.0,0.0,0.0,0.0,0.0,0.0,0.0,0.0,0.0,0.0,0.0,0.0,0.0,0.0,0.0,0.0,0.0,0.0,0.0,0.0,0.0,0.0,1.1613,1.2316,1.2105,1.2663,1.2737,1.1954,1.1764,1.1006,0.9415,0.8701,0.0,0.0,0.0,0.0,0.0,0.0,0.0,0.0,0.0,0.0,0.0,0.0,0.0,0.0,0.0,0.0,0.0,0.0,0.0,0.0,0.0,0.0,0.0,0.0,0.0,0.0,0.0,0.0,0.0,0.0,0.0,0.0,0.0,0.0,0.0,0.0,0.0,0.0,0.0,0.0,0.0,0.0,0.0,0.0,0.0,0.0,0.0,0.0,0.0,0.0,0.0,0.0,0.0,0.0,0.0,0.0,0.0,0.0,0.0,0.0,0.0,0.0,0.0,0.0,0.0,0.0,0.0,0.0,0.0,0.0,0.0,0.0,0.0,0.0,0.0,0.0,0.0,0.0,0.0,0.0,0.0,0.0,0.0,0.0,0.0,0.0,0.0,0.0,0.0,0.0,0.0,0.0,0.0,0.0,0.0,0.0,0.0,0.0,0.0,0.0,0.0,0.0,1.1478,1.2464,1.2281,1.2473,1.2497,1.2105,1.1627,1.0615,0.8958,0.8172,0.0,0.0,0.0,0.0,0.0,0.0,0.0,0.0,0.0,0.0,0.0,0.0,0.0,0.0,0.0,0.0,0.0,0.0,0.0,0.0,0.0,0.0,0.0,0.0,0.0,0.0,0.0,0.0,0.0,0.0,0.0,0.0,0.0,0.0,0.0,0.0,0.0,0.0,0.0,0.0,0.0,0.0,0.0,0.0,0.0,0.0,0.0,0.0,0.0,0.0,0.0,0.0,0.0,0.0,0.0,0.0,0.0,0.0,0.0,0.0,0.0,0.0,0.0,0.0,0.0,0.0,0.0,0.0,0.0,0.0,0.0,0.0,0.0,0.0,0.0,0.0,0.0,0.0,0.0,0.0,0.0,0.0,0.0,0.0,0.0,0.0,0.0,0.0,0.0,0.0,0.0,0.0,0.0,0.0,0.0,0.0,0.0,0.0,0.0,0.0,0.0,0.0,1.1151,1.1882,1.1797,1.1982,1.1954,1.1627,1.1412,1.059,0.8911,0.0,0.0,0.0,0.0,0.0,0.0,0.0,0.0,0.0,0.0,0.0,0.0,0.0,0.0,0.0,0.0,0.0,0.0,0.0,0.0,0.0,0.0,0.0,0.0,0.0,0.0,0.0,0.0,0.0,0.0,0.0,0.0,0.0,0.0,0.0,0.0,0.0,0.0,0.0,0.0,0.0,0.0,0.0,0.0,0.0,0.0,0.0,0.0,0.0,0.0,0.0,0.0,0.0,0.0,0.0,0.0,0.0,0.0,0.0,0.0,0.0,0.0,0.0,0.0,0.0,0.0,0.0,0.0,0.0,0.0,0.0,0.0,0.0,0.0,0.0,0.0,0.0,0.0,0.0,0.0,0.0,0.0,0.0,0.0,0.0,0.0,0.0,0.0,0.0,0.0,0.0,0.0,0.0,0.0,0.0,0.0,0.0,0.0,0.0,0.0,0.0,0.0,1.0064,1.0924,1.1384,1.1344,1.1378,1.1327,1.0942,1.0814,1.0078,0.8543,0.0,0.0,0.0,0.0,0.0,0.0,0.0,0.0,0.0,0.0,0.0,0.0,0.0,0.0,0.0,0.0,0.0,0.0,0.0,0.0,0.0,0.0,0.0,0.0,0.0,0.0,0.0,0.0,0.0,0.0,0.0,0.0,0.0,0.0,0.0,0.0,0.0,0.0,0.0,0.0,0.0,0.0,0.0,0.0,0.0,0.0,0.0,0.0,0.0,0.0,0.0,0.0,0.0,0.0,0.0,0.0,0.0,0.0,0.0,0.0,0.0,0.0,0.0,0.0,0.0,0.0,0.0,0.0,0.0,0.0,0.0,0.0,0.0,0.0,0.0,0.0,0.0,0.0,0.0,0.0,0.0,0.0,0.0,0.0,0.0,0.0,0.0,0.0,0.0,0.0,0.0,0.0,0.0,0.0,0.0,0.0,0.0,0.0,0.0,0.0,0.0,0.0,1.0525,1.0937,1.1054,1.0911,1.0767,1.051,1.0126,0.9812,0.9045,0.0,0.0,0.0,0.0,0.0,0.0,0.0,0.0,0.0,0.0,0.0,0.0,0.0,0.0,0.0,0.0,0.0,0.0,0.0,0.0,0.0,0.0,0.0,0.0,0.0,0.0,0.0,0.0,0.0,0.0,0.0,0.0,0.0,0.0,0.0,0.0,0.0,0.0,0.0,0.0,0.0,0.0,0.0,0.0,0.0,0.0,0.0,0.0,0.0,0.0,0.0,0.0,0.0,0.0,0.0,0.0,0.0,0.0,0.0,0.0,0.0,0.0,0.0,0.0,0.0,0.0,0.0,0.0,0.0,0.0,0.0,0.0,0.0,0.0,0.0,0.0,0.0,0.0,0.0,0.0,0.0,0.0,0.0,0.0,0.0,0.0,0.0,0.0,0.0,0.0,0.0,0.0,0.0,0.0,0.0,0.0,0.0,0.0,0.0,0.0,0.0,0.0,0.0,1.0282,1.057,1.0676,1.063,1.0401,1.022,1.01,0.9998,0.93,0.7795,0.0,0.0,0.0,0.0,0.0,0.0,0.0,0.0,0.0,0.0,0.0,0.0,0.0,0.0,0.0,0.0,0.0,0.0,0.0,0.0,0.0,0.0,0.0,0.0,0.0,0.0,0.0,0.0,0.0,0.0,0.0,0.0,0.0,0.0,0.0,0.0,0.0,0.0,0.0,0.0,0.0,0.0,0.0,0.0,0.0,0.0,0.0,0.0,0.0,0.0,0.0,0.0,0.0,0.0,0.0,0.0,0.0,0.0,0.0,0.0,0.0,0.0,0.0,0.0,0.0,0.0,0.0,0.0,0.0,0.0,0.0,0.0,0.0,0.0,0.0,0.0,0.0,0.0,0.0,0.0,0.0,0.0,0.0,0.0,0.0,0.0,0.0,0.0,0.0,0.0,0.0,0.0,0.0,0.0,0.0,0.0,0.0,0.0,0.0,0.0,0.0,0.0,0.9971,1.0285,1.04,1.0268,1.0056,0.9819,0.9657,0.9649,0.9022,0.7536,0.0,0.0,0.0,0.0,0.0,0.0,0.0,0.0,0.0,0.0,0.0,0.0,0.0,0.0,0.0,0.0,0.0,0.0,0.0,0.0,0.0,0.0,0.0,0.0,0.0,0.0,0.0,0.0,0.0,0.0,0.0,0.0,0.0,0.0,0.0,0.0,0.0,0.0,0.0,0.0,0.0,0.0,0.0,0.0,0.0,0.0,0.0,0.0,0.0,0.0,0.0,0.0,0.0,0.0,0.0,0.0,0.0,0.0,0.0,0.0,0.0,0.0,0.0,0.0,0.0,0.0,0.0,0.0,0.0,0.0,0.0,0.0,0.0,0.0,0.0,0.0,0.0,0.0,0.0,0.0,0.0,0.0,0.0,0.0,0.0,0.0,0.0,0.0,0.0,0.0,0.0,0.0,0.0,0.0,0.0,0.0,0.0,0.0,0.0,0.0,0.0,0.0,0.9612,1.003,1.016,0.9869,0.9674,0.941,0.905,0.8975,0.8456,0.7176,0.0,0.0,0.0,0.0,0.0,0.0,0.0,0.0,0.0,0.0,0.0,0.0,0.0,0.0,0.0,0.0,0.0,0.0,0.0,0.0,0.0,0.0,0.0,0.0,0.0,0.0,0.0,0.0,0.0,0.0,0.0,0.0,0.0,0.0,0.0,0.0,0.0,0.0,0.0,0.0,0.0,0.0,0.0,0.0,0.0,0.0,0.0,0.0,0.0,0.0,0.0,0.0,0.0,0.0,0.0,0.0,0.0,0.0,0.0,0.0,1.7747,1.7597,0.0,0.0,0.0,0.0,0.0,0.0,0.0,0.0,0.0,0.0,0.0,0.0,0.0,0.0,0.0,0.0,0.0,0.0,0.0,0.0,0.0,0.0,0.0,0.0,0.0,0.0,0.0,0.0,0.0,0.0,0.0,0.0,0.0,0.0,0.0,0.0,0.0,0.0,0.0,0.0,0.9575,0.9502,0.9387,0.9417,0.9258,0.911,0.9024,0.8846,0.8291,0.7168,0.6595,0.0,0.0,0.0,0.0,0.0,0.0,0.0,0.0,0.0,0.0,0.0,0.0,0.0,0.0,0.0,0.0,0.0,0.0,0.0,0.0,0.0,0.0,0.0,0.0,0.0,0.0,0.0,0.0,0.0,0.0,0.0,0.0,0.0,0.0,0.0,0.0,0.0,0.0,0.0,0.0,0.0,0.0,0.0,0.0,0.0,0.0,0.0,0.0,0.0,0.0,0.0,0.0,0.0,0.0,0.0,0.0,0.0,0.0,0.0,1.9902,1.9981,0.0,0.0,0.0,0.0,0.0,0.0,0.0,0.0,0.0,0.0,0.0,0.0,0.0,0.0,0.0,0.0,0.0,0.0,0.0,0.0,0.0,0.0,0.0,0.0,0.0,0.0,0.0,0.0,0.0,0.0,0.0,0.0,0.0,0.0,0.0,0.0,0.0,0.0,0.0,0.0,0.8986,0.9049,0.8948,0.8677,0.8639,0.8624,0.8546,0.8584,0.8246,0.7453,0.6773,0.0,0.0,0.0,0.0,0.0,0.0,0.0,0.0,0.0,0.0,0.0,0.0,0.0,0.0,0.0,0.0,0.0,0.0,0.0,0.0,0.0,0.0,0.0,0.0,0.0,0.0,0.0,0.0,0.0,0.0,0.0,0.0,0.0,0.0,0.0,0.0,0.0,0.0,0.0,0.0,0.0,0.0,0.0,0.0,0.0,0.0,0.0,0.0,0.0,0.0,0.0,0.0,0.0,2.2306,2.2243,2.1804,2.1279,2.1752,2.2904,2.2129,2.2602,2.3744,2.1727,0.0,0.0,0.0,0.0,0.0,0.0,0.0,0.0,0.0,0.0,0.0,0.0,0.0,0.0,0.0,0.0,0.0,0.0,0.0,0.0,0.0,0.0,1.7741,1.784,1.7686,1.667,1.3564,0.0,0.0,0.0,0.0,0.0,0.0,0.0,0.0,0.0,0.0,0.0,0.8443,0.8698,0.8645,0.8061,0.8132,0.8186,0.8016,0.8253,0.8183,0.771,0.7071,0.655,0.0,0.0,0.0,0.0,0.0,0.0,0.0,0.0,0.0,0.0,0.0,0.0,0.0,0.0,0.0,0.0,0.0,0.0,0.0,0.0,0.0,0.0,0.0,0.0,0.0,0.0,0.0,0.0,0.0,0.0,0.0,0.0,1.8712,2.0153,0.0,0.0,0.0,0.0,0.0,0.0,0.0,0.0,0.0,0.0,0.0,0.0,0.0,2.0402,2.0613,2.2052,2.2495,2.2024,2.3535,2.3862,2.3151,2.3192,2.3316,2.3565,2.345,0.0,2.3315,2.1072,0.0,0.0,0.0,0.0,0.0,0.0,0.0,0.0,0.0,0.0,0.0,0.0,0.0,0.0,0.0,0.0,0.0,0.0,0.0,0.0,0.0,0.0,1.8626,1.8584,1.8238,1.7642,1.6635,1.5387,1.4077,1.2864,1.1764,1.0941,0.0,0.0,0.0,0.0,0.0,0.0,0.8878,0.8606,0.8389,0.8339,0.8114,0.7991,0.8084,0.795,0.785,0.7695,0.7071,0.6717,0.6781,0.588,0.0,0.0,0.0,0.0,0.0,0.0,0.0,0.0,0.0,0.0,0.0,0.0,0.0,0.0,0.0,0.0,0.0,0.0,0.0,0.0,0.0,0.0,0.0,0.0,0.0,0.0,0.0,0.0,0.0,1.7628,1.8715,1.9823,1.9182,1.8652,0.0,0.0,0.0,0.0,0.0,0.0,0.0,0.0,0.0,1.8631,2.0357,2.1244,2.1155,2.2252,2.2515,2.1953,2.2773,2.2946,2.2452,2.2728,2.2888,2.2902,2.2711,2.2905,2.3232,2.1869,2.1606,2.1939,0.0,0.0,0.0,0.0,2.1288,2.1254,2.1801,2.2011,2.1854,2.082,0.0,0.0,0.0,0.0,0.0,0.0,0.0,2.06,1.9895,2.025,2.0628,1.9932,1.9672,1.9279,1.8219,1.7239,1.6011,1.4145,1.3431,1.2681,1.1345,1.0437,0.0,0.0,0.0,0.896,0.9328,0.8793,0.8258,0.7988,0.7835,0.7629,0.7225,0.7498,0.7602,0.7423,0.7135,0.7017,0.7047,0.6704,0.642,0.0,0.0,0.0,0.0,0.0,0.0,0.0,0.0,0.0,0.0,0.0,0.0,0.0,0.0,0.0,0.0,0.0,0.0,0.0,0.0,0.0,0.0,0.0,0.0,0.0,0.0,0.0,0.0,1.77,1.854,1.9236,1.8965,1.8532,0.0,0.0,0.0,0.0,0.0,0.0,1.8248,1.9078,1.9472,1.9421,2.0816,2.1454,2.1252,2.2214,2.2536,2.2199,2.2504,2.2462,2.2101,2.2262,2.2254,2.2158,2.1953,2.2342,2.3017,2.2299,2.2285,2.2628,2.1753,2.1636,2.2088,2.3112,2.3144,2.2786,2.376,2.3986,2.3681,2.275,2.2708,2.2748,2.1341,0.0,0.0,0.0,0.0,2.2314,2.1633,2.1873,2.2082,2.126,2.0805,2.0281,1.9286,1.8601,1.7519,1.5244,1.4761,1.4107,1.219,1.1422,0.0,1.0738,0.9992,0.9561,0.9772,0.9164,0.8457,0.7858,0.7755,0.7397,0.6656,0.7139,0.7402,0.7221,0.7262,0.7313,0.7313,0.7454,0.7249,0.662,0.0,0.0,0.0,0.0,0.0,0.0,0.0,0.0,0.0,0.0,0.0,0.0,0.0,0.0,0.0,0.0,0.0,0.0,0.0,0.0,0.0,0.0,0.0,0.0,0.0,0.0,0.0,0.0,0.0,1.854,1.8858,0.0,0.0,0.0,0.0,1.8253,1.8162,1.8404,1.9082,1.9549,1.9834,1.9958,2.0429,2.0712,2.0814,2.2264,2.3003,2.3026,2.3754,2.3777,2.3203,2.2589,2.2146,2.184,2.2005,2.222,2.2378,2.1516,2.1575,2.2153,2.1292,2.1113,2.1475,2.2555,2.3119,2.3493,2.4575,2.4408,2.3852,2.4728,2.4616,2.4065,2.3778,2.3712,0.0,0.0,2.3486,2.4026,2.3797,2.2891,2.2071,2.225,2.1109,1.9951,2.0026,1.9307,1.81,1.6276,1.5269,1.4557,1.4038,0.0,1.1772,1.1832,1.1092,1.0424,1.0113,0.9754,0.9195,0.8367,0.7996,0.7519,0.6841,0.7037,0.7233,0.7207,0.7481,0.769,0.769,0.7811,0.765,0.7157,0.7566,0.0,0.0,0.0,0.0,0.0,0.0,0.0,0.0,0.0,0.0,0.0,0.0,0.0,0.0,0.0,0.0,0.0,0.0,0.0,0.0,0.0,0.0,0.0,0.0,0.0,0.0,0.0,0.0,2.0502,2.0761,0.0,1.999,1.9692,1.9415,1.9171,1.8722,1.8555,1.8808,1.9349,1.9821,2.0101,2.1165,2.1521,2.1175,2.2185,2.2452,2.2064,2.2486,2.2532,2.2307,2.1909,2.1732,2.1745,2.1673,2.2132,2.2885,2.2701,2.2698,2.2758,2.2435,2.2615,2.3079,2.3472,2.3786,2.4029,2.3941,2.4091,2.4448,2.5001,2.5078,2.4905,2.4931,2.4924,2.4863,2.459,2.4415,2.4329,2.4351,2.3646,2.2878,2.2617,2.1351,2.0096,1.9624,1.8593,1.7412,1.6277,1.5931,1.5459,1.4465,1.3461,1.2746,1.2499,1.1664,1.1078,1.1129,1.0516,0.9723,0.8855,0.8427,0.7717,0.653,0.6888,0.7118,0.6907,0.7182,0.7357,0.731,0.7682,0.7654,0.7153,0.7857,0.8113,0.0,0.0,0.0,0.0,0.0,0.0,0.0,0.0,0.0,0.0,0.0,0.0,0.0,0.0,0.0,0.0,0.0,0.0,0.0,0.0,0.0,0.0,0.0,0.0,0.0,1.9476,2.0542,2.0795,2.1365,2.1326,2.0206,2.0162,2.0092,1.989,1.9454,1.9276,1.9517,1.9768,2.0091,2.052,2.1251,2.1564,2.1307,2.2049,2.2236,2.1847,2.2178,2.2284,2.2139,2.1934,2.1898,2.1945,2.2019,2.2538,2.3345,2.3808,2.3846,2.3624,2.3719,2.3886,2.4107,2.42,2.4258,2.4229,2.3896,2.4231,2.4864,2.5084,2.5226,2.5328,2.5457,2.5488,2.5437,2.5324,2.4946,2.4591,2.4632,2.4155,2.3556,2.3159,2.1919,2.0614,1.9797,1.8548,1.7316,1.6367,1.6199,1.5828,1.4697,1.3921,1.3429,1.327,1.2318,1.1696,1.2009,1.1252,1.0328,0.9368,0.8945,0.8102,0.653,0.7017,0.7178,0.6592,0.7051,0.7248,0.6991,0.7754,0.7934,0.7307,0.8278,0.902,0.9483,0.0,0.0,0.0,0.0,0.0,0.0,0.0,0.0,0.0,0.0,0.0,0.0,0.0,0.0,0.0,0.0,0.0,0.0,0.0,0.0,0.0,0.0,0.0,1.7919,1.9015,1.9692,1.9263,2.0568,2.0622,1.8245,1.9391,2.0298,2.0415,2.0315,2.0598,2.1308,2.0725,2.0644,2.1142,2.0711,2.0698,2.1213,2.1938,2.2389,2.253,2.3212,2.3253,2.2832,2.2817,2.2656,2.2446,2.3032,2.3381,2.3583,2.4526,2.4821,2.47,2.4935,2.4746,2.4353,2.4617,2.4407,2.408,2.4526,2.4874,2.5084,2.5103,2.5192,2.5321,2.5465,2.5453,2.539,2.5332,2.5111,2.4877,2.4749,2.4338,2.3996,2.3996,2.2816,2.1472,2.0685,1.9344,1.7929,1.6638,1.6074,1.5565,1.4811,1.4078,1.3694,1.4006,1.2987,0.0,1.2651,1.1963,1.1073,0.9949,0.9556,0.8684,0.6998,0.7436,0.7362,0.6404,0.7163,0.7357,0.6746,0.8022,0.8434,0.7771,0.8792,0.9985,1.1369,0.0,0.0,0.0,0.0,0.0,0.0,0.0,0.0,0.0,0.0,0.0,0.0,0.0,0.0,0.0,0.0,0.0,0.0,0.0,0.0,0.0,1.784,1.9471,1.9969,2.0752,2.1368,2.1729,2.1939,2.1831,2.1149,2.1427,2.1344,2.0616,2.0178,1.9986,2.0093,1.9931,2.0028,2.0539,2.1212,2.1442,2.1196,2.2338,2.2937,2.3097,2.3376,2.3448,2.3368,2.2972,2.2793,2.2851,2.2714,2.3263,2.4319,2.4593,2.5379,2.6319,2.536,2.5004,2.4989,2.4766,2.4553,2.4393,2.4629,2.4749,2.4832,2.5043,2.5197,2.5325,2.5465,2.5515,2.5537,2.5454,2.5158,2.4826,2.4907,2.4388,2.3878,2.4039,2.2821,2.1399,2.0604,1.9302,1.7902,1.6519,1.6034,1.5593,1.4721,1.4065,1.3565,1.3256,1.2734,1.2316,1.2272,1.1593,1.0929,1.0439,0.9656,0.8763,0.7698,0.7578,0.7387,0.6973,0.6775,0.679,0.6999,0.74,0.8095,0.9066,0.9355,1.0023,0.0,0.0,0.0,0.0,0.0,0.0,0.0,0.0,0.0,0.0,0.0,0.0,0.0,0.0,0.0,0.0,0.0,0.0,0.0,0.0,0.0,0.0,1.8586,1.9965,2.0867,2.1464,2.1879,2.2051,2.207,2.1946,2.1723,2.1672,2.14,2.079,2.0408,2.0307,2.0461,2.0461,2.0702,2.1191,2.1856,2.2176,2.2058,2.2819,2.3246,2.3363,2.3466,2.3538,2.358,2.3348,2.3307,2.3431,2.342,2.3977,2.496,2.5228,2.6,2.6903,0.0,0.0,0.0,0.0,2.4977,2.5047,2.4847,2.4818,2.4915,2.5163,2.5281,2.5381,2.5503,2.5541,2.5534,2.5445,2.5186,2.4911,2.4879,2.4424,2.3979,2.4039,2.3008,2.1806,2.098,1.9723,1.8329,1.7066,1.6317,0.0,1.4755,1.4084,1.3578,1.3273,1.2758,1.2423,1.2413,1.1599,1.0905,1.0621,0.9746,0.8853,0.7988,0.7835,0.0,0.0,0.0,0.7145,0.7755,0.7691,0.0,0.0,0.0,0.0,0.0,1.1889,0.0,0.0,1.2401,1.2565,0.0,0.0,0.0,0.0,0.0,0.0,0.0,0.0,0.0,0.0,0.0,0.0,0.0,0.0,0.0,0.0,1.9148,1.9847,2.0874,2.1351,2.1481,2.1152,2.1399,2.1469,2.109,2.0995,2.0998,2.115,2.0996,2.1172,2.1777,2.1805,0.0,0.0,0.0,2.2844,2.3275,2.3319,2.3407,2.3538,2.3538,2.3581,2.3653,2.3782,2.3925,2.4067,2.4549,2.5036,2.5481,2.6068,2.6505,2.6825,2.6873,2.6792,2.6533,2.5656,2.5578,2.5796,2.513,0.0,0.0,2.5337,2.5403,2.5427,2.5563,2.5562,2.5473,2.5335,2.5206,2.5037,2.4779,2.4461,2.4154,2.4018,2.3323,2.2427,2.1567,2.0374,1.9102,1.788,1.6769,1.5726,1.4833,1.4136,1.3681,1.3619,1.2914,1.2505,1.2758,1.1703,1.0888,1.0681,0.982,0.0,0.8101,0.8093,0.7701,0.6517,0.7236,0.7979,0.8617,0.8384,0.907,1.0829,1.0754,1.163,1.3529,1.2967,1.3337,1.4554,1.3612,1.3856,0.0,0.0,0.0,0.0,0.0,0.0,0.0,0.0,0.0,0.0,0.0,0.0,0.0,0.0,0.0,1.9105,1.978,2.0204,2.0415,2.0417,2.0582,2.1067,2.1017,2.1276,2.2123,2.1839,2.1755,2.2175,2.1792,2.1788,2.23,2.236,2.2452,2.2649,2.3083,2.3216,2.2979,2.3334,2.361,2.3754,2.3754,0.0,2.394,2.4009,2.412,2.4261,2.4482,2.5013,2.5705,2.5705,2.6123,2.6841,2.7352,2.7307,2.6939,2.6322,2.6001,2.5796,2.513,2.4994,2.513,2.5337,2.5441,2.5498,2.5586,2.5586,0.0,2.5349,2.5195,2.5056,2.4846,2.4461,2.4097,2.402,2.3432,2.2633,2.1567,2.0877,1.9865,1.77,1.7024,1.6308,1.4791,1.4084,1.3539,1.3043,1.2651,1.2376,1.2252,1.1346,1.0742,1.0965,0.9938,0.9088,0.8717,0.831,0.7863,0.7441,0.7512,0.7777,0.8285,0.8373,0.9151,1.0611,1.101,1.1856,1.3213,1.323,1.3891,1.514,1.4578,1.4439,0.0,0.0,0.0,0.0,0.0,0.0,0.0,0.0,0.0,0.0,0.0,1.5909,1.619,0.0,1.8915,1.9489,1.9605,1.9672,1.9838,1.9318,1.9364,2.0491,2.0991,2.1486,2.2159,2.2304,2.2434,2.2694,2.2483,2.262,2.3098,2.3201,2.329,2.3334,2.3625,2.3668,2.3436,2.3696,2.3839,2.3882,2.3882,2.3967,2.4051,2.4162,2.4354,2.4679,2.4775,2.5329,2.6193,2.6505,2.6935,2.7409,2.7974,2.7986,2.7612,2.6906,2.66,2.6357,2.5346,2.5084,2.5177,2.5372,2.5502,2.5563,2.562,2.5623,2.5554,2.5356,2.5186,2.4993,2.4813,2.4408,2.404,2.3999,2.3427,2.2754,2.2168,2.1336,2.0315,1.8965,1.8005,1.7119,1.6114,1.5379,1.4472,1.3248,1.2791,1.252,1.233,1.1431,1.0807,1.0864,0.989,0.9073,0.8704,0.8016,0.761,0.7704,0.7469,0.7696,0.8403,0.8544,0.9231,1.0582,1.0935,1.1767,1.311,1.3139,1.3898,1.5285,1.4968,1.518,0.0,0.0,0.0,0.0,0.0,0.0,0.0,0.0,1.5045,1.5875,1.6793,1.7543,1.7735,1.8787,1.9664,1.9723,1.9448,1.9271,1.9404,1.8752,1.8731,1.9929,2.0809,2.1503,2.2044,2.2484,2.2848,2.3113,2.3216,2.3436,2.3839,2.394,2.4024,2.4024,2.4024,2.4082,2.4109,2.4109,2.4109,2.4109,2.4177,2.4245,2.4313,2.4492,2.4784,2.5221,2.5427,2.5964,2.6707,2.75,2.7886,2.802,2.8529,2.8609,2.8354,2.7546,2.719,2.697,2.578,2.5299,2.5262,2.5441,2.5541,2.5606,2.568,2.5655,2.5559,2.5344,2.5149,2.4981,2.4749,2.4372,2.4059,2.3998,2.345,2.2892,2.2816,2.179,2.0739,2.0254,1.9092,1.7999,1.7453,1.676,1.5689,1.3985,1.3415,1.3034,1.2711,1.1797,1.1047,1.0697,0.9864,0.9088,0.8455,0.7712,0.7393,0.7697,0.7423,0.7706,0.8667,0.8756,0.935,1.0611,1.0967,1.1792,1.311,1.3071,1.3847,1.5299,1.5233,1.5815,1.6896,1.4547,1.346,1.5317,1.5082,1.5082,0.0,0.0,1.7319,1.8573,1.8574,1.8719,1.9921,1.9926,1.9786,1.9816,2.0094,2.0134,1.9584,1.9746,1.9956,2.0014,1.9832,2.0529,2.2517,2.2458,2.274,2.3794,2.3897,2.394,2.3982,2.3982,2.4024,2.4166,2.4166,2.425,2.4457,2.4457,2.4482,2.4549,2.4895,2.5075,2.5059,2.5275,2.554,2.5924,2.6419,2.6838,2.7243,2.7689,2.802,2.8298,2.8652,2.8893,2.8944,2.8371,2.7783,2.7169,2.6492,2.5878,2.5395,2.5479,2.555,2.5618,2.568,2.5654,2.5546,2.5272,2.5149,2.5012,2.4689,2.4442,2.4211,2.4037,2.3649,2.3248,2.2892,2.2334,2.1532,2.0199,1.9563,1.8805,1.7445,1.7035,1.6508,1.5412,1.4765,1.4108,1.3394,1.2368,1.153,1.1023,1.006,0.9208,0.8455,0.7931,0.7675,0.7712,0.7543,0.7852,0.874,0.8901,0.95,1.0677,1.1597,1.2413,1.311,1.3483,1.4237,1.5314,1.5696,1.6037,1.8651,1.6681,1.5536,0.0,1.6623,1.6684,1.8399,1.852,1.8475,1.9195,1.9362,1.9482,1.9878,1.9949,1.9985,2.0227,2.0434,2.0429,2.0067,1.9976,1.9991,2.001,1.9694,2.0244,2.2149,2.2357,2.285,2.3937,2.4082,2.4124,2.4124,2.425,2.4333,2.4374,2.44,2.4482,2.4564,2.4564,2.4695,2.5005,2.5182,2.5449,2.5783,2.5855,2.6214,2.6787,2.7238,2.7613,2.7976,2.828,2.8529,2.8742,2.9034,2.9275,2.9364,2.8721,2.8376,2.8141,2.7496,2.7151,2.6981,2.7004,2.7078,2.7163,2.7166,2.6752,2.6257,2.6059,2.5523,2.493,2.476,2.4493,2.4174,2.3939,2.3628,2.3253,2.2935,2.2419,2.1795,2.0977,2.0369,1.97,1.8867,1.8396,1.7888,1.7222,1.5981,1.4866,1.413,1.3322,1.2345,1.1233,1.0325,0.9563,0.9013,0.8361,0.7997,0.7997,0.8025,0.8267,0.878,0.9222,0.9894,1.0802,1.1726,1.2449,1.2941,1.3835,1.4722,1.5598,1.6231,1.6977,1.9208,0.0,0.0,1.755,1.7781,1.8093,1.8871,1.9167,1.9369,1.9753,1.998,2.0062,2.005,2.0104,2.0189,2.0286,2.071,2.0816,2.0247,2.0294,2.041,2.0411,2.0089,2.0504,2.2026,2.2158,2.2647,2.3773,2.3974,2.4107,2.4276,2.4457,2.4539,2.4539,2.4695,2.4799,2.4839,2.4997,2.5237,2.5603,2.5713,2.5966,2.6386,2.6505,2.6853,2.7412,2.7776,2.8156,2.8572,2.8766,2.8997,2.9212,2.9412,2.9626,2.9769,2.9243,2.8989,2.8881,2.8431,2.8202,2.811,2.8095,2.8188,2.826,2.8198,2.7686,2.7095,2.6958,2.6115,2.5232,2.5125,2.4694,2.4192,2.3878,2.3588,2.3294,2.2977,2.2463,2.1998,2.1705,2.1071,2.0413,2.0019,1.9442,1.886,1.8383,1.7095,1.5866,1.4985,1.408,1.2962,1.1509,1.0705,1.0075,0.9619,0.8867,0.8423,0.8334,0.8586,0.8863,0.9132,0.9949,1.0685,1.13,1.2317,1.2936,1.3095,1.4315,1.5238,1.5907,1.6772,1.7811,0.0,0.0,1.7197,1.7661,1.8323,1.9038,1.9788,1.9955,2.0152,2.084,2.0548,2.0377,2.1017,2.0779,2.0316,1.9703,2.1061,2.1524,1.9775,2.0986,2.1865,2.1409,2.11,2.1375,2.2487,2.1827,2.1938,2.3413,2.3522,2.384,2.4558,2.4589,2.4589,2.4589,2.5028,2.5357,2.5465,2.5928,2.6229,2.6368,2.6707,2.6855,2.6888,2.7276,2.7504,2.7613,2.788,2.836,2.898,2.8989,2.9256,2.9681,2.9697,2.9893,3.0184,3.0164,2.9647,2.9025,2.9195,2.8748,2.8101,2.8099,2.8141,2.8196,2.8126,2.8029,2.7915,2.773,2.6941,2.6119,2.5929,2.5192,2.4375,2.3899,2.3692,2.3455,2.3003,2.2588,2.2231,2.2027,2.143,2.0829,2.0382,1.9803,1.9139,1.8422,1.8028,1.7357,1.6055,1.4468,1.3057,1.191,1.1255,1.0624,1.003,0.9444,0.895,0.8724,0.9159,0.9649,1.0058,1.1276,1.2064,1.233,1.3795,1.4295,1.3882,1.5095,1.5795,1.6118,1.7363,1.8226,1.9586,0.0,1.8183,1.9293,1.9443,1.9425,1.9963,2.008,2.0019,1.989,1.9919,1.9951,1.9935,1.9982,2.0213,2.0722,2.1296,2.15,2.0967,2.1383,2.1729,2.1537,2.1031,2.0996,2.1838,2.192,2.2355,2.3476,2.3577,2.3951,2.4752,2.4895,2.4974,2.5146,2.5556,2.5799,2.5815,2.6158,2.6505,2.679,2.7224,2.756,2.7776,2.7908,2.8192,2.8591,2.8682,2.9005,2.9456,2.9457,2.9642,2.9912,2.9896,3.0061,3.0271,3.0271,3.0182,3.0072,3.0136,3.001,2.9825,2.9837,2.984,2.9845,2.9777,2.9315,2.8778,2.8714,2.7867,2.6982,2.6904,2.6066,2.5115,2.4577,2.3988,2.3387,2.2876,2.2525,2.2231,2.2027,2.146,2.091,2.0663,2.0065,1.9288,1.8372,1.7598,1.6857,1.6136,1.5109,1.4094,1.3226,1.2242,1.154,1.127,1.0132,0.9483,0.9579,0.9774,0.9956,1.0092,1.1577,1.2415,1.2552,1.3674,1.4209,1.4101,1.5308,1.6152,1.6722,1.7978,1.8928,2.0077,1.9598,1.9295,1.9988,2.0064,1.992,1.9839,1.9817,1.9633,1.9038,1.9091,1.9253,1.9333,1.9492,1.9963,2.0918,2.1517,2.1766,2.1619,2.1806,2.2019,2.2149,2.1808,2.1782,2.2449,2.3,2.3349,2.3459,2.392,2.45,2.5303,2.5481,2.5631,2.5758,2.6175,2.6385,2.6385,2.6774,2.7144,2.7507,2.7754,2.8037,2.8376,2.8298,2.8578,2.9086,2.9086,2.9319,2.9696,2.9731,2.969,2.9645,2.9669,2.9601,2.9516,2.9504,2.9598,2.981,3.0458,3.0677,3.0696,3.0702,3.0674,3.0589,3.0211,2.9659,2.9081,2.8717,2.7835,2.6948,2.687,2.603,2.504,2.4498,2.3925,2.3412,2.3154,2.2696,2.24,2.2552,2.187,2.1276,2.1166,2.0379,1.9406,1.8347,1.7557,1.6866,1.6244,1.5688,1.5017,1.4143,1.3226,1.2511,1.2197,1.0888,1.0212,1.0499,1.0525,1.0587,1.0822,1.2193,1.2918,1.2874,1.3993,1.4511,1.4385,1.5629,1.653,1.7048,1.8004,1.8864,1.941,1.9736,2.0517,1.9875,2.0289,2.0605,1.9605,1.9352,1.9119,1.833,1.8238,1.8469,0.0,0.0,1.9713,2.0371,2.1639,2.2332,2.1757,2.2227,2.2781,0.0,0.0,0.0,0.0,2.4861,2.4797,2.3547,2.4546,2.548,2.6179,2.6368,2.6437,2.6437,2.6906,2.71,2.7066,2.7613,2.8031,2.8294,2.8165,2.8278,2.8596,2.8402,2.8567,2.8997,2.9018,2.9229,2.9599,2.9668,2.9413,2.8952,2.9071,2.8724,2.8165,2.8223,2.8246,2.847,3.0152,3.0659,3.0565,3.0564,3.051,3.0294,2.9399,2.9085,2.8829,2.7867,2.6955,2.6228,2.6007,2.52,2.4321,2.3789,2.358,2.3513,2.37,2.3076,2.272,2.342,2.2589,2.1768,2.1771,2.0731,1.9522,1.8453,1.8029,1.7449,1.6484,1.6213,1.5708,1.4641,1.4097,1.3484,1.2716,1.1642,1.1141,1.1416,1.1342,1.151,1.2076,1.3084,1.3515,1.342,1.4698,1.5107,1.4698,1.5996,1.6769,1.7066,1.7409,1.8054,2.0935,2.1201,2.1404,2.1387,2.154,2.1417,2.0356,2.0013,1.951,1.8171,1.8622,1.8967,0.0,0.0,0.0,2.0241,2.118,0.0,2.2297,2.2704,0.0,2.4359,0.0,2.4312,2.4928,2.5501,2.5692,2.5425,2.5309,2.5665,2.6539,2.6707,2.6839,2.7004,2.7413,2.7332,2.6737,2.6579,2.6603,2.6758,2.6729,2.6891,2.7214,2.7151,2.7335,2.7698,2.7785,2.7948,2.8155,2.8262,2.8291,2.8328,2.8994,2.9171,2.9142,2.9791,3.0072,3.0089,2.99,2.9352,2.8748,2.871,2.8674,2.862,2.8319,2.823,2.8118,2.7713,2.7361,2.7051,2.6843,2.5913,2.4913,2.4496,2.3809,2.3161,2.3015,2.2716,2.2566,2.2754,2.2045,2.147,2.1559,2.0426,1.9568,1.9623,1.8888,1.7948,1.6934,1.6386,1.5852,1.5164,1.4329,1.3637,1.3218,1.2316,1.1832,1.199,1.195,1.2008,1.2076,1.3084,1.3515,1.342,1.4118,1.4628,1.4858,1.5433,1.6051,1.6667,1.7271,1.7639,2.2096,2.2177,2.2208,2.2194,2.1894,2.1306,2.0188,1.9906,1.9426,1.7866,1.8611,0.0,1.8008,1.9486,2.0766,0.0,0.0,0.0,2.3222,2.3462,2.4005,0.0,2.5152,0.0,2.5867,2.6502,2.6918,2.7016,2.6675,2.673,2.7272,2.7482,2.7613,2.7736,2.8047,2.8022,2.7607,2.7031,2.6859,2.7098,2.6973,2.6979,2.7025,2.7326,2.7414,2.7396,2.7827,2.7897,2.7719,2.8172,2.8241,2.8128,2.8993,2.9143,2.8929,2.9416,2.9624,2.9584,2.9078,2.8517,2.8045,2.8016,2.8244,2.8376,2.7576,2.7603,2.7684,2.6702,2.6355,2.6212,2.5959,2.5338,2.4655,2.4257,2.3684,2.3203,2.3188,2.2819,2.2432,2.2231,2.1705,2.1263,2.1114,2.0435,1.9837,1.9704,1.9166,1.8422,1.7475,1.7034,1.6587,1.6027,1.5231,1.4606,1.4165,1.3188,1.2754,1.3064,1.2579,1.2344,1.2529,1.3055,1.3296,1.319,1.3668,1.4082,1.4351,1.4949,1.5579,1.6139,1.6655,1.7076,2.3031,2.2948,2.2954,2.2626,2.1919,2.0977,1.9837,1.9579,1.9186,1.7688,0.0,1.9197,1.8385,1.9548,2.0627,2.0627,0.0,2.3147,2.4017,2.4312,2.4774,2.5771,2.6126,2.6464,2.6859,2.7589,2.8091,2.8255,2.8084,2.8012,2.8136,2.8244,2.8345,2.8478,2.8561,2.8672,2.8809,2.8015,2.7721,2.7923,2.7732,2.7456,2.7115,2.7689,2.7763,2.7491,2.8192,2.8229,2.7871,2.8653,2.8627,2.8187,2.9059,2.8972,2.8393,2.8509,2.8531,2.8521,2.8329,2.8216,2.8139,2.8023,2.8473,2.875,2.7227,2.7283,2.7497,2.5722,2.5163,2.5028,2.4779,2.4598,2.435,2.3911,2.3664,2.356,2.3742,2.3083,2.2304,2.1886,2.1493,2.1151,2.0774,2.0577,2.0204,1.9509,1.922,1.8822,1.8068,1.7787,1.7449,1.6786,1.6269,1.5768,1.5153,1.4143,1.3721,1.4176,1.315,1.2735,1.3123,1.3075,1.3036,1.2929,1.3296,1.3525,1.3621,1.4501,1.5165,1.556,1.5909,1.6517,2.3823,2.3873,2.3735,2.3459,2.2781,2.1953,2.1075,2.0241,0.0,0.0,1.875,1.8898,1.8065,1.9209,2.0296,2.0296,2.1282,2.2531,2.3704,2.4781,2.5655,0.0,2.7219,2.785,2.7923,2.8174,2.8412,2.8594,2.8082,2.7925,2.8324,2.8003,2.8182,2.8956,2.843,2.8183,2.8309,2.7511,2.6895,2.6446,2.6431,2.6096,2.5504,2.5626,2.6006,2.6611,2.6862,2.7316,2.7904,2.817,2.819,2.8193,2.9059,2.9355,2.9354,3.0076,3.0305,3.0161,2.9427,2.9094,2.8867,2.8155,2.8018,2.8074,2.7775,2.7658,2.7542,2.7024,2.6761,2.6559,2.6354,2.6112,2.5837,2.5488,2.4768,2.4067,2.3781,2.2824,2.1957,2.1827,2.1293,2.0985,2.1349,2.0678,2.0208,2.0482,1.97,1.9064,1.8898,1.8187,1.7325,1.633,1.6095,1.5768,1.5153,1.4547,1.4222,1.4222,1.36,1.3218,1.317,1.3113,1.3085,1.3085,1.3027,1.32,1.3621,1.3905,1.4464,1.5255,1.5457,1.6102,2.4473,2.4282,2.4022,2.3883,2.2892,2.1799,2.1306,0.0,0.0,0.0,1.9454,1.9791,1.8592,1.9938,0.0,2.0815,2.1874,2.3124,2.4233,2.529,2.6193,2.6835,2.7745,2.836,2.854,2.8558,2.8494,2.8306,2.808,2.8209,2.8735,2.8647,2.8841,2.9395,2.8708,2.8558,2.9077,2.8334,2.7816,2.7548,2.7548,2.7216,2.6563,2.7024,2.7258,2.7305,2.7823,2.8034,2.8041,2.8564,2.8794,2.8918,2.9786,3.0136,3.0171,3.0593,3.0681,3.0547,3.0122,2.991,2.9764,2.9344,2.889,2.8437,2.7908,2.7988,2.8131,2.7355,2.7076,2.6935,2.6757,2.6573,2.634,2.59,2.5183,2.44,2.3573,2.3042,2.2555,2.1908,2.1684,2.1626,2.1827,2.1167,2.0682,2.0931,1.9947,1.9151,1.8899,1.822,1.7503,1.6896,1.6625,1.6306,1.5856,1.5187,1.4743,1.4686,1.3941,1.342,1.3314,1.3045,1.3115,1.3491,1.3253,1.3461,1.4124,1.4164,1.4457,1.4908,1.5322,1.5803,2.4929,2.4595,2.4261,2.4061,2.2846,2.164,2.1462,2.0785,0.0,0.0,2.0119,2.0463,1.945,0.0,2.155,0.0,2.2445,2.3451,2.4534,2.5459,2.6304,0.0,2.7852,0.0,2.8911,2.8902,2.8709,2.8281,2.8425,2.8689,2.8975,2.9322,2.9589,2.9792,2.9236,2.9257,2.9954,2.9398,2.9053,2.8933,2.8933,2.8596,2.7969,2.8644,2.8753,2.845,2.9118,2.9143,2.8738,2.9422,2.9711,2.9837,3.0508,3.0733,3.068,3.0687,3.06,3.0501,3.0501,3.0471,3.0398,3.0355,2.9906,2.9214,2.8396,2.8578,2.8893,2.7805,2.7494,2.7418,2.7232,2.7105,2.6836,2.6111,2.5436,2.4679,2.3533,2.3309,2.3098,2.2188,2.2175,2.2286,2.2156,2.1699,2.13,2.1152,2.0185,1.9378,1.8956,1.838,1.7973,1.7818,1.7375,1.6918,1.6436,1.5837,1.5337,1.5085,1.4328,1.3862,1.3764,1.3323,1.3331,1.3921,1.3572,1.3747,1.445,1.4588,1.4682,1.4826,1.5363,1.5678,2.516,2.5037,2.472,2.3929,2.3025,2.2305,2.2224,0.0,0.0,2.0685,2.0243,1.9894,2.0372,0.0,0.0,0.0,0.0,2.2206,2.3755,2.4805,2.5672,2.6481,0.0,0.0,2.9008,2.9297,2.94,2.9363,2.9603,2.9425,2.868,2.9408,2.9921,3.0064,3.0003,3.0042,3.0171,3.0113,2.9747,2.908,2.908,2.8733,2.8073,2.8157,2.8622,2.9377,2.9461,2.9882,3.0565,3.0642,3.0643,3.0591,3.068,3.0672,3.0614,3.0607,3.0568,3.0501,3.0501,3.0471,3.0367,3.0182,3.0196,3.0232,2.9958,2.9836,2.972,2.9308,2.9091,2.8956,2.8823,2.8596,2.8059,2.67,2.5798,2.5028,2.4097,2.3367,2.2833,2.2749,2.2502,2.2286,2.2286,2.2095,2.1768,2.1259,2.0625,2.006,1.9564,1.911,1.8754,1.8702,1.8176,1.7326,1.6169,1.6409,1.617,1.5088,1.493,1.4873,1.4873,1.4278,1.4033,1.4072,1.3912,1.3878,1.397,1.4503,1.4981,1.5444,1.5618,1.597,2.512,2.516,2.4846,2.3972,2.346,2.3056,2.2545,0.0,2.0777,2.1062,2.0406,1.9863,2.0075,2.0088,0.0,0.0,0.0,0.0,2.3486,2.4849,2.5869,2.6116,2.7287,2.846,2.9419,2.9514,2.9607,2.9834,2.9103,2.8912,2.9587,2.9884,3.006,3.0169,3.019,3.0247,3.0321,3.0405,3.0311,3.0049,3.0094,2.9971,2.9721,2.9721,2.9923,3.0281,3.0286,3.0486,3.0799,3.0751,3.0729,3.0693,3.0661,3.0593,3.0535,3.0535,3.0492,3.0439,3.0439,3.034,3.0196,3.0122,3.0066,2.9992,2.9796,2.9695,2.9588,2.9314,2.9181,2.9089,2.8815,2.8404,2.7911,2.7309,2.6747,2.5982,2.4746,2.4441,2.4143,2.3257,2.3343,2.3502,2.3437,2.2832,2.2207,2.1931,2.0775,1.9946,1.9728,1.9225,1.8911,1.8878,1.8591,1.8099,1.7251,1.6955,1.647,1.5781,1.5256,1.4892,1.4566,1.4131,1.3988,1.4191,1.3914,1.4035,1.4506,1.4733,1.4943,1.5166,1.5519,1.578,2.4841,2.4946,2.4591,2.3466,2.332,2.3223,0.0,2.1722,2.1292,2.1252,2.0582,2.0047,2.021,2.0377,2.0961,0.0,0.0,2.2994,2.378,2.4804,2.5603,2.6008,2.7198,2.8401,2.9431,2.9664,2.9858,3.0169,2.9183,2.9098,3.0317,3.0298,3.0271,3.0314,3.0353,3.0414,3.0485,3.0607,3.0682,3.0724,3.0771,3.0801,3.0801,3.0808,3.079,3.0792,3.0781,3.0775,3.0772,3.07,3.0656,3.0633,3.0579,3.0527,3.0472,3.0472,3.0398,3.0311,3.0311,3.0182,3.0037,2.9973,2.9848,2.9661,2.9475,2.9437,2.9418,2.916,2.9021,2.8863,2.843,2.8027,2.7672,2.7522,2.7166,2.6506,2.5283,2.5146,2.4978,2.3832,2.3979,2.4276,2.4124,2.3334,2.2634,2.2282,2.1138,2.0289,2.0096,1.9682,1.9373,1.9219,1.9184,1.877,1.7906,1.7367,1.6786,1.6033,1.5478,1.4968,1.4521,1.4071,1.3989,1.4287,1.3999,1.4194,1.4893,1.4893,1.4951,1.5137,1.5371,1.5604,2.4321,2.4305,2.3881,2.2172,2.2277,2.2588,2.1707,2.1493,2.1493,2.1407,2.0764,2.0427,2.1148,2.0574,2.0839,0.0,0.0,0.0,2.474,2.4419,2.4545,2.6197,2.7052,2.7872,2.883,2.9747,3.0317,3.0402,3.0383,3.0443,3.0594,3.0601,3.0605,3.0595,3.0605,3.0625,3.0701,3.0765,3.0799,3.0799,3.0801,3.0801,3.0801,3.0799,3.0801,3.0801,3.0726,3.0691,3.0706,3.0626,3.0568,3.0501,3.0501,3.0451,3.041,3.041,3.0267,3.0089,3.0089,3.0007,2.9869,2.9681,2.957,2.9456,2.9267,2.9293,2.9358,2.916,2.8863,2.8474,2.7858,2.7683,2.7582,2.7137,2.6708,2.6227,2.5598,2.5198,2.4784,2.4369,2.4302,2.4177,2.3882,2.3551,2.3054,2.2123,2.1746,2.1361,2.0785,2.0686,2.0523,2.0029,1.9978,1.9271,1.7545,1.7728,1.717,1.5505,1.5585,1.5478,1.4942,1.441,1.4181,1.4181,1.4189,1.4419,1.4893,1.4893,1.5186,1.5672,1.5128,1.5362,2.5035,2.5196,2.49,2.3755,2.4107,2.4326,2.2853,2.2523,2.2357,2.1727,2.0882,2.0332,2.0502,2.0286,2.0718,2.2668,0.0,0.0,0.0,0.0,2.5938,2.6422,2.8207,2.9524,2.9817,3.025,3.051,3.0545,3.008,3.0053,3.0696,3.0173,3.0127,3.0715,3.0747,3.0758,3.0765,3.0792,3.0799,3.0799,3.08,3.0798,3.0798,3.074,3.0729,3.0726,3.0667,3.0626,3.0626,3.0568,3.0528,3.0492,3.046,3.0414,3.0379,3.0254,3.015,3.0095,2.9992,2.9834,2.9681,2.957,2.9416,2.9228,2.8957,2.8892,2.8855,2.8496,2.8201,2.7943,2.776,2.7569,2.7341,2.694,2.6624,2.6227,2.5556,2.5137,2.4799,2.4385,2.4135,2.3909,2.3839,2.3143,2.2512,2.2077,2.1568,2.1082,2.0749,2.0699,2.0536,2.0042,1.9759,1.9273,1.8414,1.8135,1.7654,1.6684,1.6146,1.5536,1.4951,1.4428,1.4061,1.3752,1.37,1.3812,1.3932,1.424,1.4715,1.5362,1.5177,1.5294,0.0,2.511,2.4892,2.4035,2.4219,2.4255,2.2867,2.2533,2.2266,2.1422,2.0774,2.0357,2.0313,2.027,2.0701,2.204,2.2075,0.0,0.0,2.5052,2.6202,2.745,2.9024,3.0098,3.0382,3.0562,3.0682,3.0682,3.0258,3.0222,3.0774,3.0287,3.0231,3.078,3.0796,3.0793,3.0793,3.0801,3.0796,3.0751,3.0755,3.0758,3.0724,3.0672,3.0656,3.0656,3.0586,3.0568,0.0,3.0482,3.0462,3.0451,3.0328,3.0299,3.0273,3.008,2.9992,2.9896,2.9817,2.9644,2.9474,2.9454,2.9249,2.8934,2.8456,2.8378,2.8404,2.8065,2.7829,2.7672,2.7569,2.7293,2.694,2.6691,2.6367,2.5977,2.5329,2.5059,2.4799,2.4385,2.4051,2.3739,2.3566,2.2875,2.2235,2.1746,2.1326,2.0934,2.0485,2.0435,2.022,1.9592,1.9303,1.8999,1.8583,1.8182,1.7678,1.7067,1.6265,1.5459,1.4775,1.4369,1.3941,1.3511,1.3571,1.364,1.3761,1.407,1.43,1.4579,1.4991,1.5284,0.0,2.4246,2.4097,2.3217,2.299,2.2793,2.1975,2.1752,0.0,2.0667,2.0506,2.0525,2.0584,2.0586,2.0879,2.174,2.126,2.1646,2.4141,2.4589,2.5873,2.9113,2.9545,2.986,3.0552,3.0732,3.0804,3.0804,3.0806,3.0793,3.0801,3.08,3.0797,3.0799,3.0795,3.0781,3.0781,3.0788,3.0742,3.0687,3.0687,3.0656,3.0593,3.0605,3.0586,3.0579,3.0509,3.0492,3.0501,3.0406,3.0367,3.0355,3.0169,3.0095,3.008,2.9915,2.9769,2.9589,2.9589,2.9453,2.9302,2.928,2.8998,2.8525,2.7886,2.7869,2.802,2.7742,2.7672,2.763,2.7345,2.6891,2.6471,2.6383,2.5977,2.5535,2.4981,2.4863,2.4759,2.4385,2.4009,2.361,2.3172,2.2754,2.2189,2.1313,2.118,2.0921,2.0144,1.9991,1.9695,1.8958,1.8798,1.8637,1.8139,1.7877,1.7468,1.6832,1.6073,1.5264,1.4529,1.4181,1.3821,1.3571,1.37,1.395,1.4189,1.4189,1.3941,1.3571,1.4638,1.5245,2.345,0.0,2.4081,2.3218,2.2993,2.2784,0.0,2.1789,2.1522,0.0,0.0,0.0,2.1362,2.1481,2.1973,2.3456,2.3573,2.4139,2.6015,2.7442,2.8828,3.0306,3.0487,3.0565,3.0735,3.0774,3.08,3.08,3.08,3.0793,3.081,3.0746,3.0728,3.0724,3.0667,3.0672,3.0719,3.0672,3.0633,3.062,3.062,3.0614,3.0593,3.0552,3.0518,3.0528,3.0441,3.0425,3.0414,3.0235,3.0182,3.0169,3.0011,2.995,2.9915,2.9732,2.9607,2.9514,2.9412,2.9326,2.9178,2.891,2.8558,2.8156,2.78,2.7742,2.7742,2.7465,2.739,2.7327,2.7006,2.6791,2.6505,2.5977,2.5572,2.5192,2.4775,2.4533,2.441,2.4302,2.3824,2.3348,2.3127,2.2526,2.1935,2.1277,2.118,2.1033,2.0586,2.0207,1.9798,1.9316,1.8958,1.8637,1.8139,1.7975,1.7567,1.6821,1.6197,1.5459,1.4706,1.424,1.3941,1.3881,1.395,1.401,1.407,1.407,1.407,1.4139,1.4378,1.4722,2.2589,2.3223,2.4154,2.3713,2.3295,2.2892,2.245,0.0,0.0,0.0,0.0,0.0,0.0,0.0,2.2296,2.3971,2.4287,2.5053,2.7206,2.8672,2.9844,3.0662,3.076,3.0739,3.071,3.0718,3.0707,3.07,3.072,3.0682,3.0658,3.0639,3.0601,3.0613,3.054,3.0568,3.065,3.0614,3.0579,3.056,3.056,3.0535,3.051,3.0381,3.0325,3.0306,3.0209,3.0161,3.0161,3.0037,3.0007,2.9992,2.9817,2.9769,2.9751,2.9532,2.9434,2.9394,2.9286,2.9134,2.8887,2.8404,2.8093,2.7869,2.76,2.7526,2.7496,2.7345,2.7299,2.7218,2.6891,2.6607,2.6297,2.5742,2.5269,2.4855,2.4605,2.4426,2.4261,2.4094,2.3668,2.3187,2.2859,2.2356,2.1793,2.118,2.118,2.0934,2.0195,1.9862,1.9587,1.9215,1.8767,1.8553,1.8804,1.8216,1.7676,1.7198,1.6399,1.5791,1.5388,1.4967,1.4728,1.4666,1.4604,1.4453,1.4267,1.4267,1.4248,1.4148,1.462,1.5177,2.2062,2.2929,2.4138,2.3915,2.3423,2.2976,2.2982,0.0,0.0,0.0,0.0,0.0,0.0,2.2285,0.0,2.4529,2.4902,2.578,2.8045,2.9179,2.9978,3.0604,3.0677,3.0661,3.06,3.0593,3.0605,3.0603,3.0603,3.0576,3.0502,3.0485,3.0477,3.0477,3.0414,3.0414,3.0513,3.0548,3.0535,3.0472,3.0462,3.04,3.0355,3.0155,3.008,3.0066,2.9965,2.9902,2.9886,2.9869,2.9853,2.9817,2.9644,2.9551,2.9532,2.9307,2.9218,2.9197,2.9071,2.8936,2.868,2.8063,2.7947,2.7992,2.7705,2.7594,2.7562,2.7562,2.7476,2.7308,2.6995,2.6601,2.6237,2.5826,2.5314,2.4875,2.4808,2.459,2.4288,2.4033,2.3554,2.3023,2.2637,2.224,2.1815,2.1435,2.1332,2.0943,2.001,1.9772,1.9516,1.9237,1.8677,1.8736,1.962,1.8611,1.7841,1.7728,1.6709,1.6123,1.6109,1.5882,1.5624,1.556,1.5375,1.5076,1.4791,1.4791,1.4568,1.4257,1.5124,1.5813,2.2466,2.3349,2.3771,2.2296,2.2373,2.2852,2.2893,0.0,0.0,0.0,0.0,0.0,0.0,2.4923,2.5486,2.7213,2.8074,2.867,2.9072,2.9901,3.0484,3.0594,3.0614,3.0607,3.0593,3.0593,3.0605,3.0603,3.0603,3.0576,3.0502,3.0453,3.0422,3.0414,3.0309,3.0196,3.0084,3.0266,3.0344,3.0321,3.0216,3.0163,3.0136,3.0011,2.9934,2.9934,2.9902,2.9869,2.9801,2.968,2.9607,2.9551,2.9453,2.9388,2.9307,2.8989,2.8827,2.8743,2.8386,2.8685,2.9137,2.877,2.9074,2.9572,2.9262,2.8973,2.8747,2.8747,2.8304,2.7742,2.7463,2.7382,2.7276,2.6882,2.6491,2.6174,2.6101,2.536,2.4714,2.467,2.3569,2.2775,2.3255,2.2379,2.1958,2.2807,2.2304,2.1849,2.2074,2.1327,2.0753,2.0669,1.9947,1.9516,1.9677,1.8933,1.8366,1.8176,1.7103,1.6316,1.5817,1.5753,1.5689,1.5689,1.5624,1.5597,1.5533,1.5533,1.5496,1.5442,1.5633,1.591,2.212,2.2735,2.3321,2.2985,2.3889,2.4745,2.43,0.0,0.0,0.0,0.0,0.0,0.0,2.6078,2.6646,2.8347,2.9386,2.9954,2.9954,3.0312,3.0598,3.0552,3.0554,3.0528,3.0434,3.0433,3.0413,3.0381,3.0381,3.037,3.0348,3.0203,3.0142,3.0136,2.9962,2.9851,2.9784,2.9915,2.9977,2.9973,2.9912,2.9877,2.988,2.9713,2.9625,2.9625,2.9589,2.9551,2.9513,2.9472,2.9433,2.9392,2.9307,2.916,2.8943,2.8597,2.8709,2.8973,2.8603,2.9018,2.9629,2.9283,2.9429,2.9709,2.954,2.9386,2.9229,2.9051,2.867,2.8199,2.7886,2.7787,2.7632,2.7216,2.6863,2.6499,2.6214,2.5682,2.5167,2.4749,2.4138,2.364,2.3533,2.3053,2.2766,2.3067,2.2722,2.2273,2.1902,2.1344,2.0913,2.0677,2.0075,1.9907,2.0446,1.9532,1.8585,1.7715,1.711,1.6607,1.6349,1.6349,1.6349,1.6349,1.6349,1.6239,1.6028,1.6347,1.6225,1.5689,1.6548,1.6963,2.2177,2.2601,2.3321,2.4168,0.0,2.6168,2.5657,0.0,0.0,0.0,0.0,0.0,0.0,2.7289,2.7835,2.9078,2.989,3.037,3.037,3.0394,3.0395,3.0351,3.0325,3.0266,3.0163,3.0174,3.0133,3.009,3.0071,3.0075,3.0064,2.9905,2.9839,2.9839,2.9681,2.9589,2.9532,2.9589,2.9626,2.9677,2.9642,2.9643,2.9606,2.9437,2.9338,2.9357,2.9307,2.928,2.924,2.9178,2.9156,2.9152,2.9026,2.8785,2.8471,2.838,2.8667,2.9089,2.8973,2.9505,3.0103,2.9851,2.9903,3.0041,2.9971,2.9883,2.9723,2.9414,2.9092,2.8804,2.8448,2.8209,2.8023,2.7726,2.7277,2.6842,2.6441,2.5961,2.5461,2.4889,2.4526,2.4219,2.3848,2.3647,2.3505,2.3513,2.3259,2.2734,2.18,2.1418,2.1086,2.0598,2.0035,1.9998,2.0745,1.9854,1.8754,1.7595,1.7214,1.7038,1.6908,1.6908,1.6908,1.6908,1.6908,1.6762,1.6459,1.6844,1.6675,1.5982,1.7268,1.7885,2.3494,2.3956,2.4206,2.5005,2.5303,0.0,2.6101,2.6218,0.0,2.702,0.0,0.0,0.0,2.9339,2.9851,2.9836,2.9912,2.9931,2.9931,2.988,2.9864,2.9848,2.9799,2.9746,2.9729,2.9748,2.975,2.9734,2.9753,2.9698,2.9644,2.9626,2.9626,2.9626,2.9608,2.9513,2.9314,2.9334,2.9418,2.9605,2.9495,2.9418,2.9418,2.927,2.9222,2.9222,2.92,2.9156,2.9089,2.8855,2.8737,2.8718,2.8446,2.8156,2.7946,2.8534,2.8652,2.8555,2.9212,2.9972,3.0645,3.061,3.1076,3.1591,3.1257,3.097,3.0637,3.0311,3.0009,2.968,2.9231,2.9076,2.9025,2.8979,2.8323,2.7705,2.764,2.6482,2.5386,2.5349,2.4329,2.3667,2.4336,2.3753,2.3661,2.4873,2.4353,2.3617,2.3046,2.2394,2.1768,2.1104,2.0263,1.9641,1.9568,1.9404,1.9134,1.868,1.8002,1.7442,1.6908,1.6908,1.6908,1.6908,1.6908,1.689,1.6862,1.6932,1.6844,1.6817,1.7453,1.7794,2.3109,2.3602,2.4115,2.4957,0.0,0.0,0.0,2.8237,2.9364,2.9604,3.0061,0.0,0.0,3.0114,2.9946,2.9902,2.9902,2.9902,2.9902,2.9834,2.9801,2.9801,2.9695,2.9642,2.9716,2.9662,2.9626,2.9644,2.9644,2.9626,2.9608,2.9494,2.9415,2.9415,2.9291,2.9203,2.9115,2.9115,2.9141,2.923,2.9185,2.9163,2.9163,2.9112,2.8998,2.8839,2.8863,2.8749,2.854,2.842,2.8394,2.836,2.8065,2.8141,2.8438,2.8537,2.9072,2.9868,3.0144,3.0623,3.1093,3.1093,3.1113,3.1162,3.1044,3.0885,3.0707,3.0377,3.0156,2.9892,2.9486,2.9233,2.9075,2.8889,2.851,2.8039,2.7509,2.6828,2.6188,2.5689,2.5105,2.475,2.4915,2.4641,2.4477,2.4504,2.3928,2.3204,2.2339,2.1612,2.0979,2.0405,1.997,1.9688,1.9618,1.9467,1.9315,1.9113,1.8654,1.824,1.791,1.7569,1.7373,1.7373,1.7038,1.6908,1.6908,1.7569,1.7569,1.6908,1.8462,1.8921,2.2815,2.3381,2.429,0.0,0.0,0.0,2.8082,2.9474,3.0769,3.1224,3.16,3.1656,3.1054,3.0316,2.9786,2.9753,2.9753,2.9716,2.9698,2.9662,2.9607,2.9589,2.9476,2.9437,2.9474,2.9435,2.9415,2.9415,2.9415,2.9415,2.9415,2.9291,2.9185,2.9079,2.8957,2.8815,2.8725,2.8725,2.8725,2.8725,2.8725,2.8767,2.8881,2.8749,2.8626,2.8456,2.8482,2.836,2.8156,2.8093,2.7982,2.7886,2.7672,2.8023,2.869,2.8743,2.9506,3.057,3.0793,3.1001,3.1123,3.1123,3.1004,3.0788,3.0666,3.0625,3.0601,3.0267,3.0027,2.9766,2.947,2.9152,2.8936,2.8732,2.8365,2.7825,2.7225,2.6759,2.6297,2.5729,2.5481,2.5313,2.5174,2.4968,2.4695,2.4191,2.362,2.285,2.161,2.0983,2.0306,1.9425,1.9391,1.9378,1.9218,1.9205,1.9197,1.91,1.8997,1.8864,1.869,1.824,1.8037,1.8037,1.7442,1.7176,1.7176,1.7706,1.7706,1.7176,1.8854,1.9386,2.2842,2.3625,2.4898,0.0,0.0,0.0,2.9233,2.9626,3.0036,3.1511,3.1285,3.0787,3.0637,3.0073,2.9551,2.9409,2.9407,2.9386,2.9302,2.924,2.9156,2.9108,2.904,2.8994,2.8994,2.8994,2.8994,2.8994,2.8994,2.8994,2.8994,2.8994,2.8881,2.8601,2.8601,2.843,2.8084,2.8102,2.8102,2.8102,2.8102,2.8281,2.8576,2.8255,2.8102,2.8102,2.8102,2.8084,2.8075,2.78,2.7539,2.7299,2.7299,2.7764,2.8489,2.9248,2.9778,3.0326,3.104,3.1083,3.0804,3.0804,3.0788,3.0707,3.0393,3.0309,3.0225,2.9973,2.971,2.9441,2.9167,2.8889,2.8685,2.8685,2.7879,2.7122,2.7071,2.6258,2.5494,2.5494,2.5244,2.4991,2.5005,2.4503,2.4109,2.4109,2.3554,2.2631,2.1089,2.0787,2.0027,1.8294,1.8586,1.869,1.813,1.8598,1.8828,1.86,1.9122,1.9276,1.8992,1.889,1.8824,1.8824,1.8104,1.7706,1.7706,1.7166,1.7176,1.7706,1.824,1.8977,2.2691,2.3526,0.0,2.5437,0.0,0.0,0.0,3.1145,0.0,0.0,3.2869,3.2169,3.1563,3.0825,3.0102,2.95,2.9365,2.9323,2.9302,2.9197,2.9112,2.9089,2.8863,2.8718,2.8718,2.8507,2.836,2.836,2.836,2.836,2.836,2.836,2.8334,2.8255,2.8255,2.8183,2.8102,2.8102,2.8102,2.8102,2.7897,2.7982,2.8237,2.8156,2.7992,2.7829,2.7829,2.7713,2.7509,2.7434,2.7376,2.7319,2.7604,2.8186,2.8884,2.9431,3.0044,3.0622,3.0881,3.0707,3.046,3.046,3.0326,3.0146,3.006,3.0017,3.0017,2.9902,2.9592,2.9213,2.9121,2.8811,2.8429,2.8122,2.7825,2.7408,2.6707,2.6229,2.577,2.5355,2.4791,2.4517,2.4937,2.4177,2.3446,2.3446,2.2722,2.1538,1.9915,1.9682,1.925,1.8205,1.8221,1.8244,1.8096,1.8221,1.8462,1.8817,1.8977,1.905,1.9069,1.903,1.9009,1.9009,1.867,1.8499,1.8499,1.8576,1.8499,1.8307,1.932,1.9791,2.3376,2.4342,0.0,2.656,2.8462,3.0504,3.1949,0.0,0.0,0.0,3.3305,3.2335,3.1765,3.0765,2.9795,2.9149,2.9007,2.8962,2.885,2.8779,2.8731,2.8707,2.8515,2.8404,2.8404,2.821,2.8102,2.8102,2.8102,2.8102,2.8102,2.8102,2.8047,2.7936,2.7954,2.7897,2.7771,2.7771,2.7771,2.7771,2.763,2.763,2.7771,2.7771,2.7701,2.7539,2.7539,2.7452,2.7299,2.7299,2.7471,2.7764,2.7997,2.8663,2.9525,2.9796,3.0185,3.0584,3.0584,3.0393,3.0113,3.0113,3.0017,2.9918,2.9918,2.9918,2.9918,2.9918,2.9502,2.9075,2.9075,2.8763,2.8299,2.789,2.7625,2.724,2.6443,2.6014,2.5577,2.497,2.4422,2.4164,2.4272,2.3499,2.2861,2.2861,2.1836,2.0669,1.9445,1.9081,1.8774,1.8247,1.8322,1.8437,1.8437,1.8632,1.8793,1.8885,1.8896,1.8908,1.903,1.9144,1.9214,1.9214,1.9041,1.8885,1.8895,1.9083,1.91,1.9034,1.9791,2.0183,2.4385,0.0,0.0,2.7881,2.8812,0.0,3.2428,3.3542,3.408,3.4154,3.3003,3.1899,3.1544,3.0281,2.9122,2.859,2.8504,2.8428,2.8237,2.8183,2.8156,2.8102,2.8075,2.8075,2.8075,2.8047,2.802,2.802,2.802,2.802,2.802,2.802,2.7926,2.7672,2.7672,2.7539,2.7282,2.7299,2.7299,2.7299,2.7299,2.7299,2.7299,2.7299,2.7299,2.7299,2.7299,2.7282,2.725,2.725,2.7648,2.8336,2.8372,2.9091,3.0095,3.0163,3.0195,3.0267,3.0267,3.0087,2.9918,2.9918,2.9918,2.9918,2.9918,2.9918,2.9918,2.9918,2.9502,2.9075,2.9075,2.8716,2.825,2.779,2.7291,2.6782,2.6265,2.5617,2.4914,2.4313,2.4055,2.3797,2.327,2.2671,2.2264,2.2373,2.1312,2.036,1.98,1.9257,1.8814,1.8573,1.8813,1.8965,1.8965,1.9413,1.9482,1.9,1.8965,1.8965,1.8965,1.9285,1.9429,1.9474,1.9324,1.9252,1.9252,1.9165,1.9375,1.9911,1.9901,2.0237,2.3665,2.5151,0.0,0.0,2.924,3.0776,3.2391,3.2896,3.3216,3.3843,3.3696,3.2992,3.1539,3.0976,3.025,2.8746,2.8489,2.843,2.8228,2.8156,2.8129,2.8102,2.7926,2.78,2.78,2.76,2.7465,2.7465,2.7465,2.7465,2.7465,2.7465,2.7452,2.7407,2.7407,2.7376,2.7299,2.7299,2.7299,2.7299,2.7299,2.7299,2.7299,2.7299,2.7299,2.7299,2.7299,2.7137,2.6908,2.6908,2.7216,2.7734,2.8031,2.8699,2.9483,2.9831,2.9972,2.9989,2.9989,2.9946,2.9918,2.9918,2.9918,2.9918,2.9918,2.9918,2.9918,2.9918,2.9502,2.9029,2.8716,2.8253,2.7725,2.693,2.6864,2.6562,2.5261,2.4735,2.43,2.3593,2.3024,2.2807,2.3121,2.2332,2.1939,2.2837,2.3164,2.2935,2.2038,2.1688,2.1015,1.9726,1.9564,1.9516,1.9516,1.9631,1.9643,1.9528,1.9516,1.9516,1.9516,1.962,1.9801,2.0179,2.0421,2.0531,2.0531,2.0398,2.0399,2.0529,2.0646,2.0764,2.3719,0.0,0.0,2.9262,0.0,3.128,3.279,3.2818,3.2737,3.3432,3.3342,3.2729,3.1311,3.0659,2.9864,2.8353,2.8055,2.7961,2.7789,2.776,2.773,2.773,2.76,2.7496,2.7496,2.739,2.725,2.7055,2.7055,2.699,2.6892,2.699,2.7055,2.7055,2.7218,2.7299,2.7299,2.7137,2.7055,2.7055,2.6925,2.6859,2.6892,2.699,2.699,2.6876,2.7233,2.7318,2.7146,2.7516,2.8017,2.8574,2.8805,2.9228,2.9757,2.9982,3.0017,2.9918,2.9918,2.9918,2.9918,2.9918,2.9918,2.9918,2.9918,2.9814,2.9665,2.9486,2.9044,2.8527,2.8125,2.768,2.7115,2.6174,2.628,2.615,2.488,2.4394,2.4001,2.335,2.2931,2.2943,2.3659,2.3521,2.3507,2.3879,2.423,2.4056,2.2967,2.2493,2.1753,2.0392,2.0213,2.0165,2.0033,2.0251,2.0297,2.0056,2.0044,2.0044,2.0044,2.0044,2.0044,2.0067,2.0488,2.0677,2.0677,2.0864,2.0914,2.0914,2.1031,2.1031,2.3628,0.0,2.7466,3.0134,3.0913,0.0,3.2812,3.2711,3.2492,3.3028,3.2766,3.2137,3.099,3.0102,2.9151,2.7871,2.7569,2.7434,2.7313,2.7299,2.7299,2.7218,2.7218,2.7218,2.7137,2.7137,2.7023,2.6758,2.6708,2.6641,2.6418,2.6607,2.6708,2.6708,2.699,2.7137,2.7137,2.6875,2.6708,2.6725,2.6521,2.645,2.6549,2.6741,2.6741,2.6617,2.737,2.7651,2.7648,2.8265,2.891,2.952,2.952,2.9847,3.0225,3.0225,3.0087,2.9918,2.9918,2.9918,2.9918,2.9918,2.9874,2.9814,2.9814,2.9621,2.9335,2.8951,2.8463,2.7963,2.7449,2.713,2.6683,2.5812,2.5955,2.599,2.469,2.4272,2.3947,2.335,2.3362,2.3687,2.4449,2.5204,2.5534,2.5189,2.5199,2.4877,2.3781,2.3075,2.2223,2.0967,2.0772,2.0734,2.0538,2.0917,2.0986,2.0572,2.0538,2.0538,2.0538,2.0538,2.0354,1.9953,2.0343,2.0538,2.0538,2.0963,2.1221,2.1221,2.1221,2.1204,0.0,0.0,2.6731,0.0,2.9144,3.0337,0.0,3.1642,3.2223,3.28,3.3009,3.2517,3.0688,3.026,2.9589,2.7814,2.7526,2.7434,2.7313,2.7299,2.7169,2.6891,2.6858,2.6758,2.6556,2.6521,2.6487,2.6453,2.6453,2.6453,2.6418,2.6453,2.6453,2.6453,2.6487,2.6521,2.6521,2.6487,2.6453,2.6453,2.6418,2.6628,2.7003,2.704,2.7171,2.7387,2.8139,2.8306,2.802,2.8118,2.8476,2.89,2.89,2.9339,2.9946,2.9946,2.9946,2.9918,2.9918,2.9918,2.9918,2.9918,2.9726,2.956,2.956,2.935,2.9075,2.8669,2.8255,2.775,2.699,2.6899,2.689,2.6385,2.6715,2.6505,2.4145,2.3864,2.3947,2.356,2.3967,2.4624,2.5218,2.5882,2.6406,2.6872,2.6884,2.6658,2.6324,2.5333,2.383,2.1851,2.1369,2.1129,2.1129,2.1187,2.1198,2.1129,2.1066,2.1066,2.1066,2.1066,2.1095,2.1026,2.1095,2.1066,2.1066,2.1198,2.1221,2.1221,2.1221,2.1399,2.2575,2.3901,2.5419,0.0,2.8562,2.9404,3.0955,3.159,3.2013,3.261,3.2784,3.2335,3.0601,3.0243,2.9607,2.7801,2.7452,2.7296,2.7038,2.7023,2.6908,2.6624,2.659,2.6521,2.6418,2.6418,2.6349,2.6189,2.6189,2.6118,2.5954,2.6082,2.6189,2.6189,2.6314,2.6418,2.6418,2.6243,2.6118,2.5954,2.6365,2.6667,2.6896,2.7695,2.7905,2.7662,2.8401,2.8633,2.8527,2.8934,2.9225,2.9432,2.9432,2.9626,2.9918,2.9918,2.9918,2.9918,2.9918,2.9918,2.9874,2.971,2.9621,2.947,2.9305,2.892,2.8556,2.8469,2.8053,2.7568,2.7379,2.7286,2.7043,2.6217,2.6657,2.6976,2.5688,2.5313,2.5172,2.4886,2.5823,2.6668,2.6799,2.7589,2.8223,2.838,2.8053,2.747,2.6882,2.5848,2.4615,2.3214,2.25,2.2205,2.2217,2.2085,2.2019,2.2019,2.1743,2.1594,2.1594,2.1319,2.1221,2.1221,2.1221,2.1221,2.1221,2.1221,2.1221,2.1233,2.1456,2.1709,0.0,0.0,2.4006,2.6831,2.787,2.8727,3.0672,3.1421,3.1787,3.2214,3.2464,3.2148,3.061,3.0159,2.9487,2.7875,2.7385,2.7055,2.6758,2.6691,2.6624,2.6314,2.6279,2.6279,2.6208,2.6189,2.6118,2.5917,2.5881,2.5807,2.5616,2.5787,2.5881,2.5881,2.6082,2.6189,2.6189,2.5974,2.5868,2.5891,2.6387,2.6742,2.6992,2.8239,2.8595,2.8288,2.8822,2.9065,2.9097,2.9691,2.9918,2.9918,2.9918,2.9918,2.9918,2.9918,2.9918,2.9918,2.9918,2.9874,2.9754,2.947,2.9273,2.9121,2.9014,2.8581,2.8122,2.8352,2.8006,2.7639,2.7694,2.7684,2.7454,2.6564,2.709,2.7686,2.7148,2.6782,2.6538,2.6558,2.7506,2.8304,2.8305,2.9031,2.954,2.9415,2.8881,2.8157,2.7162,2.5983,2.4981,2.4265,2.3419,2.297,2.29,2.2821,2.2685,2.2685,2.2203,2.1927,2.1927,2.156,2.1353,2.1353,2.1353,2.1296,2.1221,2.1221,2.1221,2.1244,2.1686,2.1996,0.0,2.1253,0.0,2.4486,2.6568,2.8413,2.9333,3.0654,3.1644,3.1505,3.2075,3.2156,3.068,3.0075,2.9398,2.8186,2.7334,2.6725,2.6453,2.6418,2.6314,2.6046,2.601,2.5917,2.5675,2.5654,2.5654,2.5616,2.5616,2.5616,2.5616,2.5616,2.5616,2.5616,2.5654,2.5654,2.5654,2.5508,2.5847,2.6636,2.6534,2.6929,2.7672,2.8433,2.9146,2.9805,2.9837,2.9853,2.987,2.9902,2.9918,2.9918,2.9918,2.9918,2.9918,2.9918,2.9918,2.9918,2.9918,2.971,2.947,2.9227,2.8701,2.8232,2.8525,2.839,2.816,2.8307,2.8268,2.8039,2.7603,2.7825,2.8132,2.8063,2.8671,2.892,2.7603,2.7339,2.7624,2.8223,2.8526,2.8872,2.9386,2.9588,2.9602,2.9602,2.9415,2.8881,2.7868,2.6171,2.4883,2.4584,2.3765,2.3029,2.2708,2.2685,2.2685,2.2685,2.2203,2.1927,2.1927,2.1904,2.1881,2.1881,2.1881,2.1652,2.1221,2.1221,2.1221,2.1244,2.1686,2.218,0.0,0.0,0.0,2.3534,2.5319,2.7014,2.8334,2.9609,3.061,3.0869,3.0924,3.0879,3.0688,3.0443,2.9712,2.7956,2.7448,2.7006,2.6256,2.6154,2.6046,2.5787,2.5749,2.5712,2.5616,2.5616,2.5616,2.5616,2.5616,2.5616,2.5616,2.5616,2.5616,2.5616,2.5616,2.5616,2.5616,2.5562,2.5934,2.6701,2.7082,2.7664,2.8433,2.9146,2.9659,2.9918,2.9918,2.9918,2.9918,2.9918,2.9918,2.9918,2.9918,2.9918,2.9874,2.971,2.9621,2.9621,2.9457,2.9591,2.9847,2.9595,2.9453,2.9383,2.9298,2.8838,2.8392,2.8857,2.8753,2.8556,2.8769,2.8974,2.9094,2.9094,2.9324,2.9366,2.8904,2.8622,2.8629,2.8865,2.9031,2.9226,2.9435,2.954,2.9602,2.9602,2.954,2.9149,2.8157,2.6582,2.5542,2.5549,2.4507,2.3858,2.3885,2.3732,2.3649,2.3649,2.3178,2.2834,2.2834,2.2581,2.2409,2.2409,2.2409,2.2157,2.1652,2.1319,2.133,2.1663,2.2168,2.2685,1.9566,0.0,0.0,0.0,2.3788,2.4951,2.7055,2.8152,2.8935,2.9678,3.0,3.0268,3.0573,3.0505,2.9935,2.8365,2.7674,2.7118,2.6344,2.6028,2.5824,2.5616,2.5616,2.5616,2.5616,2.5616,2.5616,2.5616,2.5616,2.5616,2.5616,2.5616,2.5616,2.5616,2.5616,2.5729,2.5972,2.5934,2.629,2.7041,2.768,2.8262,2.8822,2.9578,2.9814,2.9621,2.9621,2.971,2.9918,2.9918,2.9918,2.9918,2.9918,2.9858,2.9754,2.9576,2.9425,2.9321,2.9234,2.9452,2.9728,2.9592,2.9546,2.951,2.9474,2.8985,2.8596,2.9223,2.9227,2.9083,2.9504,2.9602,2.9602,2.9602,2.9602,2.9602,2.9602,2.9415,2.9289,2.9289,2.9352,2.9477,2.9477,2.954,2.9602,2.9602,2.9275,2.8803,2.8287,2.6799,2.5779,2.5931,2.4886,2.4261,2.4418,2.4273,2.42,2.42,2.3718,2.3372,2.3372,2.3121,2.2937,2.2937,2.2937,2.2777,2.2432,2.1916,2.1847,2.2191,2.2708,2.3213,0.0,0.0,0.0,2.2108,2.1988,2.2367,2.5398,2.6179,2.6601,2.7823,2.9265,3.0313,3.0261,3.0243,3.0046,2.9387,2.8086,2.7066,2.6772,2.6102,2.5648,2.5648,2.5632,2.5616,2.5616,2.5616,2.5616,2.5616,2.5616,2.5616,2.5616,2.5616,2.5616,2.5616,2.5616,2.5956,2.6652,2.6534,2.6889,2.7721,2.8291,2.8646,2.8838,2.9551,2.9576,2.9074,2.9074,2.9364,2.9858,2.9858,2.9858,2.9858,2.9858,2.9665,2.947,2.9425,2.9305,2.9108,2.9301,2.9265,2.9128,2.903,2.8751,2.8498,2.8834,2.8838,2.8844,2.9448,2.9602,2.9602,2.9602,2.9602,2.9602,2.9602,2.9602,2.9602,2.9602,2.9602,2.9602,2.9602,2.9602,2.9602,2.9602,2.9602,2.9602,2.9602,2.8597,2.7934,2.8287,2.6744,2.5606,2.5606,2.4754,2.42,2.42,2.42,2.42,2.42,2.3741,2.3395,2.3395,2.3395,2.3395,2.3395,2.3395,2.3395,2.3395,2.2937,2.2685,2.2708,2.3224,2.3729,1.9252,0.0,0.0,0.0,0.0,0.0,2.3099,2.3352,2.3896,2.6236,2.6428,2.6636,2.8152,2.8876,2.917,2.8974,2.8575,2.8095,2.751,2.683,2.6409,2.6409,2.594,2.5616,2.5616,2.5616,2.5616,2.5616,2.5616,2.5616,2.5616,2.5616,2.5616,2.5616,2.5616,2.5713,2.5907,2.6213,2.6768,2.7557,2.7787,2.8255,2.8867,2.8794,2.8638,2.8543,2.8543,2.8591,2.8732,2.8732,2.8732,2.8732,2.8622,2.8575,2.8432,2.8143,2.8267,2.8556,2.8509,2.9053,2.9778,2.9731,2.9769,2.9777,2.9889,2.9643,2.9392,2.956,2.9602,2.9602,2.9602,2.9602,2.9602,2.9602,2.9602,2.9602,2.9602,2.9602,2.9602,2.9602,2.9602,2.9602,2.9602,2.9602,2.9602,2.9602,2.9212,2.8803,2.8454,2.7324,2.6321,2.5767,2.4969,2.4345,2.42,2.42,2.42,2.42,2.4062,2.3982,2.3982,2.3982,2.3982,2.3982,2.3982,2.3982,2.3982,2.311,2.2868,2.3247,2.3752,2.4062,1.9713,0.0,0.0,2.038,0.0,0.0,2.1758,2.1821,2.2182,2.468,2.5149,2.557,2.7032,2.7867,2.8433,2.8741,2.879,2.8644,2.8223,2.7559,2.7122,2.7122,2.6749,2.6377,2.6102,2.6328,2.6247,2.5664,2.5891,2.594,2.5632,2.5616,2.5616,2.5616,2.5616,2.5486,2.5301,2.6077,2.6651,2.702,2.7564,2.8093,2.8654,2.84,2.8192,2.7963,2.7963,2.7864,2.768,2.755,2.7849,2.8288,2.8128,2.7981,2.783,2.7814,2.7951,2.8193,2.8385,2.9028,2.9697,2.9797,2.9889,3.0021,3.0021,2.9851,2.9602,2.9602,2.9602,2.9602,2.9602,2.9602,2.9602,2.9602,2.9602,2.9602,2.9602,2.9602,2.9602,2.9602,2.9602,2.9602,2.9602,2.9602,2.9518,2.9265,2.9108,2.863,2.7769,2.7035,2.6252,2.5441,2.4826,2.4418,2.42,2.42,2.42,2.42,2.42,2.42,2.42,2.42,2.42,2.42,2.42,2.42,2.42,2.3603,2.3465,2.3764,2.4062,2.42,2.0099,2.0229,0.0,2.042,1.9402,0.0,2.096,2.0953,2.1097,2.3128,2.4492,2.5553,2.6205,2.696,2.7656,2.8223,2.8579,2.8806,2.8903,2.8288,2.7834,2.7834,2.7753,2.7478,2.6863,2.7348,2.7154,2.5788,2.617,2.6202,2.561,2.5524,2.5486,2.5486,2.5486,2.5262,2.4784,2.5967,2.6435,2.6243,2.7389,2.8046,2.8158,2.8158,2.7864,2.7414,2.7414,2.7203,2.6779,2.6578,2.7159,2.8094,2.7932,2.765,2.7386,2.7868,2.7896,2.7857,2.8668,2.9095,2.934,2.9543,2.9602,2.9602,2.9602,2.9602,2.9602,2.9602,2.9602,2.9602,2.9602,2.9602,2.9602,2.9602,2.9602,2.9602,2.9602,2.9602,2.9602,2.9602,2.9602,2.9602,2.9602,2.9602,2.942,2.8736,2.8636,2.8109,2.6752,2.6346,2.5861,2.4992,2.4646,2.4418,2.42,2.42,2.42,2.42,2.42,2.42,2.42,2.42,2.42,2.42,2.42,2.4166,2.4108,2.4166,2.42,2.42,2.42,2.42,2.0578,2.0475,2.0492,2.042,2.0137,0.0,1.9727,1.9593,1.9922,2.1469,2.1582,2.1972,2.3805,2.5056,2.5728,2.5389,2.7211,2.8882,2.9583,2.9032,2.8579,2.8579,2.8061,2.7656,2.7527,2.7624,2.7268,2.6238,2.5457,2.5116,2.5349,2.5013,2.4799,2.4799,2.4704,2.4446,2.409,2.5197,2.5772,2.5818,2.6753,2.724,2.7312,2.7152,2.7026,2.6922,2.6922,2.687,2.6779,2.6578,2.6654,2.6811,2.6549,2.6351,2.6275,2.6763,2.7173,2.7636,2.8306,2.897,2.9572,2.9574,2.9602,2.9602,2.9602,2.9602,2.9602,2.9602,2.9602,2.9602,2.9602,2.9602,2.9602,2.9602,2.9602,2.9602,2.9602,2.9602,2.9602,2.9602,2.9602,2.9602,2.9602,2.9602,2.9359,2.8675,2.8784,2.8505,2.7194,2.6883,2.6483,2.5535,2.4992,2.4574,2.42,2.42,2.42,2.42,2.42,2.42,2.42,2.42,2.42,2.42,2.42,2.3994,2.3592,2.4005,2.42,2.42,2.42,2.42,2.1249,2.1032,2.0926,2.0837,2.0548,0.0,0.0,1.9661,1.9547,2.0782,2.0526,2.0543,2.2131,2.2948,2.3628,2.4325,2.5743,2.6946,2.7533,2.8233,2.8731,2.879,2.8408,2.801,2.7589,2.8184,2.811,2.6934,2.59,2.5334,2.5334,2.4811,2.4486,2.4486,2.4282,2.4116,2.4029,2.4737,2.5242,2.5482,2.6116,2.6525,2.6616,2.6553,2.6606,2.6645,2.6645,2.6645,2.6645,2.6486,2.6312,2.6204,2.6056,2.5907,2.5813,2.6547,2.7059,2.7565,2.8435,2.9149,2.9602,2.9602,2.9602,2.9602,2.9602,2.9602,2.9602,2.9602,2.9602,2.9602,2.9602,2.9602,2.9602,2.9602,2.9602,2.9602,2.9602,2.9602,2.9602,2.9602,2.9602,2.9602,2.9602,2.9602,2.9226,2.8189,2.847,2.8231,2.6575,2.6793,2.662,2.5336,2.5206,2.4909,2.4273,2.42,2.42,2.42,2.42,2.42,2.42,2.42,2.4074,2.3833,2.3821,2.3569,2.3064,2.358,2.3821,2.3821,2.3821,2.3959,2.2177,2.2018,2.1923,2.1536,2.1262,2.1052,0.0,0.0,0.0,2.0351,2.0067,1.9971,2.0879,2.1219,2.1806,2.328,2.4175,2.4708,2.4683,2.6403,2.7748,2.7891,2.8116,2.7982,2.7312,2.8096,2.8318,2.7427,2.6137,2.5361,2.5229,2.4648,2.4239,2.4101,2.3822,2.3762,2.3987,2.4375,2.4791,2.5152,2.5706,2.6002,2.6056,2.6233,2.6326,2.6404,2.6404,2.6457,2.6457,2.6272,2.6056,2.5839,2.5839,2.5688,2.5577,2.6585,2.7129,2.7488,2.8671,2.9289,2.9602,2.9602,2.9602,2.9602,2.9602,2.9602,2.9602,2.9602,2.9602,2.9602,2.9602,2.9602,2.9602,2.9602,2.9602,2.9602,2.9602,2.9602,2.9602,2.9602,2.9602,2.9602,2.9602,2.9602,2.9171,2.7908,2.8157,2.7813,2.6013,2.6477,2.6483,2.5064,2.5277,2.5123,2.4261,2.42,2.42,2.42,2.42,2.42,2.42,2.4108,2.381,2.3305,2.3305,2.3041,2.2536,2.2949,2.3132,2.3305,2.3305,2.3569,2.3522,2.3829,2.3921,2.2588,2.3102,2.3208,2.048,0.0,2.0236,1.952,0.0,1.9469,2.012,0.0,0.0,2.0487,2.2437,2.361,2.2522,2.357,2.451,2.472,2.6002,2.6867,2.6729,2.6122,2.6207,2.7242,2.4777,2.3644,2.4537,2.413,2.3639,2.3083,2.292,2.2965,2.3229,2.3829,2.4464,2.5033,2.576,2.6002,2.5948,2.6056,2.6111,2.6165,2.6165,2.6218,2.6272,2.6056,2.5839,2.5729,2.5729,2.5508,2.5381,2.6572,2.7129,2.7488,2.8671,2.9289,2.9602,2.9602,2.9602,2.9602,2.9602,2.9602,2.9602,2.9602,2.9602,2.9602,2.9602,2.9602,2.9602,2.9602,2.9602,2.9602,2.9602,2.9602,2.9602,2.9602,2.9602,2.9602,2.9602,2.9602,2.9324,2.8336,2.8312,2.7934,2.695,2.6526,2.6082,2.5535,2.5135,2.4706,2.4273,2.42,2.42,2.42,2.42,2.42,2.42,2.3764,2.3293,2.2777,2.2765,2.2513,2.2007,2.2076,2.2329,2.2765,2.2765,2.3041,2.3817,2.3913,2.3893,2.2888,2.2848,2.2629,2.0891,2.0144,1.9718,1.9535,0.0,0.0,0.0,0.0,0.0,0.0,2.0868,2.1292,2.0182,2.1104,2.233,2.3442,2.4164,2.4883,2.5772,2.5385,2.5303,2.5899,2.4591,2.3917,2.4418,2.4317,2.398,2.3392,2.3359,2.3378,2.3509,2.3969,2.4526,2.5135,2.5439,2.5564,2.5508,2.5688,2.5798,2.5893,2.5893,2.5893,2.5948,2.5839,2.5619,2.5397,2.5397,2.5492,2.5731,2.6722,2.7377,2.7986,2.8921,2.9415,2.9602,2.9602,2.9602,2.9602,2.9602,2.9602,2.9602,2.9602,2.9602,2.9602,2.9602,2.9602,2.9602,2.9602,2.9602,2.9602,2.9602,2.9602,2.9602,2.9602,2.9602,2.9602,2.9602,2.9261,2.8789,2.8352,2.796,2.7364,2.6633,2.6633,2.6289,2.5277,2.5206,2.4981,2.4261,2.42,2.42,2.42,2.42,2.4062,2.3775,2.327,2.2754,2.2249,2.2249,2.1996,2.1479,2.1778,2.1881,2.1878,2.2099,2.2513,2.4155,2.4111,2.4014,2.2895,2.253,2.2126,2.0959,2.0254,1.9814,1.9753,1.9192,0.0,0.0,0.0,1.8835,1.9561,0.0,1.9818,1.8733,1.9363,2.0365,2.1449,2.2239,2.3257,2.4714,2.4401,2.4297,2.483,2.3985,2.3728,2.4234,2.4391,2.4204,2.356,2.3766,2.3863,2.3798,2.4251,2.475,2.53,2.53,2.523,2.5174,2.5369,2.5481,2.5564,2.5564,2.5564,2.5633,2.5564,2.5397,2.5174,2.5174,2.5537,2.6199,2.6886,2.7569,2.8284,2.9143,2.9477,2.9602,2.9602,2.9602,2.9602,2.9602,2.9602,2.9602,2.9602,2.9602,2.9602,2.9602,2.9602,2.9602,2.9602,2.9602,2.9602,2.9602,2.9463,2.9324,2.9324,2.9135,2.9071,2.9212,2.8853,2.8441,2.8352,2.7696,2.696,2.6289,2.6564,2.6289,2.4933,2.5135,2.5052,2.4273,2.42,2.4143,2.4005,2.3994,2.3695,2.2983,2.2673,2.2237,2.1732,2.172,2.1537,2.1221,2.1537,2.1525,2.1233,2.1548,2.1996,2.4789,2.4994,2.4916,2.2771,2.2709,2.2561,2.0264,2.0601,2.1133,2.0096,2.0837,2.1399,2.0614,2.0444,2.0203,1.9529,1.995,0.0,0.0,1.8531,1.8335,1.7735,2.0208,2.2395,2.3609,2.2685,2.2698,2.4382,2.2587,2.2114,2.3817,2.4053,2.3808,2.3112,2.3766,2.4016,2.3798,2.4462,2.5035,2.5494,2.5494,2.5369,2.5174,2.523,2.523,2.523,2.523,2.53,2.5494,2.53,2.523,2.5174,2.5061,2.5738,2.6796,2.6991,2.7569,2.8284,2.9143,2.9477,2.9602,2.9602,2.9602,2.9602,2.9602,2.9602,2.9602,2.9602,2.9602,2.9602,2.9602,2.9602,2.9602,2.9602,2.9602,2.9602,2.9602,2.9044,2.8556,2.8556,2.7986,2.7749,2.8222,2.8454,2.8441,2.8352,2.7696,2.696,2.6289,2.6233,2.5886,2.4933,2.4801,2.4646,2.4273,2.42,2.3982,2.3429,2.3395,2.2949,2.2019,2.1962,2.1709,2.1256,2.1192,2.1244,2.1221,2.1244,2.1244,2.1221,2.1244,2.1468,2.4686,2.513,2.5105,2.299,2.273,2.2492,2.0426,2.0607,2.0834,1.9614,2.0594,2.1298,2.02,2.0203,2.0358,2.0105,1.9852,1.9196,0.0,1.7037,1.6912,1.7967,1.9612,2.0804,2.1196,2.1528,2.1944,2.2543,2.1988,2.2088,2.3167,2.4002,2.4221,2.3758,2.4479,2.4652,2.4251,2.4737,2.5038,2.5188,2.5188,2.5131,2.5061,2.5061,2.5061,2.5061,2.5061,2.5131,2.5188,2.5118,2.5061,2.5102,2.5439,2.6149,2.7004,2.7157,2.7925,2.8886,2.9345,2.954,2.9602,2.9602,2.9602,2.9602,2.9602,2.9602,2.9602,2.9602,2.9602,2.9602,2.9602,2.9602,2.9602,2.9602,2.9602,2.9602,2.9602,2.9044,2.8492,2.8492,2.7986,2.7683,2.8222,2.7617,2.7338,2.8026,2.7497,2.6837,2.6289,2.6082,2.5734,2.5052,2.4778,2.4574,2.4418,2.3962,2.3477,2.2972,2.2937,2.2627,2.1962,2.1927,2.1686,2.1233,2.1221,2.1221,2.1221,2.1221,2.1221,2.1221,2.1221,2.1314,2.425,2.4443,2.4387,2.277,2.2483,2.212,2.048,2.0741,2.1046,1.9947,2.0924,2.1769,2.1169,2.1067,2.0962,2.0737,2.0133,1.9056,0.0,1.6556,1.657,1.767,1.8744,1.9644,2.0328,2.0387,2.0741,2.1541,2.1147,2.1439,2.2699,2.3775,2.4253,2.403,2.494,2.5108,2.4502,2.4873,2.5061,2.5005,2.5005,2.5005,2.5005,2.5005,2.5005,2.5005,2.5005,2.5005,2.5005,2.5005,2.5197,2.5486,2.5867,2.6581,2.7501,2.7594,2.829,2.9289,2.954,2.9602,2.9602,2.9602,2.9602,2.9602,2.9602,2.9602,2.9602,2.9602,2.9401,2.9261,2.9477,2.9212,2.8944,2.9352,2.9149,2.8944,2.9352,2.8532,2.7776,2.7986,2.7324,2.6879,2.7497,2.6892,2.662,2.7564,2.7162,2.6496,2.5943,2.5943,2.5734,2.5052,2.4778,2.4574,2.4418,2.4045,2.357,2.2983,2.2845,2.2523,2.195,2.1755,2.1502,2.1233,2.1221,2.1221,2.1221,2.1221,2.1221,2.1221,2.1221,2.1221]}]]